<?xml version='1.0' encoding='UTF-8'?><gpx version="1.1" creator="JPX - https://github.com/jenetics/jpx" xmlns="http://www.topografix.com/GPX/1/1"><trk><trkseg><trkpt lat="44.2491837" lon="12.3659057"><ele>1.9999999999999998</ele><time>2026-05-02T13:16:45.984Z</time></trkpt><trkpt lat="44.2492393" lon="12.3658549"><ele>2.0</ele><time>2026-05-02T13:16:50Z</time></trkpt><trkpt lat="44.2493063" lon="12.3658647"><ele>2.0</ele><time>2026-05-02T13:16:55.999Z</time></trkpt><trkpt lat="44.2492627" lon="12.365968"><ele>2.0</ele><time>2026-05-02T13:17:06.012Z</time></trkpt><trkpt lat="44.2491745" lon="12.3660085"><ele>1.9999999999999998</ele><time>2026-05-02T13:17:08.01Z</time></trkpt><trkpt lat="44.2490751" lon="12.3660663"><ele>2.0</ele><time>2026-05-02T13:17:10.005Z</time></trkpt><trkpt lat="44.2489997" lon="12.3660758"><ele>2.1666666666666665</ele><time>2026-05-02T13:17:12.012Z</time></trkpt><trkpt lat="44.2489388" lon="12.3660481"><ele>2.333333333333333</ele><time>2026-05-02T13:17:13.999Z</time></trkpt><trkpt lat="44.2488635" lon="12.3659362"><ele>2.5</ele><time>2026-05-02T13:17:16.006Z</time></trkpt><trkpt lat="44.2488309" lon="12.3658416"><ele>2.6666666666666665</ele><time>2026-05-02T13:17:17Z</time></trkpt><trkpt lat="44.2487964" lon="12.3657279"><ele>2.8333333333333335</ele><time>2026-05-02T13:17:17.995Z</time></trkpt><trkpt lat="44.2487645" lon="12.3656131"><ele>3.0</ele><time>2026-05-02T13:17:19.002Z</time></trkpt><trkpt lat="44.2487418" lon="12.3655156"><ele>3.0</ele><time>2026-05-02T13:17:20.008Z</time></trkpt><trkpt lat="44.2487227" lon="12.3654246"><ele>3.0</ele><time>2026-05-02T13:17:21.004Z</time></trkpt><trkpt lat="44.2487044" lon="12.3652863"><ele>3.0</ele><time>2026-05-02T13:17:23.006Z</time></trkpt><trkpt lat="44.2486806" lon="12.3651885"><ele>3.0</ele><time>2026-05-02T13:17:26.003Z</time></trkpt><trkpt lat="44.2486322" lon="12.3651157"><ele>3.0</ele><time>2026-05-02T13:17:29.003Z</time></trkpt><trkpt lat="44.2485844" lon="12.3650179"><ele>3.0</ele><time>2026-05-02T13:17:31Z</time></trkpt><trkpt lat="44.2485437" lon="12.3648707"><ele>3.0</ele><time>2026-05-02T13:17:33.008Z</time></trkpt><trkpt lat="44.2484998" lon="12.3647382"><ele>3.0</ele><time>2026-05-02T13:17:35.017Z</time></trkpt><trkpt lat="44.2484408" lon="12.3645951"><ele>3.0</ele><time>2026-05-02T13:17:37.007Z</time></trkpt><trkpt lat="44.2483979" lon="12.3644882"><ele>3.0</ele><time>2026-05-02T13:17:38.008Z</time></trkpt><trkpt lat="44.2483564" lon="12.3643758"><ele>3.0</ele><time>2026-05-02T13:17:39.006Z</time></trkpt><trkpt lat="44.2483265" lon="12.3642708"><ele>3.1666666666666665</ele><time>2026-05-02T13:17:40.004Z</time></trkpt><trkpt lat="44.2483046" lon="12.3641821"><ele>3.333333333333333</ele><time>2026-05-02T13:17:41.007Z</time></trkpt><trkpt lat="44.2482828" lon="12.3640958"><ele>3.5</ele><time>2026-05-02T13:17:42.001Z</time></trkpt><trkpt lat="44.2482422" lon="12.3639357"><ele>3.6666666666666665</ele><time>2026-05-02T13:17:43.998Z</time></trkpt><trkpt lat="44.2481969" lon="12.3637763"><ele>3.833333333333333</ele><time>2026-05-02T13:17:46.009Z</time></trkpt><trkpt lat="44.248169" lon="12.3636852"><ele>4.0</ele><time>2026-05-02T13:17:47.001Z</time></trkpt><trkpt lat="44.248147" lon="12.3635977"><ele>4.0</ele><time>2026-05-02T13:17:48.005Z</time></trkpt><trkpt lat="44.2481299" lon="12.3634666"><ele>4.0</ele><time>2026-05-02T13:17:50.004Z</time></trkpt><trkpt lat="44.2481003" lon="12.3633205"><ele>4.0</ele><time>2026-05-02T13:17:51.99Z</time></trkpt><trkpt lat="44.2480662" lon="12.3632364"><ele>4.0</ele><time>2026-05-02T13:17:52.999Z</time></trkpt><trkpt lat="44.2480132" lon="12.3631209"><ele>4.0</ele><time>2026-05-02T13:17:54.003Z</time></trkpt><trkpt lat="44.2479595" lon="12.3629894"><ele>3.9999999999999996</ele><time>2026-05-02T13:17:55.009Z</time></trkpt><trkpt lat="44.2479142" lon="12.3628577"><ele>4.0</ele><time>2026-05-02T13:17:56.001Z</time></trkpt><trkpt lat="44.247878" lon="12.3627381"><ele>4.0</ele><time>2026-05-02T13:17:57.013Z</time></trkpt><trkpt lat="44.2478452" lon="12.3626341"><ele>4.0</ele><time>2026-05-02T13:17:57.998Z</time></trkpt><trkpt lat="44.2478156" lon="12.3625381"><ele>3.9999999999999996</ele><time>2026-05-02T13:17:59.004Z</time></trkpt><trkpt lat="44.2477874" lon="12.362451"><ele>4.0</ele><time>2026-05-02T13:17:59.999Z</time></trkpt><trkpt lat="44.2477607" lon="12.3623612"><ele>3.9999999999999996</ele><time>2026-05-02T13:18:01Z</time></trkpt><trkpt lat="44.2477333" lon="12.3622698"><ele>4.0</ele><time>2026-05-02T13:18:01.995Z</time></trkpt><trkpt lat="44.2477033" lon="12.3621801"><ele>4.0</ele><time>2026-05-02T13:18:03.005Z</time></trkpt><trkpt lat="44.2476759" lon="12.3621007"><ele>4.0</ele><time>2026-05-02T13:18:04.005Z</time></trkpt><trkpt lat="44.2476279" lon="12.3619624"><ele>3.9999999999999996</ele><time>2026-05-02T13:18:06Z</time></trkpt><trkpt lat="44.2475779" lon="12.3617981"><ele>4.0</ele><time>2026-05-02T13:18:08.009Z</time></trkpt><trkpt lat="44.2475442" lon="12.3617007"><ele>3.8000000000000003</ele><time>2026-05-02T13:18:09.005Z</time></trkpt><trkpt lat="44.2475022" lon="12.3615765"><ele>3.6000000000000005</ele><time>2026-05-02T13:18:09.997Z</time></trkpt><trkpt lat="44.2474657" lon="12.3614468"><ele>3.4</ele><time>2026-05-02T13:18:11Z</time></trkpt><trkpt lat="44.2474226" lon="12.3613225"><ele>3.2</ele><time>2026-05-02T13:18:11.988Z</time></trkpt><trkpt lat="44.2473816" lon="12.3612077"><ele>3.0</ele><time>2026-05-02T13:18:12.997Z</time></trkpt><trkpt lat="44.2473503" lon="12.3611059"><ele>2.6666666666666665</ele><time>2026-05-02T13:18:13.991Z</time></trkpt><trkpt lat="44.2473223" lon="12.3610038"><ele>2.3333333333333335</ele><time>2026-05-02T13:18:15.01Z</time></trkpt><trkpt lat="44.2472914" lon="12.3608984"><ele>2.0</ele><time>2026-05-02T13:18:16.006Z</time></trkpt><trkpt lat="44.2472582" lon="12.3607876"><ele>1.6666666666666665</ele><time>2026-05-02T13:18:16.999Z</time></trkpt><trkpt lat="44.2472252" lon="12.3606751"><ele>1.3333333333333333</ele><time>2026-05-02T13:18:18.008Z</time></trkpt><trkpt lat="44.2471898" lon="12.3605613"><ele>1.0</ele><time>2026-05-02T13:18:18.997Z</time></trkpt><trkpt lat="44.2471555" lon="12.3604583"><ele>0.8333333333333333</ele><time>2026-05-02T13:18:20.013Z</time></trkpt><trkpt lat="44.2471241" lon="12.3603546"><ele>0.6666666666666666</ele><time>2026-05-02T13:18:21.006Z</time></trkpt><trkpt lat="44.2470926" lon="12.3602527"><ele>0.5</ele><time>2026-05-02T13:18:21.996Z</time></trkpt><trkpt lat="44.2470629" lon="12.3601543"><ele>0.3333333333333333</ele><time>2026-05-02T13:18:23Z</time></trkpt><trkpt lat="44.2470273" lon="12.3600207"><ele>0.16666666666666666</ele><time>2026-05-02T13:18:25.001Z</time></trkpt><trkpt lat="44.2470063" lon="12.3599061"><ele>0.0</ele><time>2026-05-02T13:18:28.001Z</time></trkpt><trkpt lat="44.2469758" lon="12.3597945"><ele>0.0</ele><time>2026-05-02T13:18:31.024Z</time></trkpt><trkpt lat="44.2469821" lon="12.3597067"><ele>0.0</ele><time>2026-05-02T13:18:34.995Z</time></trkpt><trkpt lat="44.2470498" lon="12.3596433"><ele>0.0</ele><time>2026-05-02T13:18:36.999Z</time></trkpt><trkpt lat="44.2471154" lon="12.3595964"><ele>0.0</ele><time>2026-05-02T13:18:38.015Z</time></trkpt><trkpt lat="44.2471824" lon="12.3595559"><ele>0.0</ele><time>2026-05-02T13:18:39.007Z</time></trkpt><trkpt lat="44.2472429" lon="12.3595222"><ele>0.0</ele><time>2026-05-02T13:18:40.011Z</time></trkpt><trkpt lat="44.2473008" lon="12.3594838"><ele>0.0</ele><time>2026-05-02T13:18:41.018Z</time></trkpt><trkpt lat="44.247418" lon="12.3594029"><ele>0.0</ele><time>2026-05-02T13:18:43.013Z</time></trkpt><trkpt lat="44.2474822" lon="12.3593702"><ele>0.0</ele><time>2026-05-02T13:18:44.001Z</time></trkpt><trkpt lat="44.2476031" lon="12.3592991"><ele>0.0</ele><time>2026-05-02T13:18:46.006Z</time></trkpt><trkpt lat="44.2476743" lon="12.3592533"><ele>0.0</ele><time>2026-05-02T13:18:47.014Z</time></trkpt><trkpt lat="44.2477415" lon="12.359209"><ele>0.0</ele><time>2026-05-02T13:18:48.007Z</time></trkpt><trkpt lat="44.2478072" lon="12.3591684"><ele>0.0</ele><time>2026-05-02T13:18:49.015Z</time></trkpt><trkpt lat="44.2478746" lon="12.3591289"><ele>0.0</ele><time>2026-05-02T13:18:50.007Z</time></trkpt><trkpt lat="44.2479482" lon="12.3590881"><ele>0.0</ele><time>2026-05-02T13:18:51.006Z</time></trkpt><trkpt lat="44.2480165" lon="12.3590486"><ele>0.0</ele><time>2026-05-02T13:18:52.005Z</time></trkpt><trkpt lat="44.2480811" lon="12.3590137"><ele>0.0</ele><time>2026-05-02T13:18:53Z</time></trkpt><trkpt lat="44.2481444" lon="12.3589826"><ele>0.0</ele><time>2026-05-02T13:18:54.002Z</time></trkpt><trkpt lat="44.2482062" lon="12.3589476"><ele>0.0</ele><time>2026-05-02T13:18:55.017Z</time></trkpt><trkpt lat="44.2482703" lon="12.3589109"><ele>0.0</ele><time>2026-05-02T13:18:56.007Z</time></trkpt><trkpt lat="44.2483408" lon="12.3588737"><ele>0.0</ele><time>2026-05-02T13:18:57.011Z</time></trkpt><trkpt lat="44.248422" lon="12.3588236"><ele>0.0</ele><time>2026-05-02T13:18:58.004Z</time></trkpt><trkpt lat="44.248515" lon="12.3587667"><ele>0.0</ele><time>2026-05-02T13:18:59.018Z</time></trkpt><trkpt lat="44.2485992" lon="12.3587234"><ele>0.0</ele><time>2026-05-02T13:19:00.004Z</time></trkpt><trkpt lat="44.2486736" lon="12.3586863"><ele>0.0</ele><time>2026-05-02T13:19:01.02Z</time></trkpt><trkpt lat="44.2487435" lon="12.358644"><ele>0.0</ele><time>2026-05-02T13:19:02.035Z</time></trkpt><trkpt lat="44.2488123" lon="12.3586056"><ele>0.0</ele><time>2026-05-02T13:19:03.004Z</time></trkpt><trkpt lat="44.2488826" lon="12.3585632"><ele>0.0</ele><time>2026-05-02T13:19:04.006Z</time></trkpt><trkpt lat="44.2489474" lon="12.3585252"><ele>0.0</ele><time>2026-05-02T13:19:05.013Z</time></trkpt><trkpt lat="44.2490415" lon="12.3584806"><ele>0.0</ele><time>2026-05-02T13:19:07.002Z</time></trkpt><trkpt lat="44.2491258" lon="12.3584323"><ele>0.0</ele><time>2026-05-02T13:19:09.015Z</time></trkpt><trkpt lat="44.2492085" lon="12.3583848"><ele>0.0</ele><time>2026-05-02T13:19:11.008Z</time></trkpt><trkpt lat="44.2493219" lon="12.3583117"><ele>-0.16666666666666666</ele><time>2026-05-02T13:19:13.007Z</time></trkpt><trkpt lat="44.2493803" lon="12.3582696"><ele>-0.3333333333333333</ele><time>2026-05-02T13:19:13.996Z</time></trkpt><trkpt lat="44.249446" lon="12.3582269"><ele>-0.5</ele><time>2026-05-02T13:19:14.995Z</time></trkpt><trkpt lat="44.2495202" lon="12.3581826"><ele>-0.6666666666666666</ele><time>2026-05-02T13:19:15.999Z</time></trkpt><trkpt lat="44.2496031" lon="12.3581331"><ele>-0.8333333333333333</ele><time>2026-05-02T13:19:17Z</time></trkpt><trkpt lat="44.2496874" lon="12.3580914"><ele>-1.0</ele><time>2026-05-02T13:19:18.002Z</time></trkpt><trkpt lat="44.2497723" lon="12.3580523"><ele>-0.8</ele><time>2026-05-02T13:19:19.011Z</time></trkpt><trkpt lat="44.2498606" lon="12.358001"><ele>-0.6000000000000001</ele><time>2026-05-02T13:19:19.993Z</time></trkpt><trkpt lat="44.2499618" lon="12.3579394"><ele>-0.4</ele><time>2026-05-02T13:19:21.005Z</time></trkpt><trkpt lat="44.2500663" lon="12.3578811"><ele>-0.2</ele><time>2026-05-02T13:19:22.012Z</time></trkpt><trkpt lat="44.2501592" lon="12.3578291"><ele>0.0</ele><time>2026-05-02T13:19:22.995Z</time></trkpt><trkpt lat="44.2502441" lon="12.3577809"><ele>0.0</ele><time>2026-05-02T13:19:24Z</time></trkpt><trkpt lat="44.2503232" lon="12.3577364"><ele>0.0</ele><time>2026-05-02T13:19:25.008Z</time></trkpt><trkpt lat="44.2503976" lon="12.3576878"><ele>0.0</ele><time>2026-05-02T13:19:26.003Z</time></trkpt><trkpt lat="44.2504669" lon="12.3576416"><ele>0.0</ele><time>2026-05-02T13:19:27.023Z</time></trkpt><trkpt lat="44.2505306" lon="12.3575991"><ele>0.0</ele><time>2026-05-02T13:19:28Z</time></trkpt><trkpt lat="44.2505992" lon="12.3575527"><ele>0.0</ele><time>2026-05-02T13:19:29Z</time></trkpt><trkpt lat="44.2506715" lon="12.3575128"><ele>0.0</ele><time>2026-05-02T13:19:30.01Z</time></trkpt><trkpt lat="44.2507379" lon="12.3574785"><ele>0.0</ele><time>2026-05-02T13:19:31.006Z</time></trkpt><trkpt lat="44.2508052" lon="12.3574506"><ele>0.0</ele><time>2026-05-02T13:19:31.997Z</time></trkpt><trkpt lat="44.2508723" lon="12.3574248"><ele>0.0</ele><time>2026-05-02T13:19:33.004Z</time></trkpt><trkpt lat="44.2509434" lon="12.3573892"><ele>0.0</ele><time>2026-05-02T13:19:34.003Z</time></trkpt><trkpt lat="44.2510154" lon="12.3573541"><ele>0.0</ele><time>2026-05-02T13:19:34.997Z</time></trkpt><trkpt lat="44.25109" lon="12.3573122"><ele>0.0</ele><time>2026-05-02T13:19:35.998Z</time></trkpt><trkpt lat="44.2511687" lon="12.3572606"><ele>0.0</ele><time>2026-05-02T13:19:37.007Z</time></trkpt><trkpt lat="44.2512572" lon="12.3572005"><ele>0.0</ele><time>2026-05-02T13:19:38.004Z</time></trkpt><trkpt lat="44.2513478" lon="12.3571395"><ele>0.0</ele><time>2026-05-02T13:19:39.009Z</time></trkpt><trkpt lat="44.2514456" lon="12.3570735"><ele>0.0</ele><time>2026-05-02T13:19:40.007Z</time></trkpt><trkpt lat="44.2515342" lon="12.3570193"><ele>0.0</ele><time>2026-05-02T13:19:41.005Z</time></trkpt><trkpt lat="44.2516139" lon="12.3569633"><ele>0.0</ele><time>2026-05-02T13:19:42.012Z</time></trkpt><trkpt lat="44.2516937" lon="12.3569153"><ele>0.0</ele><time>2026-05-02T13:19:43.009Z</time></trkpt><trkpt lat="44.2517737" lon="12.3568693"><ele>0.0</ele><time>2026-05-02T13:19:44.004Z</time></trkpt><trkpt lat="44.251854" lon="12.3568225"><ele>0.0</ele><time>2026-05-02T13:19:45.002Z</time></trkpt><trkpt lat="44.2519286" lon="12.3567738"><ele>0.0</ele><time>2026-05-02T13:19:45.996Z</time></trkpt><trkpt lat="44.252004" lon="12.3567265"><ele>0.0</ele><time>2026-05-02T13:19:47.023Z</time></trkpt><trkpt lat="44.2520793" lon="12.3566849"><ele>0.0</ele><time>2026-05-02T13:19:48.008Z</time></trkpt><trkpt lat="44.2521537" lon="12.356639"><ele>0.0</ele><time>2026-05-02T13:19:49.008Z</time></trkpt><trkpt lat="44.2522311" lon="12.3565949"><ele>0.0</ele><time>2026-05-02T13:19:50.013Z</time></trkpt><trkpt lat="44.252316" lon="12.3565515"><ele>0.0</ele><time>2026-05-02T13:19:51.011Z</time></trkpt><trkpt lat="44.2524017" lon="12.3564999"><ele>0.0</ele><time>2026-05-02T13:19:52.009Z</time></trkpt><trkpt lat="44.2524909" lon="12.3564515"><ele>0.0</ele><time>2026-05-02T13:19:53.007Z</time></trkpt><trkpt lat="44.2525788" lon="12.3563997"><ele>0.2</ele><time>2026-05-02T13:19:54Z</time></trkpt><trkpt lat="44.2526753" lon="12.3563409"><ele>0.4</ele><time>2026-05-02T13:19:55.01Z</time></trkpt><trkpt lat="44.2527665" lon="12.3562921"><ele>0.6000000000000001</ele><time>2026-05-02T13:19:56.006Z</time></trkpt><trkpt lat="44.252861" lon="12.356238"><ele>0.8</ele><time>2026-05-02T13:19:56.996Z</time></trkpt><trkpt lat="44.2529564" lon="12.3561843"><ele>1.0</ele><time>2026-05-02T13:19:58.006Z</time></trkpt><trkpt lat="44.253046" lon="12.356134"><ele>0.9999999999999999</ele><time>2026-05-02T13:19:58.997Z</time></trkpt><trkpt lat="44.2531203" lon="12.3560879"><ele>1.0</ele><time>2026-05-02T13:20:00.021Z</time></trkpt><trkpt lat="44.253179" lon="12.3560484"><ele>1.0</ele><time>2026-05-02T13:20:01.002Z</time></trkpt><trkpt lat="44.2532884" lon="12.3559836"><ele>1.0</ele><time>2026-05-02T13:20:03Z</time></trkpt><trkpt lat="44.2533567" lon="12.3559474"><ele>0.9999999999999999</ele><time>2026-05-02T13:20:03.997Z</time></trkpt><trkpt lat="44.2534283" lon="12.3559006"><ele>1.0</ele><time>2026-05-02T13:20:05.005Z</time></trkpt><trkpt lat="44.2535057" lon="12.3558433"><ele>1.0</ele><time>2026-05-02T13:20:06.009Z</time></trkpt><trkpt lat="44.2535939" lon="12.3557853"><ele>1.0</ele><time>2026-05-02T13:20:07.016Z</time></trkpt><trkpt lat="44.2536808" lon="12.3557366"><ele>1.0</ele><time>2026-05-02T13:20:08.006Z</time></trkpt><trkpt lat="44.2537667" lon="12.3556879"><ele>1.0</ele><time>2026-05-02T13:20:08.996Z</time></trkpt><trkpt lat="44.2538456" lon="12.3556413"><ele>1.0</ele><time>2026-05-02T13:20:10.012Z</time></trkpt><trkpt lat="44.2539272" lon="12.3555953"><ele>0.9999999999999999</ele><time>2026-05-02T13:20:11.002Z</time></trkpt><trkpt lat="44.2540015" lon="12.3555522"><ele>1.0</ele><time>2026-05-02T13:20:12.006Z</time></trkpt><trkpt lat="44.2540778" lon="12.3555079"><ele>1.0</ele><time>2026-05-02T13:20:13.003Z</time></trkpt><trkpt lat="44.2541535" lon="12.3554662"><ele>1.0</ele><time>2026-05-02T13:20:13.998Z</time></trkpt><trkpt lat="44.2542266" lon="12.3554189"><ele>0.9999999999999999</ele><time>2026-05-02T13:20:15.002Z</time></trkpt><trkpt lat="44.2542992" lon="12.3553735"><ele>1.0</ele><time>2026-05-02T13:20:16.014Z</time></trkpt><trkpt lat="44.2543758" lon="12.3553233"><ele>0.9999999999999999</ele><time>2026-05-02T13:20:16.992Z</time></trkpt><trkpt lat="44.254453" lon="12.3552729"><ele>1.0</ele><time>2026-05-02T13:20:18.011Z</time></trkpt><trkpt lat="44.2545303" lon="12.3552268"><ele>1.0</ele><time>2026-05-02T13:20:19.006Z</time></trkpt><trkpt lat="44.2546087" lon="12.3551869"><ele>1.0</ele><time>2026-05-02T13:20:20.002Z</time></trkpt><trkpt lat="44.2546836" lon="12.3551438"><ele>0.9999999999999999</ele><time>2026-05-02T13:20:21.009Z</time></trkpt><trkpt lat="44.2547615" lon="12.3550973"><ele>1.0</ele><time>2026-05-02T13:20:22.008Z</time></trkpt><trkpt lat="44.2548312" lon="12.3550541"><ele>1.3333333333333333</ele><time>2026-05-02T13:20:23.009Z</time></trkpt><trkpt lat="44.2548939" lon="12.3550129"><ele>1.6666666666666665</ele><time>2026-05-02T13:20:24.001Z</time></trkpt><trkpt lat="44.254959" lon="12.3549787"><ele>2.0</ele><time>2026-05-02T13:20:25.009Z</time></trkpt><trkpt lat="44.255067" lon="12.3549119"><ele>2.3333333333333335</ele><time>2026-05-02T13:20:26.998Z</time></trkpt><trkpt lat="44.2551249" lon="12.3548702"><ele>2.6666666666666665</ele><time>2026-05-02T13:20:28.996Z</time></trkpt><trkpt lat="44.2552041" lon="12.3548005"><ele>3.0</ele><time>2026-05-02T13:20:41.009Z</time></trkpt><trkpt lat="44.2553311" lon="12.354721"><ele>2.8</ele><time>2026-05-02T13:20:43.005Z</time></trkpt><trkpt lat="44.2554069" lon="12.3546835"><ele>2.5999999999999996</ele><time>2026-05-02T13:20:44.009Z</time></trkpt><trkpt lat="44.2554735" lon="12.3546416"><ele>2.4000000000000004</ele><time>2026-05-02T13:20:45.006Z</time></trkpt><trkpt lat="44.2555841" lon="12.3545773"><ele>2.2</ele><time>2026-05-02T13:20:46.992Z</time></trkpt><trkpt lat="44.2556813" lon="12.3545121"><ele>2.0</ele><time>2026-05-02T13:20:49.001Z</time></trkpt><trkpt lat="44.2557503" lon="12.3544839"><ele>1.8333333333333333</ele><time>2026-05-02T13:20:51.009Z</time></trkpt><trkpt lat="44.2558183" lon="12.3544453"><ele>1.6666666666666665</ele><time>2026-05-02T13:20:54.006Z</time></trkpt><trkpt lat="44.2558218" lon="12.3543117"><ele>1.5</ele><time>2026-05-02T13:20:57.003Z</time></trkpt><trkpt lat="44.2558022" lon="12.3541913"><ele>1.3333333333333333</ele><time>2026-05-02T13:20:58.005Z</time></trkpt><trkpt lat="44.2557824" lon="12.3540741"><ele>1.1666666666666665</ele><time>2026-05-02T13:20:59.002Z</time></trkpt><trkpt lat="44.255767" lon="12.3539661"><ele>1.0</ele><time>2026-05-02T13:21:00.003Z</time></trkpt><trkpt lat="44.2557618" lon="12.3538646"><ele>0.8</ele><time>2026-05-02T13:21:01.013Z</time></trkpt><trkpt lat="44.2557455" lon="12.3537748"><ele>0.6000000000000001</ele><time>2026-05-02T13:21:02Z</time></trkpt><trkpt lat="44.2557169" lon="12.3536178"><ele>0.4</ele><time>2026-05-02T13:21:03.998Z</time></trkpt><trkpt lat="44.2556919" lon="12.3534744"><ele>0.2</ele><time>2026-05-02T13:21:06Z</time></trkpt><trkpt lat="44.2556564" lon="12.3533189"><ele>0.0</ele><time>2026-05-02T13:21:08.007Z</time></trkpt><trkpt lat="44.2556254" lon="12.3531483"><ele>0.0</ele><time>2026-05-02T13:21:10.025Z</time></trkpt><trkpt lat="44.2556137" lon="12.3530602"><ele>0.0</ele><time>2026-05-02T13:21:11.009Z</time></trkpt><trkpt lat="44.2555958" lon="12.3529734"><ele>0.0</ele><time>2026-05-02T13:21:13.993Z</time></trkpt><trkpt lat="44.2555806" lon="12.3528516"><ele>0.0</ele><time>2026-05-02T13:21:18.004Z</time></trkpt><trkpt lat="44.2555762" lon="12.3527204"><ele>0.0</ele><time>2026-05-02T13:21:20.011Z</time></trkpt><trkpt lat="44.2555178" lon="12.3526185"><ele>0.0</ele><time>2026-05-02T13:21:22.007Z</time></trkpt><trkpt lat="44.2554048" lon="12.3526007"><ele>0.0</ele><time>2026-05-02T13:21:24.023Z</time></trkpt><trkpt lat="44.2552799" lon="12.352614"><ele>0.0</ele><time>2026-05-02T13:21:26.01Z</time></trkpt><trkpt lat="44.2552138" lon="12.3526307"><ele>0.0</ele><time>2026-05-02T13:21:27.009Z</time></trkpt><trkpt lat="44.2550925" lon="12.3526624"><ele>0.0</ele><time>2026-05-02T13:21:29.013Z</time></trkpt><trkpt lat="44.2549663" lon="12.352684"><ele>0.0</ele><time>2026-05-02T13:21:31Z</time></trkpt><trkpt lat="44.2549001" lon="12.3526913"><ele>0.0</ele><time>2026-05-02T13:21:32.006Z</time></trkpt><trkpt lat="44.2548329" lon="12.352712"><ele>0.0</ele><time>2026-05-02T13:21:33.007Z</time></trkpt><trkpt lat="44.2547151" lon="12.3527321"><ele>0.0</ele><time>2026-05-02T13:21:35.011Z</time></trkpt><trkpt lat="44.2546187" lon="12.3526441"><ele>0.0</ele><time>2026-05-02T13:21:36.998Z</time></trkpt><trkpt lat="44.2545852" lon="12.3525586"><ele>0.0</ele><time>2026-05-02T13:21:38.011Z</time></trkpt><trkpt lat="44.2545614" lon="12.352446"><ele>0.2</ele><time>2026-05-02T13:21:39.009Z</time></trkpt><trkpt lat="44.254546" lon="12.3523239"><ele>0.4</ele><time>2026-05-02T13:21:40.005Z</time></trkpt><trkpt lat="44.254527" lon="12.3521894"><ele>0.6000000000000001</ele><time>2026-05-02T13:21:41.003Z</time></trkpt><trkpt lat="44.254507" lon="12.3520567"><ele>0.8</ele><time>2026-05-02T13:21:42.005Z</time></trkpt><trkpt lat="44.2544846" lon="12.3519295"><ele>1.0</ele><time>2026-05-02T13:21:43.007Z</time></trkpt><trkpt lat="44.2544619" lon="12.3518038"><ele>0.6000000000000001</ele><time>2026-05-02T13:21:44.019Z</time></trkpt><trkpt lat="44.2544381" lon="12.3516761"><ele>0.20000000000000007</ele><time>2026-05-02T13:21:45.014Z</time></trkpt><trkpt lat="44.2544166" lon="12.3515441"><ele>-0.20000000000000007</ele><time>2026-05-02T13:21:46.01Z</time></trkpt><trkpt lat="44.2543949" lon="12.3514101"><ele>-0.6000000000000001</ele><time>2026-05-02T13:21:47.01Z</time></trkpt><trkpt lat="44.2543756" lon="12.3512708"><ele>-1.0</ele><time>2026-05-02T13:21:47.985Z</time></trkpt><trkpt lat="44.2543536" lon="12.351114"><ele>-1.0</ele><time>2026-05-02T13:21:49.007Z</time></trkpt><trkpt lat="44.2543207" lon="12.3509474"><ele>-1.0</ele><time>2026-05-02T13:21:50.012Z</time></trkpt><trkpt lat="44.254288" lon="12.3507953"><ele>-1.0</ele><time>2026-05-02T13:21:51.01Z</time></trkpt><trkpt lat="44.254255" lon="12.3506648"><ele>-1.0</ele><time>2026-05-02T13:21:52.003Z</time></trkpt><trkpt lat="44.2542223" lon="12.3505524"><ele>-1.0</ele><time>2026-05-02T13:21:53.004Z</time></trkpt><trkpt lat="44.2541915" lon="12.3504461"><ele>-1.0</ele><time>2026-05-02T13:21:54.006Z</time></trkpt><trkpt lat="44.2541583" lon="12.3503314"><ele>-1.0</ele><time>2026-05-02T13:21:55.018Z</time></trkpt><trkpt lat="44.2541207" lon="12.3502066"><ele>-1.0</ele><time>2026-05-02T13:21:56.002Z</time></trkpt><trkpt lat="44.2540796" lon="12.3500744"><ele>-1.0</ele><time>2026-05-02T13:21:57.027Z</time></trkpt><trkpt lat="44.254039" lon="12.3499473"><ele>-1.0</ele><time>2026-05-02T13:21:57.996Z</time></trkpt><trkpt lat="44.2539951" lon="12.3498349"><ele>-0.8333333333333333</ele><time>2026-05-02T13:21:59.006Z</time></trkpt><trkpt lat="44.2539539" lon="12.3497331"><ele>-0.6666666666666666</ele><time>2026-05-02T13:22:00.001Z</time></trkpt><trkpt lat="44.2539114" lon="12.3496464"><ele>-0.5</ele><time>2026-05-02T13:22:01.006Z</time></trkpt><trkpt lat="44.2538711" lon="12.3495701"><ele>-0.3333333333333333</ele><time>2026-05-02T13:22:02.002Z</time></trkpt><trkpt lat="44.2537977" lon="12.3494312"><ele>-0.16666666666666666</ele><time>2026-05-02T13:22:03.997Z</time></trkpt><trkpt lat="44.2537578" lon="12.3493532"><ele>0.0</ele><time>2026-05-02T13:22:05.019Z</time></trkpt><trkpt lat="44.2537187" lon="12.3492632"><ele>0.16666666666666666</ele><time>2026-05-02T13:22:06.004Z</time></trkpt><trkpt lat="44.2536789" lon="12.349165"><ele>0.3333333333333333</ele><time>2026-05-02T13:22:06.998Z</time></trkpt><trkpt lat="44.2536415" lon="12.3490694"><ele>0.5</ele><time>2026-05-02T13:22:08.011Z</time></trkpt><trkpt lat="44.2535865" lon="12.3489429"><ele>0.6666666666666666</ele><time>2026-05-02T13:22:10.018Z</time></trkpt><trkpt lat="44.2535564" lon="12.3488556"><ele>0.8333333333333333</ele><time>2026-05-02T13:22:12.009Z</time></trkpt><trkpt lat="44.2535295" lon="12.3487672"><ele>1.0</ele><time>2026-05-02T13:22:15.013Z</time></trkpt><trkpt lat="44.2535002" lon="12.3486745"><ele>1.0</ele><time>2026-05-02T13:22:26.998Z</time></trkpt><trkpt lat="44.2534592" lon="12.3485952"><ele>1.0</ele><time>2026-05-02T13:22:28.014Z</time></trkpt><trkpt lat="44.2534152" lon="12.3484942"><ele>1.0</ele><time>2026-05-02T13:22:29.008Z</time></trkpt><trkpt lat="44.2533535" lon="12.3483702"><ele>1.0</ele><time>2026-05-02T13:22:30.001Z</time></trkpt><trkpt lat="44.2532895" lon="12.3482189"><ele>1.0</ele><time>2026-05-02T13:22:31.009Z</time></trkpt><trkpt lat="44.2532257" lon="12.3480661"><ele>1.25</ele><time>2026-05-02T13:22:32.01Z</time></trkpt><trkpt lat="44.2531583" lon="12.3479068"><ele>1.5</ele><time>2026-05-02T13:22:33.013Z</time></trkpt><trkpt lat="44.2530931" lon="12.3477381"><ele>1.75</ele><time>2026-05-02T13:22:34Z</time></trkpt><trkpt lat="44.2530231" lon="12.3475656"><ele>2.0</ele><time>2026-05-02T13:22:35.01Z</time></trkpt><trkpt lat="44.2529495" lon="12.3473894"><ele>2.0</ele><time>2026-05-02T13:22:36.02Z</time></trkpt><trkpt lat="44.2528729" lon="12.3471984"><ele>2.0</ele><time>2026-05-02T13:22:37.001Z</time></trkpt><trkpt lat="44.2527838" lon="12.3469915"><ele>2.0</ele><time>2026-05-02T13:22:38.007Z</time></trkpt><trkpt lat="44.2526939" lon="12.3467633"><ele>2.0</ele><time>2026-05-02T13:22:39.004Z</time></trkpt><trkpt lat="44.2526069" lon="12.3465502"><ele>2.0</ele><time>2026-05-02T13:22:40.001Z</time></trkpt><trkpt lat="44.2525274" lon="12.3463505"><ele>2.0</ele><time>2026-05-02T13:22:41.003Z</time></trkpt><trkpt lat="44.2524525" lon="12.3461667"><ele>2.0</ele><time>2026-05-02T13:22:42.013Z</time></trkpt><trkpt lat="44.2523861" lon="12.3459915"><ele>2.0</ele><time>2026-05-02T13:22:43.002Z</time></trkpt><trkpt lat="44.2523223" lon="12.3458213"><ele>2.0</ele><time>2026-05-02T13:22:43.999Z</time></trkpt><trkpt lat="44.2522616" lon="12.3456655"><ele>2.0</ele><time>2026-05-02T13:22:45.003Z</time></trkpt><trkpt lat="44.2522034" lon="12.3455221"><ele>1.9999999999999998</ele><time>2026-05-02T13:22:46.005Z</time></trkpt><trkpt lat="44.2521545" lon="12.3453926"><ele>2.0</ele><time>2026-05-02T13:22:47.003Z</time></trkpt><trkpt lat="44.2521147" lon="12.3452686"><ele>2.0</ele><time>2026-05-02T13:22:48.014Z</time></trkpt><trkpt lat="44.252092" lon="12.3451529"><ele>2.0</ele><time>2026-05-02T13:22:49.024Z</time></trkpt><trkpt lat="44.2520841" lon="12.3450468"><ele>1.9999999999999998</ele><time>2026-05-02T13:22:50.006Z</time></trkpt><trkpt lat="44.2520931" lon="12.3449516"><ele>2.0</ele><time>2026-05-02T13:22:50.996Z</time></trkpt><trkpt lat="44.2521176" lon="12.3448627"><ele>2.0</ele><time>2026-05-02T13:22:52.009Z</time></trkpt><trkpt lat="44.2521582" lon="12.3447668"><ele>2.0</ele><time>2026-05-02T13:22:53.004Z</time></trkpt><trkpt lat="44.2522123" lon="12.3446708"><ele>2.0</ele><time>2026-05-02T13:22:54.017Z</time></trkpt><trkpt lat="44.2522762" lon="12.3445666"><ele>2.0</ele><time>2026-05-02T13:22:55.004Z</time></trkpt><trkpt lat="44.2523558" lon="12.3444524"><ele>2.0</ele><time>2026-05-02T13:22:56.003Z</time></trkpt><trkpt lat="44.2524446" lon="12.3443202"><ele>1.75</ele><time>2026-05-02T13:22:57.004Z</time></trkpt><trkpt lat="44.2525436" lon="12.3441752"><ele>1.5</ele><time>2026-05-02T13:22:58.008Z</time></trkpt><trkpt lat="44.2526428" lon="12.3440218"><ele>1.25</ele><time>2026-05-02T13:22:59.014Z</time></trkpt><trkpt lat="44.2527391" lon="12.3438773"><ele>1.0</ele><time>2026-05-02T13:23:00.017Z</time></trkpt><trkpt lat="44.2528325" lon="12.3437394"><ele>0.5</ele><time>2026-05-02T13:23:01.003Z</time></trkpt><trkpt lat="44.2529151" lon="12.3436098"><ele>0.0</ele><time>2026-05-02T13:23:02.009Z</time></trkpt><trkpt lat="44.2529967" lon="12.3434944"><ele>-0.5</ele><time>2026-05-02T13:23:03.002Z</time></trkpt><trkpt lat="44.2530773" lon="12.343384"><ele>-1.0</ele><time>2026-05-02T13:23:04.002Z</time></trkpt><trkpt lat="44.2531578" lon="12.3432585"><ele>-1.0</ele><time>2026-05-02T13:23:05.005Z</time></trkpt><trkpt lat="44.253242" lon="12.3431188"><ele>-1.0</ele><time>2026-05-02T13:23:06.006Z</time></trkpt><trkpt lat="44.2533326" lon="12.3429739"><ele>-1.0</ele><time>2026-05-02T13:23:07.011Z</time></trkpt><trkpt lat="44.253426" lon="12.3428369"><ele>-1.0</ele><time>2026-05-02T13:23:08Z</time></trkpt><trkpt lat="44.253521" lon="12.3426982"><ele>-1.0</ele><time>2026-05-02T13:23:09.008Z</time></trkpt><trkpt lat="44.2536103" lon="12.3425633"><ele>-1.0</ele><time>2026-05-02T13:23:10.006Z</time></trkpt><trkpt lat="44.253695" lon="12.3424291"><ele>-1.0</ele><time>2026-05-02T13:23:11.005Z</time></trkpt><trkpt lat="44.2537809" lon="12.3423017"><ele>-1.0</ele><time>2026-05-02T13:23:12.014Z</time></trkpt><trkpt lat="44.2538622" lon="12.342174"><ele>-1.0</ele><time>2026-05-02T13:23:13.009Z</time></trkpt><trkpt lat="44.2539466" lon="12.34205"><ele>-1.0</ele><time>2026-05-02T13:23:13.999Z</time></trkpt><trkpt lat="44.2540268" lon="12.341928"><ele>-1.0</ele><time>2026-05-02T13:23:15.004Z</time></trkpt><trkpt lat="44.2541001" lon="12.3418244"><ele>-1.0</ele><time>2026-05-02T13:23:16.002Z</time></trkpt><trkpt lat="44.2541691" lon="12.3417332"><ele>-1.0</ele><time>2026-05-02T13:23:17.002Z</time></trkpt><trkpt lat="44.2542311" lon="12.3416448"><ele>-1.25</ele><time>2026-05-02T13:23:18.01Z</time></trkpt><trkpt lat="44.2542886" lon="12.3415509"><ele>-1.5</ele><time>2026-05-02T13:23:19.011Z</time></trkpt><trkpt lat="44.2543665" lon="12.3414377"><ele>-1.75</ele><time>2026-05-02T13:23:20.016Z</time></trkpt><trkpt lat="44.2544566" lon="12.3413084"><ele>-2.0</ele><time>2026-05-02T13:23:21.013Z</time></trkpt><trkpt lat="44.2545575" lon="12.3411555"><ele>-2.0</ele><time>2026-05-02T13:23:22.003Z</time></trkpt><trkpt lat="44.2546609" lon="12.3409966"><ele>-2.0</ele><time>2026-05-02T13:23:23.011Z</time></trkpt><trkpt lat="44.2547727" lon="12.3408366"><ele>-2.0</ele><time>2026-05-02T13:23:24.015Z</time></trkpt><trkpt lat="44.2548859" lon="12.340667"><ele>-1.6666666666666665</ele><time>2026-05-02T13:23:25.015Z</time></trkpt><trkpt lat="44.2550014" lon="12.3404954"><ele>-1.3333333333333333</ele><time>2026-05-02T13:23:26.004Z</time></trkpt><trkpt lat="44.2551179" lon="12.34032"><ele>-1.0</ele><time>2026-05-02T13:23:27.02Z</time></trkpt><trkpt lat="44.2552369" lon="12.3401455"><ele>-1.0</ele><time>2026-05-02T13:23:28.003Z</time></trkpt><trkpt lat="44.2553625" lon="12.3399648"><ele>-1.0</ele><time>2026-05-02T13:23:29.011Z</time></trkpt><trkpt lat="44.2554909" lon="12.3397816"><ele>-1.0</ele><time>2026-05-02T13:23:30.005Z</time></trkpt><trkpt lat="44.2556151" lon="12.3396005"><ele>-0.6666666666666666</ele><time>2026-05-02T13:23:31.015Z</time></trkpt><trkpt lat="44.2557333" lon="12.3394311"><ele>-0.3333333333333333</ele><time>2026-05-02T13:23:32.005Z</time></trkpt><trkpt lat="44.2558457" lon="12.3392639"><ele>0.0</ele><time>2026-05-02T13:23:33.008Z</time></trkpt><trkpt lat="44.2559543" lon="12.3391018"><ele>0.0</ele><time>2026-05-02T13:23:34.005Z</time></trkpt><trkpt lat="44.2560664" lon="12.3389399"><ele>0.0</ele><time>2026-05-02T13:23:35.038Z</time></trkpt><trkpt lat="44.2561838" lon="12.3387672"><ele>0.0</ele><time>2026-05-02T13:23:36.008Z</time></trkpt><trkpt lat="44.256303" lon="12.3385945"><ele>-0.3333333333333333</ele><time>2026-05-02T13:23:37.013Z</time></trkpt><trkpt lat="44.2564205" lon="12.3384281"><ele>-0.6666666666666666</ele><time>2026-05-02T13:23:37.998Z</time></trkpt><trkpt lat="44.2565254" lon="12.3382698"><ele>-1.0</ele><time>2026-05-02T13:23:39.01Z</time></trkpt><trkpt lat="44.2566132" lon="12.3381202"><ele>-1.25</ele><time>2026-05-02T13:23:40.014Z</time></trkpt><trkpt lat="44.2566935" lon="12.3379758"><ele>-1.5</ele><time>2026-05-02T13:23:41.006Z</time></trkpt><trkpt lat="44.2567717" lon="12.3378438"><ele>-1.75</ele><time>2026-05-02T13:23:42.013Z</time></trkpt><trkpt lat="44.2568479" lon="12.3377304"><ele>-2.0</ele><time>2026-05-02T13:23:43.009Z</time></trkpt><trkpt lat="44.256928" lon="12.3376351"><ele>-2.0</ele><time>2026-05-02T13:23:44.001Z</time></trkpt><trkpt lat="44.257016" lon="12.3375783"><ele>-2.0</ele><time>2026-05-02T13:23:45.004Z</time></trkpt><trkpt lat="44.2571167" lon="12.3375445"><ele>-2.0</ele><time>2026-05-02T13:23:46.015Z</time></trkpt><trkpt lat="44.2572202" lon="12.3375285"><ele>-2.0</ele><time>2026-05-02T13:23:47.014Z</time></trkpt><trkpt lat="44.2573296" lon="12.3374803"><ele>-2.0</ele><time>2026-05-02T13:23:48.009Z</time></trkpt><trkpt lat="44.2574278" lon="12.3374011"><ele>-2.0</ele><time>2026-05-02T13:23:49.016Z</time></trkpt><trkpt lat="44.2575083" lon="12.3372858"><ele>-2.0</ele><time>2026-05-02T13:23:50.004Z</time></trkpt><trkpt lat="44.2575646" lon="12.3371525"><ele>-2.0</ele><time>2026-05-02T13:23:51.019Z</time></trkpt><trkpt lat="44.2575982" lon="12.3370049"><ele>-2.0</ele><time>2026-05-02T13:23:52.014Z</time></trkpt><trkpt lat="44.2576089" lon="12.3368525"><ele>-2.0</ele><time>2026-05-02T13:23:53.001Z</time></trkpt><trkpt lat="44.2575803" lon="12.3367077"><ele>-2.0</ele><time>2026-05-02T13:23:54.007Z</time></trkpt><trkpt lat="44.2575132" lon="12.3365694"><ele>-2.0</ele><time>2026-05-02T13:23:55.016Z</time></trkpt><trkpt lat="44.2574222" lon="12.3364499"><ele>-2.0</ele><time>2026-05-02T13:23:56.007Z</time></trkpt><trkpt lat="44.25731" lon="12.3363565"><ele>-2.0</ele><time>2026-05-02T13:23:56.994Z</time></trkpt><trkpt lat="44.2571847" lon="12.3362614"><ele>-2.25</ele><time>2026-05-02T13:23:57.999Z</time></trkpt><trkpt lat="44.2570696" lon="12.3361569"><ele>-2.5</ele><time>2026-05-02T13:23:59.027Z</time></trkpt><trkpt lat="44.2569699" lon="12.336036"><ele>-2.75</ele><time>2026-05-02T13:24:00.001Z</time></trkpt><trkpt lat="44.2568804" lon="12.3358834"><ele>-3.0</ele><time>2026-05-02T13:24:01.013Z</time></trkpt><trkpt lat="44.256796" lon="12.3357227"><ele>-3.0</ele><time>2026-05-02T13:24:02.009Z</time></trkpt><trkpt lat="44.2566912" lon="12.3355813"><ele>-3.0</ele><time>2026-05-02T13:24:03.007Z</time></trkpt><trkpt lat="44.2565655" lon="12.3354512"><ele>-3.0</ele><time>2026-05-02T13:24:04.003Z</time></trkpt><trkpt lat="44.256424" lon="12.335322"><ele>-3.333333333333333</ele><time>2026-05-02T13:24:05.007Z</time></trkpt><trkpt lat="44.2562762" lon="12.3351978"><ele>-3.6666666666666665</ele><time>2026-05-02T13:24:06.011Z</time></trkpt><trkpt lat="44.2561252" lon="12.3350805"><ele>-4.0</ele><time>2026-05-02T13:24:07.013Z</time></trkpt><trkpt lat="44.2559698" lon="12.3349768"><ele>-4.0</ele><time>2026-05-02T13:24:08.006Z</time></trkpt><trkpt lat="44.2558056" lon="12.3348771"><ele>-4.0</ele><time>2026-05-02T13:24:09.005Z</time></trkpt><trkpt lat="44.2556362" lon="12.3347864"><ele>-4.0</ele><time>2026-05-02T13:24:10.006Z</time></trkpt><trkpt lat="44.2554641" lon="12.3346987"><ele>-4.0</ele><time>2026-05-02T13:24:10.997Z</time></trkpt><trkpt lat="44.2552879" lon="12.3346219"><ele>-4.0</ele><time>2026-05-02T13:24:12.021Z</time></trkpt><trkpt lat="44.2551097" lon="12.3345517"><ele>-4.0</ele><time>2026-05-02T13:24:13.006Z</time></trkpt><trkpt lat="44.2549316" lon="12.3344857"><ele>-4.0</ele><time>2026-05-02T13:24:14.014Z</time></trkpt><trkpt lat="44.2547557" lon="12.3344189"><ele>-4.0</ele><time>2026-05-02T13:24:15.017Z</time></trkpt><trkpt lat="44.2545817" lon="12.3343473"><ele>-4.0</ele><time>2026-05-02T13:24:16.003Z</time></trkpt><trkpt lat="44.2544068" lon="12.3342813"><ele>-4.0</ele><time>2026-05-02T13:24:17.017Z</time></trkpt><trkpt lat="44.2542336" lon="12.334213"><ele>-4.0</ele><time>2026-05-02T13:24:18.017Z</time></trkpt><trkpt lat="44.2540603" lon="12.3341451"><ele>-4.0</ele><time>2026-05-02T13:24:19.02Z</time></trkpt><trkpt lat="44.2538902" lon="12.3340814"><ele>-4.0</ele><time>2026-05-02T13:24:20.016Z</time></trkpt><trkpt lat="44.253724" lon="12.3340195"><ele>-4.0</ele><time>2026-05-02T13:24:21.017Z</time></trkpt><trkpt lat="44.2535688" lon="12.3339645"><ele>-4.0</ele><time>2026-05-02T13:24:22.007Z</time></trkpt><trkpt lat="44.2534142" lon="12.3339044"><ele>-4.0</ele><time>2026-05-02T13:24:23.011Z</time></trkpt><trkpt lat="44.2532589" lon="12.3338494"><ele>-4.0</ele><time>2026-05-02T13:24:24.006Z</time></trkpt><trkpt lat="44.2531073" lon="12.3337881"><ele>-4.0</ele><time>2026-05-02T13:24:24.997Z</time></trkpt><trkpt lat="44.252949" lon="12.3337292"><ele>-4.0</ele><time>2026-05-02T13:24:26.001Z</time></trkpt><trkpt lat="44.2527863" lon="12.3336706"><ele>-4.0</ele><time>2026-05-02T13:24:27.011Z</time></trkpt><trkpt lat="44.2526257" lon="12.3336134"><ele>-4.0</ele><time>2026-05-02T13:24:28.014Z</time></trkpt><trkpt lat="44.2524646" lon="12.3335513"><ele>-4.0</ele><time>2026-05-02T13:24:29Z</time></trkpt><trkpt lat="44.2523047" lon="12.3334841"><ele>-4.0</ele><time>2026-05-02T13:24:30.03Z</time></trkpt><trkpt lat="44.2521448" lon="12.3334211"><ele>-4.0</ele><time>2026-05-02T13:24:31.006Z</time></trkpt><trkpt lat="44.251983" lon="12.3333616"><ele>-4.0</ele><time>2026-05-02T13:24:32.013Z</time></trkpt><trkpt lat="44.2518194" lon="12.333301"><ele>-4.0</ele><time>2026-05-02T13:24:33.012Z</time></trkpt><trkpt lat="44.2516586" lon="12.3332421"><ele>-4.0</ele><time>2026-05-02T13:24:34.013Z</time></trkpt><trkpt lat="44.2514966" lon="12.3331818"><ele>-4.0</ele><time>2026-05-02T13:24:35.007Z</time></trkpt><trkpt lat="44.2513345" lon="12.3331198"><ele>-4.0</ele><time>2026-05-02T13:24:36.001Z</time></trkpt><trkpt lat="44.2511738" lon="12.3330594"><ele>-4.0</ele><time>2026-05-02T13:24:37.004Z</time></trkpt><trkpt lat="44.2510122" lon="12.3329953"><ele>-4.0</ele><time>2026-05-02T13:24:38.013Z</time></trkpt><trkpt lat="44.2508515" lon="12.3329323"><ele>-4.0</ele><time>2026-05-02T13:24:39.008Z</time></trkpt><trkpt lat="44.2506919" lon="12.3328709"><ele>-4.0</ele><time>2026-05-02T13:24:40.013Z</time></trkpt><trkpt lat="44.2505311" lon="12.3328105"><ele>-4.0</ele><time>2026-05-02T13:24:41.01Z</time></trkpt><trkpt lat="44.2503732" lon="12.3327501"><ele>-4.0</ele><time>2026-05-02T13:24:42.009Z</time></trkpt><trkpt lat="44.2502163" lon="12.3326916"><ele>-4.0</ele><time>2026-05-02T13:24:42.998Z</time></trkpt><trkpt lat="44.250066" lon="12.332632"><ele>-4.0</ele><time>2026-05-02T13:24:44.005Z</time></trkpt><trkpt lat="44.2499208" lon="12.3325747"><ele>-4.0</ele><time>2026-05-02T13:24:45.018Z</time></trkpt><trkpt lat="44.2497778" lon="12.3325268"><ele>-4.0</ele><time>2026-05-02T13:24:46.017Z</time></trkpt><trkpt lat="44.2496384" lon="12.3324714"><ele>-4.0</ele><time>2026-05-02T13:24:47.009Z</time></trkpt><trkpt lat="44.2495068" lon="12.3324034"><ele>-3.5</ele><time>2026-05-02T13:24:48.017Z</time></trkpt><trkpt lat="44.2493785" lon="12.3323271"><ele>-3.0</ele><time>2026-05-02T13:24:49.011Z</time></trkpt><trkpt lat="44.2492582" lon="12.3322381"><ele>-2.5</ele><time>2026-05-02T13:24:50.015Z</time></trkpt><trkpt lat="44.2491484" lon="12.3321369"><ele>-2.0</ele><time>2026-05-02T13:24:51.007Z</time></trkpt><trkpt lat="44.2490421" lon="12.3320304"><ele>-1.75</ele><time>2026-05-02T13:24:52.005Z</time></trkpt><trkpt lat="44.2489414" lon="12.3319107"><ele>-1.5</ele><time>2026-05-02T13:24:53.013Z</time></trkpt><trkpt lat="44.2488423" lon="12.3317822"><ele>-1.25</ele><time>2026-05-02T13:24:54.013Z</time></trkpt><trkpt lat="44.2487572" lon="12.3316528"><ele>-1.0</ele><time>2026-05-02T13:24:55.007Z</time></trkpt><trkpt lat="44.2486772" lon="12.331511"><ele>-1.25</ele><time>2026-05-02T13:24:56.007Z</time></trkpt><trkpt lat="44.2486065" lon="12.3313591"><ele>-1.5</ele><time>2026-05-02T13:24:57.014Z</time></trkpt><trkpt lat="44.2485439" lon="12.3312"><ele>-1.75</ele><time>2026-05-02T13:24:58.007Z</time></trkpt><trkpt lat="44.2484878" lon="12.331039"><ele>-2.0</ele><time>2026-05-02T13:24:59.008Z</time></trkpt><trkpt lat="44.2484389" lon="12.3308622"><ele>-2.0</ele><time>2026-05-02T13:25:00.008Z</time></trkpt><trkpt lat="44.2484016" lon="12.3306803"><ele>-2.0</ele><time>2026-05-02T13:25:01.011Z</time></trkpt><trkpt lat="44.2483773" lon="12.3304829"><ele>-2.0</ele><time>2026-05-02T13:25:02.003Z</time></trkpt><trkpt lat="44.2483613" lon="12.3302829"><ele>-2.0</ele><time>2026-05-02T13:25:03.006Z</time></trkpt><trkpt lat="44.2483609" lon="12.3300739"><ele>-2.333333333333333</ele><time>2026-05-02T13:25:04.01Z</time></trkpt><trkpt lat="44.2483719" lon="12.3298659"><ele>-2.6666666666666665</ele><time>2026-05-02T13:25:05.013Z</time></trkpt><trkpt lat="44.248395" lon="12.3296572"><ele>-3.0</ele><time>2026-05-02T13:25:06.013Z</time></trkpt><trkpt lat="44.2484281" lon="12.3294508"><ele>-3.0</ele><time>2026-05-02T13:25:06.998Z</time></trkpt><trkpt lat="44.2484653" lon="12.3292491"><ele>-3.0</ele><time>2026-05-02T13:25:07.998Z</time></trkpt><trkpt lat="44.2485048" lon="12.329048"><ele>-3.0</ele><time>2026-05-02T13:25:09.01Z</time></trkpt><trkpt lat="44.2485416" lon="12.3288519"><ele>-3.0</ele><time>2026-05-02T13:25:10.009Z</time></trkpt><trkpt lat="44.2485763" lon="12.3286556"><ele>-3.25</ele><time>2026-05-02T13:25:11.007Z</time></trkpt><trkpt lat="44.2486115" lon="12.3284638"><ele>-3.5</ele><time>2026-05-02T13:25:12.027Z</time></trkpt><trkpt lat="44.2486453" lon="12.3282719"><ele>-3.75</ele><time>2026-05-02T13:25:13.009Z</time></trkpt><trkpt lat="44.2486783" lon="12.3280821"><ele>-4.0</ele><time>2026-05-02T13:25:14.018Z</time></trkpt><trkpt lat="44.2487152" lon="12.3278838"><ele>-4.0</ele><time>2026-05-02T13:25:15.004Z</time></trkpt><trkpt lat="44.2487525" lon="12.3276881"><ele>-4.0</ele><time>2026-05-02T13:25:16.004Z</time></trkpt><trkpt lat="44.248787" lon="12.327491"><ele>-4.0</ele><time>2026-05-02T13:25:17.017Z</time></trkpt><trkpt lat="44.2488215" lon="12.3272896"><ele>-4.0</ele><time>2026-05-02T13:25:18.005Z</time></trkpt><trkpt lat="44.2488507" lon="12.3270855"><ele>-4.0</ele><time>2026-05-02T13:25:19Z</time></trkpt><trkpt lat="44.2488752" lon="12.3268794"><ele>-4.0</ele><time>2026-05-02T13:25:20.005Z</time></trkpt><trkpt lat="44.2488933" lon="12.3266747"><ele>-4.0</ele><time>2026-05-02T13:25:21.004Z</time></trkpt><trkpt lat="44.2489119" lon="12.3264644"><ele>-4.0</ele><time>2026-05-02T13:25:22.018Z</time></trkpt><trkpt lat="44.2489286" lon="12.3262542"><ele>-4.0</ele><time>2026-05-02T13:25:23.009Z</time></trkpt><trkpt lat="44.2489438" lon="12.3260453"><ele>-4.0</ele><time>2026-05-02T13:25:24.003Z</time></trkpt><trkpt lat="44.2489578" lon="12.325839"><ele>-4.0</ele><time>2026-05-02T13:25:25.011Z</time></trkpt><trkpt lat="44.2489705" lon="12.3256354"><ele>-4.0</ele><time>2026-05-02T13:25:26.002Z</time></trkpt><trkpt lat="44.2489842" lon="12.3254318"><ele>-4.0</ele><time>2026-05-02T13:25:27.001Z</time></trkpt><trkpt lat="44.2489988" lon="12.3252269"><ele>-4.0</ele><time>2026-05-02T13:25:28.02Z</time></trkpt><trkpt lat="44.249015" lon="12.3250158"><ele>-4.0</ele><time>2026-05-02T13:25:29.005Z</time></trkpt><trkpt lat="44.2490299" lon="12.3248078"><ele>-4.0</ele><time>2026-05-02T13:25:30.009Z</time></trkpt><trkpt lat="44.2490393" lon="12.3245985"><ele>-4.0</ele><time>2026-05-02T13:25:31.008Z</time></trkpt><trkpt lat="44.2490466" lon="12.3243805"><ele>-4.0</ele><time>2026-05-02T13:25:32.006Z</time></trkpt><trkpt lat="44.2490503" lon="12.3241688"><ele>-4.0</ele><time>2026-05-02T13:25:33.018Z</time></trkpt><trkpt lat="44.2490521" lon="12.3239577"><ele>-4.0</ele><time>2026-05-02T13:25:34.008Z</time></trkpt><trkpt lat="44.2490532" lon="12.3237473"><ele>-4.0</ele><time>2026-05-02T13:25:34.997Z</time></trkpt><trkpt lat="44.2490546" lon="12.3235375"><ele>-4.0</ele><time>2026-05-02T13:25:36.005Z</time></trkpt><trkpt lat="44.2490529" lon="12.3233281"><ele>-4.0</ele><time>2026-05-02T13:25:37.009Z</time></trkpt><trkpt lat="44.2490614" lon="12.3231149"><ele>-4.0</ele><time>2026-05-02T13:25:38.014Z</time></trkpt><trkpt lat="44.249074" lon="12.3229031"><ele>-4.0</ele><time>2026-05-02T13:25:38.998Z</time></trkpt><trkpt lat="44.249092" lon="12.3226881"><ele>-4.0</ele><time>2026-05-02T13:25:40.007Z</time></trkpt><trkpt lat="44.2491111" lon="12.3224731"><ele>-4.0</ele><time>2026-05-02T13:25:41.001Z</time></trkpt><trkpt lat="44.2491318" lon="12.3222567"><ele>-4.0</ele><time>2026-05-02T13:25:42.013Z</time></trkpt><trkpt lat="44.2491578" lon="12.322041"><ele>-4.0</ele><time>2026-05-02T13:25:43.013Z</time></trkpt><trkpt lat="44.2491842" lon="12.3218283"><ele>-4.0</ele><time>2026-05-02T13:25:44.011Z</time></trkpt><trkpt lat="44.2492137" lon="12.3216177"><ele>-4.0</ele><time>2026-05-02T13:25:45.006Z</time></trkpt><trkpt lat="44.2492462" lon="12.321418"><ele>-4.0</ele><time>2026-05-02T13:25:46.002Z</time></trkpt><trkpt lat="44.2492901" lon="12.3212145"><ele>-4.0</ele><time>2026-05-02T13:25:47.029Z</time></trkpt><trkpt lat="44.2493358" lon="12.321011"><ele>-4.0</ele><time>2026-05-02T13:25:48.006Z</time></trkpt><trkpt lat="44.2493844" lon="12.3208117"><ele>-4.0</ele><time>2026-05-02T13:25:49.008Z</time></trkpt><trkpt lat="44.2494393" lon="12.3206071"><ele>-4.0</ele><time>2026-05-02T13:25:50.002Z</time></trkpt><trkpt lat="44.2494958" lon="12.3203969"><ele>-4.0</ele><time>2026-05-02T13:25:51.013Z</time></trkpt><trkpt lat="44.2495608" lon="12.3201887"><ele>-4.0</ele><time>2026-05-02T13:25:52.013Z</time></trkpt><trkpt lat="44.2496315" lon="12.3199825"><ele>-4.0</ele><time>2026-05-02T13:25:53.009Z</time></trkpt><trkpt lat="44.2497046" lon="12.3197797"><ele>-4.0</ele><time>2026-05-02T13:25:54.011Z</time></trkpt><trkpt lat="44.2497876" lon="12.3195869"><ele>-4.0</ele><time>2026-05-02T13:25:55.011Z</time></trkpt><trkpt lat="44.249875" lon="12.3193963"><ele>-4.0</ele><time>2026-05-02T13:25:55.996Z</time></trkpt><trkpt lat="44.2499703" lon="12.319213"><ele>-4.0</ele><time>2026-05-02T13:25:57.01Z</time></trkpt><trkpt lat="44.250067" lon="12.3190286"><ele>-4.0</ele><time>2026-05-02T13:25:58.006Z</time></trkpt><trkpt lat="44.2501662" lon="12.3188477"><ele>-4.0</ele><time>2026-05-02T13:25:59.013Z</time></trkpt><trkpt lat="44.2502683" lon="12.3186678"><ele>-4.0</ele><time>2026-05-02T13:26:00.003Z</time></trkpt><trkpt lat="44.2503665" lon="12.3184821"><ele>-4.0</ele><time>2026-05-02T13:26:01.004Z</time></trkpt><trkpt lat="44.2504692" lon="12.3182981"><ele>-4.0</ele><time>2026-05-02T13:26:02.022Z</time></trkpt><trkpt lat="44.2505708" lon="12.3181129"><ele>-4.0</ele><time>2026-05-02T13:26:03.006Z</time></trkpt><trkpt lat="44.2506708" lon="12.3179294"><ele>-3.333333333333333</ele><time>2026-05-02T13:26:04.005Z</time></trkpt><trkpt lat="44.2507734" lon="12.317747"><ele>-2.6666666666666665</ele><time>2026-05-02T13:26:05.004Z</time></trkpt><trkpt lat="44.2508749" lon="12.3175622"><ele>-2.0</ele><time>2026-05-02T13:26:06.013Z</time></trkpt><trkpt lat="44.2509743" lon="12.3173736"><ele>-2.333333333333333</ele><time>2026-05-02T13:26:07.006Z</time></trkpt><trkpt lat="44.251074" lon="12.3171852"><ele>-2.6666666666666665</ele><time>2026-05-02T13:26:08.012Z</time></trkpt><trkpt lat="44.2511798" lon="12.316996"><ele>-3.0</ele><time>2026-05-02T13:26:09.001Z</time></trkpt><trkpt lat="44.2512922" lon="12.3168063"><ele>-3.0</ele><time>2026-05-02T13:26:10.002Z</time></trkpt><trkpt lat="44.2514069" lon="12.3166174"><ele>-3.0</ele><time>2026-05-02T13:26:11.009Z</time></trkpt><trkpt lat="44.2515185" lon="12.3164266"><ele>-3.0</ele><time>2026-05-02T13:26:12.006Z</time></trkpt><trkpt lat="44.2516313" lon="12.3162389"><ele>-3.0</ele><time>2026-05-02T13:26:13.011Z</time></trkpt><trkpt lat="44.2517412" lon="12.3160541"><ele>-3.0</ele><time>2026-05-02T13:26:14.008Z</time></trkpt><trkpt lat="44.2518444" lon="12.3158685"><ele>-3.0</ele><time>2026-05-02T13:26:15.009Z</time></trkpt><trkpt lat="44.2519511" lon="12.3156856"><ele>-2.6666666666666665</ele><time>2026-05-02T13:26:16.008Z</time></trkpt><trkpt lat="44.2520556" lon="12.3155002"><ele>-2.333333333333333</ele><time>2026-05-02T13:26:17.005Z</time></trkpt><trkpt lat="44.2521589" lon="12.3153085"><ele>-2.0</ele><time>2026-05-02T13:26:18.034Z</time></trkpt><trkpt lat="44.25226" lon="12.3151099"><ele>-2.0</ele><time>2026-05-02T13:26:19.001Z</time></trkpt><trkpt lat="44.2523587" lon="12.3149139"><ele>-2.0</ele><time>2026-05-02T13:26:20.004Z</time></trkpt><trkpt lat="44.2524569" lon="12.3147155"><ele>-2.0</ele><time>2026-05-02T13:26:21.007Z</time></trkpt><trkpt lat="44.2525576" lon="12.3145194"><ele>-2.0</ele><time>2026-05-02T13:26:22.008Z</time></trkpt><trkpt lat="44.2526553" lon="12.3143227"><ele>-2.0</ele><time>2026-05-02T13:26:23.016Z</time></trkpt><trkpt lat="44.2527546" lon="12.3141339"><ele>-2.0</ele><time>2026-05-02T13:26:24.001Z</time></trkpt><trkpt lat="44.2528522" lon="12.313941"><ele>-2.0</ele><time>2026-05-02T13:26:25.018Z</time></trkpt><trkpt lat="44.2529467" lon="12.3137505"><ele>-2.0</ele><time>2026-05-02T13:26:26.004Z</time></trkpt><trkpt lat="44.2530374" lon="12.3135663"><ele>-2.0</ele><time>2026-05-02T13:26:27.015Z</time></trkpt><trkpt lat="44.2531165" lon="12.3133912"><ele>-2.0</ele><time>2026-05-02T13:26:28.003Z</time></trkpt><trkpt lat="44.2531913" lon="12.3132172"><ele>-2.0</ele><time>2026-05-02T13:26:29.006Z</time></trkpt><trkpt lat="44.2532528" lon="12.3130324"><ele>-2.0</ele><time>2026-05-02T13:26:30.004Z</time></trkpt><trkpt lat="44.2533088" lon="12.3128384"><ele>-2.0</ele><time>2026-05-02T13:26:31.007Z</time></trkpt><trkpt lat="44.2533526" lon="12.3126351"><ele>-1.6666666666666665</ele><time>2026-05-02T13:26:32.002Z</time></trkpt><trkpt lat="44.25339" lon="12.3124248"><ele>-1.3333333333333333</ele><time>2026-05-02T13:26:32.999Z</time></trkpt><trkpt lat="44.253424" lon="12.3122097"><ele>-1.0</ele><time>2026-05-02T13:26:34.009Z</time></trkpt><trkpt lat="44.2534593" lon="12.3119941"><ele>-1.0</ele><time>2026-05-02T13:26:35.005Z</time></trkpt><trkpt lat="44.2534951" lon="12.3117757"><ele>-1.0</ele><time>2026-05-02T13:26:36.023Z</time></trkpt><trkpt lat="44.2535298" lon="12.3115498"><ele>-1.0</ele><time>2026-05-02T13:26:37.004Z</time></trkpt><trkpt lat="44.2535627" lon="12.3113295"><ele>-1.3333333333333333</ele><time>2026-05-02T13:26:38.007Z</time></trkpt><trkpt lat="44.2535963" lon="12.3111004"><ele>-1.6666666666666665</ele><time>2026-05-02T13:26:39.003Z</time></trkpt><trkpt lat="44.2536297" lon="12.3108708"><ele>-2.0</ele><time>2026-05-02T13:26:40.009Z</time></trkpt><trkpt lat="44.2536646" lon="12.310636"><ele>-2.0</ele><time>2026-05-02T13:26:41.005Z</time></trkpt><trkpt lat="44.2537007" lon="12.3103947"><ele>-2.0</ele><time>2026-05-02T13:26:42.022Z</time></trkpt><trkpt lat="44.2537331" lon="12.3101548"><ele>-2.0</ele><time>2026-05-02T13:26:43.004Z</time></trkpt><trkpt lat="44.2537659" lon="12.3099118"><ele>-2.0</ele><time>2026-05-02T13:26:43.998Z</time></trkpt><trkpt lat="44.2537974" lon="12.3096709"><ele>-2.0</ele><time>2026-05-02T13:26:45.002Z</time></trkpt><trkpt lat="44.2538296" lon="12.3094356"><ele>-2.0</ele><time>2026-05-02T13:26:46.012Z</time></trkpt><trkpt lat="44.2538638" lon="12.3092024"><ele>-2.0</ele><time>2026-05-02T13:26:47.004Z</time></trkpt><trkpt lat="44.2538972" lon="12.308971"><ele>-2.0</ele><time>2026-05-02T13:26:48.018Z</time></trkpt><trkpt lat="44.253928" lon="12.3087396"><ele>-2.0</ele><time>2026-05-02T13:26:49.007Z</time></trkpt><trkpt lat="44.253959" lon="12.3085126"><ele>-2.0</ele><time>2026-05-02T13:26:50.011Z</time></trkpt><trkpt lat="44.2539907" lon="12.3082915"><ele>-2.0</ele><time>2026-05-02T13:26:51.011Z</time></trkpt><trkpt lat="44.2540213" lon="12.3080752"><ele>-2.0</ele><time>2026-05-02T13:26:52.005Z</time></trkpt><trkpt lat="44.2540529" lon="12.3078599"><ele>-2.0</ele><time>2026-05-02T13:26:53.007Z</time></trkpt><trkpt lat="44.2540829" lon="12.3076429"><ele>-2.0</ele><time>2026-05-02T13:26:54.005Z</time></trkpt><trkpt lat="44.2541127" lon="12.3074266"><ele>-2.0</ele><time>2026-05-02T13:26:55.021Z</time></trkpt><trkpt lat="44.254142" lon="12.3072049"><ele>-2.0</ele><time>2026-05-02T13:26:56.009Z</time></trkpt><trkpt lat="44.2541737" lon="12.306986"><ele>-2.0</ele><time>2026-05-02T13:26:57.003Z</time></trkpt><trkpt lat="44.2542052" lon="12.3067662"><ele>-2.0</ele><time>2026-05-02T13:26:58.003Z</time></trkpt><trkpt lat="44.254235" lon="12.3065509"><ele>-2.0</ele><time>2026-05-02T13:26:59.005Z</time></trkpt><trkpt lat="44.2542652" lon="12.3063341"><ele>-2.0</ele><time>2026-05-02T13:27:00.004Z</time></trkpt><trkpt lat="44.2542941" lon="12.3061182"><ele>-2.0</ele><time>2026-05-02T13:27:01.004Z</time></trkpt><trkpt lat="44.2543236" lon="12.3059036"><ele>-2.0</ele><time>2026-05-02T13:27:02.01Z</time></trkpt><trkpt lat="44.254359" lon="12.3056892"><ele>-2.0</ele><time>2026-05-02T13:27:03.008Z</time></trkpt><trkpt lat="44.2543899" lon="12.3054771"><ele>-2.0</ele><time>2026-05-02T13:27:04.002Z</time></trkpt><trkpt lat="44.2544225" lon="12.3052645"><ele>-2.0</ele><time>2026-05-02T13:27:05.006Z</time></trkpt><trkpt lat="44.254453" lon="12.3050522"><ele>-2.0</ele><time>2026-05-02T13:27:06.015Z</time></trkpt><trkpt lat="44.2544795" lon="12.3048437"><ele>-2.0</ele><time>2026-05-02T13:27:07.01Z</time></trkpt><trkpt lat="44.2545077" lon="12.3046372"><ele>-2.0</ele><time>2026-05-02T13:27:08.028Z</time></trkpt><trkpt lat="44.254535" lon="12.304437"><ele>-2.0</ele><time>2026-05-02T13:27:09.002Z</time></trkpt><trkpt lat="44.2545567" lon="12.3042348"><ele>-2.0</ele><time>2026-05-02T13:27:10.007Z</time></trkpt><trkpt lat="44.2545702" lon="12.3040377"><ele>-2.0</ele><time>2026-05-02T13:27:11.005Z</time></trkpt><trkpt lat="44.2545737" lon="12.3038444"><ele>-2.25</ele><time>2026-05-02T13:27:12.007Z</time></trkpt><trkpt lat="44.254573" lon="12.3036633"><ele>-2.5</ele><time>2026-05-02T13:27:13.002Z</time></trkpt><trkpt lat="44.2545713" lon="12.3034959"><ele>-2.75</ele><time>2026-05-02T13:27:14.015Z</time></trkpt><trkpt lat="44.254569" lon="12.3033407"><ele>-3.0</ele><time>2026-05-02T13:27:15.009Z</time></trkpt><trkpt lat="44.2545645" lon="12.3031934"><ele>-3.0</ele><time>2026-05-02T13:27:16.023Z</time></trkpt><trkpt lat="44.254562" lon="12.3030451"><ele>-3.0</ele><time>2026-05-02T13:27:17.032Z</time></trkpt><trkpt lat="44.2545621" lon="12.3028973"><ele>-3.0</ele><time>2026-05-02T13:27:17.991Z</time></trkpt><trkpt lat="44.254564" lon="12.3027483"><ele>-3.0</ele><time>2026-05-02T13:27:19.019Z</time></trkpt><trkpt lat="44.2545615" lon="12.3025997"><ele>-3.0</ele><time>2026-05-02T13:27:20.012Z</time></trkpt><trkpt lat="44.254559" lon="12.3024505"><ele>-3.0</ele><time>2026-05-02T13:27:21.014Z</time></trkpt><trkpt lat="44.254558" lon="12.3022969"><ele>-3.0</ele><time>2026-05-02T13:27:22.002Z</time></trkpt><trkpt lat="44.2545558" lon="12.3021388"><ele>-3.0</ele><time>2026-05-02T13:27:22.998Z</time></trkpt><trkpt lat="44.2545542" lon="12.3019853"><ele>-3.0</ele><time>2026-05-02T13:27:24.008Z</time></trkpt><trkpt lat="44.254559" lon="12.3018193"><ele>-3.0</ele><time>2026-05-02T13:27:25.016Z</time></trkpt><trkpt lat="44.254567" lon="12.301652"><ele>-3.0</ele><time>2026-05-02T13:27:26.017Z</time></trkpt><trkpt lat="44.2545801" lon="12.3014822"><ele>-3.0</ele><time>2026-05-02T13:27:27.012Z</time></trkpt><trkpt lat="44.2545992" lon="12.3013081"><ele>-3.0</ele><time>2026-05-02T13:27:28.015Z</time></trkpt><trkpt lat="44.2546237" lon="12.3011365"><ele>-2.75</ele><time>2026-05-02T13:27:29.017Z</time></trkpt><trkpt lat="44.254651" lon="12.300964"><ele>-2.5</ele><time>2026-05-02T13:27:30.001Z</time></trkpt><trkpt lat="44.25468" lon="12.3007942"><ele>-2.25</ele><time>2026-05-02T13:27:31.021Z</time></trkpt><trkpt lat="44.2547128" lon="12.3006272"><ele>-2.0</ele><time>2026-05-02T13:27:32.023Z</time></trkpt><trkpt lat="44.2547457" lon="12.3004686"><ele>-2.0</ele><time>2026-05-02T13:27:33.021Z</time></trkpt><trkpt lat="44.2547763" lon="12.3003124"><ele>-2.0</ele><time>2026-05-02T13:27:34.024Z</time></trkpt><trkpt lat="44.2548077" lon="12.3001604"><ele>-2.0</ele><time>2026-05-02T13:27:35.009Z</time></trkpt><trkpt lat="44.2548391" lon="12.300007"><ele>-2.0</ele><time>2026-05-02T13:27:36.002Z</time></trkpt><trkpt lat="44.2548684" lon="12.2998566"><ele>-1.6</ele><time>2026-05-02T13:27:37.009Z</time></trkpt><trkpt lat="44.2549029" lon="12.299708"><ele>-1.2000000000000002</ele><time>2026-05-02T13:27:38.02Z</time></trkpt><trkpt lat="44.2549322" lon="12.2995633"><ele>-0.8</ele><time>2026-05-02T13:27:38.998Z</time></trkpt><trkpt lat="44.2549613" lon="12.2994152"><ele>-0.4</ele><time>2026-05-02T13:27:40.006Z</time></trkpt><trkpt lat="44.2549903" lon="12.2992721"><ele>0.0</ele><time>2026-05-02T13:27:41.003Z</time></trkpt><trkpt lat="44.2550194" lon="12.2991336"><ele>0.0</ele><time>2026-05-02T13:27:42.007Z</time></trkpt><trkpt lat="44.2550482" lon="12.2989927"><ele>0.0</ele><time>2026-05-02T13:27:43.01Z</time></trkpt><trkpt lat="44.255077" lon="12.2988522"><ele>0.0</ele><time>2026-05-02T13:27:44.008Z</time></trkpt><trkpt lat="44.2551055" lon="12.2987107"><ele>0.0</ele><time>2026-05-02T13:27:45.013Z</time></trkpt><trkpt lat="44.2551352" lon="12.2985668"><ele>0.0</ele><time>2026-05-02T13:27:46.007Z</time></trkpt><trkpt lat="44.2551634" lon="12.2984249"><ele>0.0</ele><time>2026-05-02T13:27:47.001Z</time></trkpt><trkpt lat="44.2551898" lon="12.2982789"><ele>0.0</ele><time>2026-05-02T13:27:48Z</time></trkpt><trkpt lat="44.2552192" lon="12.2981362"><ele>0.0</ele><time>2026-05-02T13:27:49.006Z</time></trkpt><trkpt lat="44.2552469" lon="12.2979935"><ele>0.0</ele><time>2026-05-02T13:27:49.999Z</time></trkpt><trkpt lat="44.2552775" lon="12.2978381"><ele>0.0</ele><time>2026-05-02T13:27:51.008Z</time></trkpt><trkpt lat="44.2553103" lon="12.2976729"><ele>0.0</ele><time>2026-05-02T13:27:52.013Z</time></trkpt><trkpt lat="44.2553428" lon="12.2975013"><ele>0.0</ele><time>2026-05-02T13:27:53Z</time></trkpt><trkpt lat="44.2553778" lon="12.297323"><ele>0.0</ele><time>2026-05-02T13:27:54.011Z</time></trkpt><trkpt lat="44.2554174" lon="12.2971406"><ele>0.0</ele><time>2026-05-02T13:27:55.014Z</time></trkpt><trkpt lat="44.2554564" lon="12.2969528"><ele>-0.3333333333333333</ele><time>2026-05-02T13:27:56.005Z</time></trkpt><trkpt lat="44.2554967" lon="12.2967528"><ele>-0.6666666666666666</ele><time>2026-05-02T13:27:57.006Z</time></trkpt><trkpt lat="44.2555395" lon="12.2965495"><ele>-1.0</ele><time>2026-05-02T13:27:58.01Z</time></trkpt><trkpt lat="44.2555785" lon="12.2963416"><ele>-0.6666666666666666</ele><time>2026-05-02T13:27:59.011Z</time></trkpt><trkpt lat="44.255622" lon="12.2961312"><ele>-0.3333333333333333</ele><time>2026-05-02T13:28:00.022Z</time></trkpt><trkpt lat="44.2556639" lon="12.2959218"><ele>0.0</ele><time>2026-05-02T13:28:01.008Z</time></trkpt><trkpt lat="44.2557081" lon="12.2957136"><ele>0.0</ele><time>2026-05-02T13:28:01.998Z</time></trkpt><trkpt lat="44.2557542" lon="12.295506"><ele>0.0</ele><time>2026-05-02T13:28:02.991Z</time></trkpt><trkpt lat="44.2557941" lon="12.2952997"><ele>0.0</ele><time>2026-05-02T13:28:04.004Z</time></trkpt><trkpt lat="44.2558344" lon="12.2950974"><ele>0.0</ele><time>2026-05-02T13:28:04.993Z</time></trkpt><trkpt lat="44.2558758" lon="12.2948929"><ele>0.0</ele><time>2026-05-02T13:28:05.992Z</time></trkpt><trkpt lat="44.2559175" lon="12.294689"><ele>0.0</ele><time>2026-05-02T13:28:07.009Z</time></trkpt><trkpt lat="44.2559546" lon="12.2944888"><ele>0.0</ele><time>2026-05-02T13:28:08.01Z</time></trkpt><trkpt lat="44.2559955" lon="12.2942843"><ele>0.0</ele><time>2026-05-02T13:28:09.007Z</time></trkpt><trkpt lat="44.2560362" lon="12.2940853"><ele>0.0</ele><time>2026-05-02T13:28:10.009Z</time></trkpt><trkpt lat="44.2560784" lon="12.2938827"><ele>0.0</ele><time>2026-05-02T13:28:11.006Z</time></trkpt><trkpt lat="44.2561163" lon="12.2936808"><ele>0.0</ele><time>2026-05-02T13:28:11.995Z</time></trkpt><trkpt lat="44.2561589" lon="12.2934815"><ele>0.0</ele><time>2026-05-02T13:28:13.001Z</time></trkpt><trkpt lat="44.2561954" lon="12.2932838"><ele>0.0</ele><time>2026-05-02T13:28:14.001Z</time></trkpt><trkpt lat="44.2562355" lon="12.2930934"><ele>0.5</ele><time>2026-05-02T13:28:15.001Z</time></trkpt><trkpt lat="44.256269" lon="12.2929088"><ele>1.0</ele><time>2026-05-02T13:28:16Z</time></trkpt><trkpt lat="44.2563033" lon="12.2927296"><ele>1.5</ele><time>2026-05-02T13:28:17.012Z</time></trkpt><trkpt lat="44.2563379" lon="12.2925544"><ele>2.0</ele><time>2026-05-02T13:28:18.014Z</time></trkpt><trkpt lat="44.25637" lon="12.2923933"><ele>1.8</ele><time>2026-05-02T13:28:19.007Z</time></trkpt><trkpt lat="44.2564029" lon="12.2922426"><ele>1.6</ele><time>2026-05-02T13:28:19.993Z</time></trkpt><trkpt lat="44.2564299" lon="12.2920995"><ele>1.4000000000000001</ele><time>2026-05-02T13:28:21.009Z</time></trkpt><trkpt lat="44.2564586" lon="12.2919598"><ele>1.2000000000000002</ele><time>2026-05-02T13:28:22.01Z</time></trkpt><trkpt lat="44.2564915" lon="12.2918175"><ele>1.0</ele><time>2026-05-02T13:28:23.018Z</time></trkpt><trkpt lat="44.2565173" lon="12.291683"><ele>1.0</ele><time>2026-05-02T13:28:24.012Z</time></trkpt><trkpt lat="44.2565395" lon="12.2915497"><ele>1.0</ele><time>2026-05-02T13:28:25.007Z</time></trkpt><trkpt lat="44.2565657" lon="12.2914085"><ele>1.0</ele><time>2026-05-02T13:28:26.007Z</time></trkpt><trkpt lat="44.2565961" lon="12.2912646"><ele>1.0</ele><time>2026-05-02T13:28:27.009Z</time></trkpt><trkpt lat="44.256625" lon="12.2911204"><ele>1.0</ele><time>2026-05-02T13:28:28.008Z</time></trkpt><trkpt lat="44.2566538" lon="12.2909833"><ele>1.0</ele><time>2026-05-02T13:28:29.009Z</time></trkpt><trkpt lat="44.2566815" lon="12.2908472"><ele>1.0</ele><time>2026-05-02T13:28:30.009Z</time></trkpt><trkpt lat="44.2567085" lon="12.2907137"><ele>1.0</ele><time>2026-05-02T13:28:31.001Z</time></trkpt><trkpt lat="44.2567383" lon="12.2905814"><ele>1.0</ele><time>2026-05-02T13:28:32.014Z</time></trkpt><trkpt lat="44.2567668" lon="12.2904498"><ele>1.0</ele><time>2026-05-02T13:28:33.015Z</time></trkpt><trkpt lat="44.2567944" lon="12.2903086"><ele>0.8</ele><time>2026-05-02T13:28:34.007Z</time></trkpt><trkpt lat="44.2568243" lon="12.2901669"><ele>0.6000000000000001</ele><time>2026-05-02T13:28:35.007Z</time></trkpt><trkpt lat="44.2568506" lon="12.2900222"><ele>0.4</ele><time>2026-05-02T13:28:36.008Z</time></trkpt><trkpt lat="44.2568771" lon="12.2898809"><ele>0.2</ele><time>2026-05-02T13:28:36.999Z</time></trkpt><trkpt lat="44.2569074" lon="12.2897427"><ele>0.0</ele><time>2026-05-02T13:28:38.011Z</time></trkpt><trkpt lat="44.2569374" lon="12.2896088"><ele>-0.2</ele><time>2026-05-02T13:28:39.011Z</time></trkpt><trkpt lat="44.2569665" lon="12.289471"><ele>-0.4</ele><time>2026-05-02T13:28:40.011Z</time></trkpt><trkpt lat="44.2569945" lon="12.2893393"><ele>-0.6000000000000001</ele><time>2026-05-02T13:28:41.011Z</time></trkpt><trkpt lat="44.2570216" lon="12.2892104"><ele>-0.8</ele><time>2026-05-02T13:28:42.001Z</time></trkpt><trkpt lat="44.2570471" lon="12.2890864"><ele>-1.0</ele><time>2026-05-02T13:28:43.007Z</time></trkpt><trkpt lat="44.2570738" lon="12.2889611"><ele>-0.8</ele><time>2026-05-02T13:28:44Z</time></trkpt><trkpt lat="44.2571007" lon="12.2888329"><ele>-0.6000000000000001</ele><time>2026-05-02T13:28:45.013Z</time></trkpt><trkpt lat="44.2571248" lon="12.288703"><ele>-0.4</ele><time>2026-05-02T13:28:46.014Z</time></trkpt><trkpt lat="44.2571533" lon="12.2885745"><ele>-0.2</ele><time>2026-05-02T13:28:47.012Z</time></trkpt><trkpt lat="44.2571791" lon="12.2884421"><ele>0.0</ele><time>2026-05-02T13:28:48.005Z</time></trkpt><trkpt lat="44.2572032" lon="12.288311"><ele>0.0</ele><time>2026-05-02T13:28:49.01Z</time></trkpt><trkpt lat="44.2572263" lon="12.288182"><ele>0.0</ele><time>2026-05-02T13:28:50.009Z</time></trkpt><trkpt lat="44.2572532" lon="12.2880529"><ele>0.0</ele><time>2026-05-02T13:28:51.005Z</time></trkpt><trkpt lat="44.2572806" lon="12.2879223"><ele>0.0</ele><time>2026-05-02T13:28:52.014Z</time></trkpt><trkpt lat="44.2573088" lon="12.2877863"><ele>0.0</ele><time>2026-05-02T13:28:53.004Z</time></trkpt><trkpt lat="44.2573376" lon="12.2876424"><ele>0.0</ele><time>2026-05-02T13:28:54.011Z</time></trkpt><trkpt lat="44.257367" lon="12.287494"><ele>0.0</ele><time>2026-05-02T13:28:55.004Z</time></trkpt><trkpt lat="44.2574008" lon="12.2873365"><ele>0.0</ele><time>2026-05-02T13:28:56Z</time></trkpt><trkpt lat="44.2574333" lon="12.2871721"><ele>0.0</ele><time>2026-05-02T13:28:57.007Z</time></trkpt><trkpt lat="44.257464" lon="12.287002"><ele>0.0</ele><time>2026-05-02T13:28:58.006Z</time></trkpt><trkpt lat="44.2575004" lon="12.286837"><ele>0.0</ele><time>2026-05-02T13:28:59.014Z</time></trkpt><trkpt lat="44.2575306" lon="12.2866746"><ele>0.0</ele><time>2026-05-02T13:29:00.007Z</time></trkpt><trkpt lat="44.257561" lon="12.2865254"><ele>0.0</ele><time>2026-05-02T13:29:01.007Z</time></trkpt><trkpt lat="44.2575908" lon="12.2863752"><ele>-0.2</ele><time>2026-05-02T13:29:02.012Z</time></trkpt><trkpt lat="44.2576184" lon="12.2862263"><ele>-0.4</ele><time>2026-05-02T13:29:03.005Z</time></trkpt><trkpt lat="44.2576507" lon="12.2860758"><ele>-0.6000000000000001</ele><time>2026-05-02T13:29:04.024Z</time></trkpt><trkpt lat="44.2576808" lon="12.2859233"><ele>-0.8</ele><time>2026-05-02T13:29:05.011Z</time></trkpt><trkpt lat="44.2577105" lon="12.2857719"><ele>-1.0</ele><time>2026-05-02T13:29:06.01Z</time></trkpt><trkpt lat="44.2577411" lon="12.2856205"><ele>-0.5</ele><time>2026-05-02T13:29:07.002Z</time></trkpt><trkpt lat="44.2577745" lon="12.2854592"><ele>0.0</ele><time>2026-05-02T13:29:08.013Z</time></trkpt><trkpt lat="44.2578069" lon="12.2853"><ele>0.5</ele><time>2026-05-02T13:29:09.006Z</time></trkpt><trkpt lat="44.257836" lon="12.2851448"><ele>1.0</ele><time>2026-05-02T13:29:10.002Z</time></trkpt><trkpt lat="44.2578683" lon="12.2849837"><ele>1.0</ele><time>2026-05-02T13:29:11.014Z</time></trkpt><trkpt lat="44.2579013" lon="12.2848209"><ele>1.0</ele><time>2026-05-02T13:29:12.003Z</time></trkpt><trkpt lat="44.2579373" lon="12.2846551"><ele>1.0</ele><time>2026-05-02T13:29:13.01Z</time></trkpt><trkpt lat="44.2579697" lon="12.2844886"><ele>1.0</ele><time>2026-05-02T13:29:14.01Z</time></trkpt><trkpt lat="44.2580035" lon="12.2843154"><ele>1.0</ele><time>2026-05-02T13:29:15.012Z</time></trkpt><trkpt lat="44.2580358" lon="12.2841422"><ele>1.0</ele><time>2026-05-02T13:29:16.017Z</time></trkpt><trkpt lat="44.2580711" lon="12.2839693"><ele>1.0</ele><time>2026-05-02T13:29:17.01Z</time></trkpt><trkpt lat="44.2581022" lon="12.2837928"><ele>1.0</ele><time>2026-05-02T13:29:18.007Z</time></trkpt><trkpt lat="44.2581279" lon="12.2836177"><ele>1.0</ele><time>2026-05-02T13:29:18.998Z</time></trkpt><trkpt lat="44.258155" lon="12.2834397"><ele>1.0</ele><time>2026-05-02T13:29:20.005Z</time></trkpt><trkpt lat="44.2581715" lon="12.2832732"><ele>1.0</ele><time>2026-05-02T13:29:21.013Z</time></trkpt><trkpt lat="44.2581796" lon="12.2831146"><ele>1.0</ele><time>2026-05-02T13:29:22.006Z</time></trkpt><trkpt lat="44.258184" lon="12.2829491"><ele>1.0</ele><time>2026-05-02T13:29:23.001Z</time></trkpt><trkpt lat="44.2581829" lon="12.2827848"><ele>1.0</ele><time>2026-05-02T13:29:24.01Z</time></trkpt><trkpt lat="44.2581788" lon="12.2826252"><ele>1.0</ele><time>2026-05-02T13:29:25.007Z</time></trkpt><trkpt lat="44.2581742" lon="12.2824575"><ele>1.0</ele><time>2026-05-02T13:29:25.999Z</time></trkpt><trkpt lat="44.2581646" lon="12.2822933"><ele>1.0</ele><time>2026-05-02T13:29:27.011Z</time></trkpt><trkpt lat="44.25815" lon="12.282125"><ele>1.0</ele><time>2026-05-02T13:29:28.008Z</time></trkpt><trkpt lat="44.2581303" lon="12.2819547"><ele>1.0</ele><time>2026-05-02T13:29:29.032Z</time></trkpt><trkpt lat="44.2581095" lon="12.2817857"><ele>1.0</ele><time>2026-05-02T13:29:29.994Z</time></trkpt><trkpt lat="44.2580809" lon="12.2816238"><ele>1.25</ele><time>2026-05-02T13:29:31Z</time></trkpt><trkpt lat="44.2580508" lon="12.2814521"><ele>1.5</ele><time>2026-05-02T13:29:32.014Z</time></trkpt><trkpt lat="44.2580165" lon="12.2812847"><ele>1.75</ele><time>2026-05-02T13:29:33.005Z</time></trkpt><trkpt lat="44.2579737" lon="12.2811217"><ele>2.0</ele><time>2026-05-02T13:29:34.026Z</time></trkpt><trkpt lat="44.2579294" lon="12.2809558"><ele>2.0</ele><time>2026-05-02T13:29:35.02Z</time></trkpt><trkpt lat="44.2578803" lon="12.2807941"><ele>2.0</ele><time>2026-05-02T13:29:36.01Z</time></trkpt><trkpt lat="44.2578309" lon="12.2806353"><ele>2.0</ele><time>2026-05-02T13:29:37.011Z</time></trkpt><trkpt lat="44.2577795" lon="12.2804796"><ele>2.0</ele><time>2026-05-02T13:29:38.002Z</time></trkpt><trkpt lat="44.2577298" lon="12.2803348"><ele>2.0</ele><time>2026-05-02T13:29:39.009Z</time></trkpt><trkpt lat="44.2576787" lon="12.2801906"><ele>2.0</ele><time>2026-05-02T13:29:40Z</time></trkpt><trkpt lat="44.2576253" lon="12.2800452"><ele>2.0</ele><time>2026-05-02T13:29:41.004Z</time></trkpt><trkpt lat="44.257574" lon="12.2799021"><ele>2.0</ele><time>2026-05-02T13:29:42.02Z</time></trkpt><trkpt lat="44.2575221" lon="12.2797562"><ele>2.0</ele><time>2026-05-02T13:29:43.015Z</time></trkpt><trkpt lat="44.257471" lon="12.2796035"><ele>2.0</ele><time>2026-05-02T13:29:44.011Z</time></trkpt><trkpt lat="44.2574155" lon="12.2794488"><ele>2.0</ele><time>2026-05-02T13:29:44.994Z</time></trkpt><trkpt lat="44.2573578" lon="12.2792937"><ele>2.0</ele><time>2026-05-02T13:29:45.996Z</time></trkpt><trkpt lat="44.2573016" lon="12.2791361"><ele>2.0</ele><time>2026-05-02T13:29:47.014Z</time></trkpt><trkpt lat="44.2572437" lon="12.278975"><ele>2.0</ele><time>2026-05-02T13:29:48.01Z</time></trkpt><trkpt lat="44.2571833" lon="12.2788091"><ele>2.0</ele><time>2026-05-02T13:29:49.009Z</time></trkpt><trkpt lat="44.2571234" lon="12.2786472"><ele>2.0</ele><time>2026-05-02T13:29:50.022Z</time></trkpt><trkpt lat="44.2570658" lon="12.2784806"><ele>2.0</ele><time>2026-05-02T13:29:51.005Z</time></trkpt><trkpt lat="44.2570089" lon="12.2783163"><ele>2.0</ele><time>2026-05-02T13:29:52.005Z</time></trkpt><trkpt lat="44.2569517" lon="12.2781573"><ele>2.0</ele><time>2026-05-02T13:29:53.011Z</time></trkpt><trkpt lat="44.2568969" lon="12.2779994"><ele>2.0</ele><time>2026-05-02T13:29:54.003Z</time></trkpt><trkpt lat="44.2568432" lon="12.277846"><ele>2.0</ele><time>2026-05-02T13:29:55.012Z</time></trkpt><trkpt lat="44.2567944" lon="12.2776844"><ele>2.0</ele><time>2026-05-02T13:29:56.013Z</time></trkpt><trkpt lat="44.2567466" lon="12.277526"><ele>2.0</ele><time>2026-05-02T13:29:57.007Z</time></trkpt><trkpt lat="44.2567096" lon="12.2773607"><ele>2.0</ele><time>2026-05-02T13:29:58.015Z</time></trkpt><trkpt lat="44.2566723" lon="12.2771932"><ele>2.0</ele><time>2026-05-02T13:29:59.003Z</time></trkpt><trkpt lat="44.25664" lon="12.277024"><ele>2.0</ele><time>2026-05-02T13:30:00.008Z</time></trkpt><trkpt lat="44.2566124" lon="12.2768507"><ele>2.0</ele><time>2026-05-02T13:30:01.004Z</time></trkpt><trkpt lat="44.2565881" lon="12.2766824"><ele>2.0</ele><time>2026-05-02T13:30:02.016Z</time></trkpt><trkpt lat="44.256573" lon="12.2765076"><ele>2.0</ele><time>2026-05-02T13:30:03.013Z</time></trkpt><trkpt lat="44.2565614" lon="12.2763324"><ele>2.0</ele><time>2026-05-02T13:30:04.013Z</time></trkpt><trkpt lat="44.2565523" lon="12.2761504"><ele>2.0</ele><time>2026-05-02T13:30:05.015Z</time></trkpt><trkpt lat="44.2565496" lon="12.2759715"><ele>2.0</ele><time>2026-05-02T13:30:06.003Z</time></trkpt><trkpt lat="44.2565561" lon="12.2757929"><ele>2.0</ele><time>2026-05-02T13:30:07.017Z</time></trkpt><trkpt lat="44.2565641" lon="12.275614"><ele>2.0</ele><time>2026-05-02T13:30:08.009Z</time></trkpt><trkpt lat="44.2565791" lon="12.2754357"><ele>2.0</ele><time>2026-05-02T13:30:09.005Z</time></trkpt><trkpt lat="44.2565982" lon="12.2752561"><ele>2.0</ele><time>2026-05-02T13:30:10.007Z</time></trkpt><trkpt lat="44.2566202" lon="12.2750713"><ele>2.5</ele><time>2026-05-02T13:30:11.004Z</time></trkpt><trkpt lat="44.2566482" lon="12.2748788"><ele>3.0</ele><time>2026-05-02T13:30:12Z</time></trkpt><trkpt lat="44.2566779" lon="12.2746952"><ele>3.5</ele><time>2026-05-02T13:30:13.005Z</time></trkpt><trkpt lat="44.2567062" lon="12.2745143"><ele>4.0</ele><time>2026-05-02T13:30:14.01Z</time></trkpt><trkpt lat="44.256729" lon="12.2743351"><ele>4.0</ele><time>2026-05-02T13:30:15Z</time></trkpt><trkpt lat="44.2567443" lon="12.2741532"><ele>4.0</ele><time>2026-05-02T13:30:16.006Z</time></trkpt><trkpt lat="44.2567538" lon="12.2739703"><ele>4.0</ele><time>2026-05-02T13:30:17.003Z</time></trkpt><trkpt lat="44.2567572" lon="12.2737843"><ele>4.0</ele><time>2026-05-02T13:30:18.006Z</time></trkpt><trkpt lat="44.2567594" lon="12.2736017"><ele>4.0</ele><time>2026-05-02T13:30:19.006Z</time></trkpt><trkpt lat="44.2567582" lon="12.2734166"><ele>4.0</ele><time>2026-05-02T13:30:20.029Z</time></trkpt><trkpt lat="44.2567559" lon="12.273236"><ele>4.0</ele><time>2026-05-02T13:30:21Z</time></trkpt><trkpt lat="44.2567538" lon="12.2730607"><ele>4.0</ele><time>2026-05-02T13:30:22.007Z</time></trkpt><trkpt lat="44.2567515" lon="12.2728861"><ele>4.0</ele><time>2026-05-02T13:30:22.998Z</time></trkpt><trkpt lat="44.2567529" lon="12.2727188"><ele>4.0</ele><time>2026-05-02T13:30:24.014Z</time></trkpt><trkpt lat="44.2567525" lon="12.2725617"><ele>4.0</ele><time>2026-05-02T13:30:25.011Z</time></trkpt><trkpt lat="44.2567518" lon="12.27241"><ele>4.0</ele><time>2026-05-02T13:30:26.011Z</time></trkpt><trkpt lat="44.2567531" lon="12.2722658"><ele>4.0</ele><time>2026-05-02T13:30:27Z</time></trkpt><trkpt lat="44.256752" lon="12.2721111"><ele>4.0</ele><time>2026-05-02T13:30:28.006Z</time></trkpt><trkpt lat="44.2567494" lon="12.2719611"><ele>4.0</ele><time>2026-05-02T13:30:29.012Z</time></trkpt><trkpt lat="44.2567502" lon="12.271804"><ele>4.0</ele><time>2026-05-02T13:30:29.999Z</time></trkpt><trkpt lat="44.256752" lon="12.2716415"><ele>4.0</ele><time>2026-05-02T13:30:31.009Z</time></trkpt><trkpt lat="44.2567498" lon="12.2714791"><ele>3.75</ele><time>2026-05-02T13:30:32.004Z</time></trkpt><trkpt lat="44.2567445" lon="12.2713184"><ele>3.5</ele><time>2026-05-02T13:30:33.005Z</time></trkpt><trkpt lat="44.2567398" lon="12.2711528"><ele>3.25</ele><time>2026-05-02T13:30:34.011Z</time></trkpt><trkpt lat="44.256743" lon="12.2709814"><ele>3.0</ele><time>2026-05-02T13:30:35.006Z</time></trkpt><trkpt lat="44.2567429" lon="12.2708078"><ele>3.0</ele><time>2026-05-02T13:30:35.991Z</time></trkpt><trkpt lat="44.2567436" lon="12.2706338"><ele>3.0</ele><time>2026-05-02T13:30:37.008Z</time></trkpt><trkpt lat="44.2567443" lon="12.2704525"><ele>3.0</ele><time>2026-05-02T13:30:38.014Z</time></trkpt><trkpt lat="44.2567447" lon="12.2702727"><ele>3.0</ele><time>2026-05-02T13:30:39.015Z</time></trkpt><trkpt lat="44.256746" lon="12.2700856"><ele>3.25</ele><time>2026-05-02T13:30:40.012Z</time></trkpt><trkpt lat="44.256743" lon="12.2698973"><ele>3.5</ele><time>2026-05-02T13:30:41.031Z</time></trkpt><trkpt lat="44.2567428" lon="12.2697075"><ele>3.75</ele><time>2026-05-02T13:30:42.009Z</time></trkpt><trkpt lat="44.2567442" lon="12.2695183"><ele>4.0</ele><time>2026-05-02T13:30:43.009Z</time></trkpt><trkpt lat="44.2567439" lon="12.2693318"><ele>4.0</ele><time>2026-05-02T13:30:44.01Z</time></trkpt><trkpt lat="44.2567433" lon="12.2691474"><ele>4.0</ele><time>2026-05-02T13:30:45.011Z</time></trkpt><trkpt lat="44.2567432" lon="12.2689705"><ele>4.0</ele><time>2026-05-02T13:30:46.002Z</time></trkpt><trkpt lat="44.2567424" lon="12.2687946"><ele>4.0</ele><time>2026-05-02T13:30:47.007Z</time></trkpt><trkpt lat="44.2567408" lon="12.2686187"><ele>4.5</ele><time>2026-05-02T13:30:48.004Z</time></trkpt><trkpt lat="44.2567403" lon="12.268442"><ele>5.0</ele><time>2026-05-02T13:30:49.007Z</time></trkpt><trkpt lat="44.2567413" lon="12.2682688"><ele>5.5</ele><time>2026-05-02T13:30:50.007Z</time></trkpt><trkpt lat="44.2567362" lon="12.2680919"><ele>6.0</ele><time>2026-05-02T13:30:51.01Z</time></trkpt><trkpt lat="44.2567361" lon="12.2679163"><ele>6.0</ele><time>2026-05-02T13:30:51.998Z</time></trkpt><trkpt lat="44.2567398" lon="12.2677383"><ele>6.0</ele><time>2026-05-02T13:30:53.017Z</time></trkpt><trkpt lat="44.2567413" lon="12.2675562"><ele>6.0</ele><time>2026-05-02T13:30:54.01Z</time></trkpt><trkpt lat="44.2567432" lon="12.2673657"><ele>6.0</ele><time>2026-05-02T13:30:55.017Z</time></trkpt><trkpt lat="44.2567437" lon="12.2671729"><ele>6.0</ele><time>2026-05-02T13:30:55.996Z</time></trkpt><trkpt lat="44.2567435" lon="12.2669735"><ele>6.0</ele><time>2026-05-02T13:30:56.999Z</time></trkpt><trkpt lat="44.256745" lon="12.2667739"><ele>6.0</ele><time>2026-05-02T13:30:57.991Z</time></trkpt><trkpt lat="44.2567545" lon="12.2665699"><ele>6.0</ele><time>2026-05-02T13:30:59.006Z</time></trkpt><trkpt lat="44.2567655" lon="12.266366"><ele>6.0</ele><time>2026-05-02T13:31:00.017Z</time></trkpt><trkpt lat="44.2567824" lon="12.2661624"><ele>6.0</ele><time>2026-05-02T13:31:01.006Z</time></trkpt><trkpt lat="44.2568062" lon="12.265965"><ele>6.0</ele><time>2026-05-02T13:31:02.007Z</time></trkpt><trkpt lat="44.2568279" lon="12.2657673"><ele>6.0</ele><time>2026-05-02T13:31:03.01Z</time></trkpt><trkpt lat="44.2568518" lon="12.2655746"><ele>6.0</ele><time>2026-05-02T13:31:04.008Z</time></trkpt><trkpt lat="44.2568763" lon="12.2653798"><ele>6.0</ele><time>2026-05-02T13:31:05.003Z</time></trkpt><trkpt lat="44.2569005" lon="12.2651873"><ele>6.0</ele><time>2026-05-02T13:31:06.009Z</time></trkpt><trkpt lat="44.2569293" lon="12.2649983"><ele>6.0</ele><time>2026-05-02T13:31:07.002Z</time></trkpt><trkpt lat="44.2569596" lon="12.2648153"><ele>5.75</ele><time>2026-05-02T13:31:07.999Z</time></trkpt><trkpt lat="44.2569872" lon="12.2646342"><ele>5.5</ele><time>2026-05-02T13:31:08.998Z</time></trkpt><trkpt lat="44.2570152" lon="12.2644591"><ele>5.25</ele><time>2026-05-02T13:31:10.004Z</time></trkpt><trkpt lat="44.2570383" lon="12.2642896"><ele>5.0</ele><time>2026-05-02T13:31:11.007Z</time></trkpt><trkpt lat="44.2570576" lon="12.2641282"><ele>5.0</ele><time>2026-05-02T13:31:12.012Z</time></trkpt><trkpt lat="44.2570813" lon="12.2639697"><ele>5.0</ele><time>2026-05-02T13:31:13.003Z</time></trkpt><trkpt lat="44.2571045" lon="12.2638101"><ele>5.0</ele><time>2026-05-02T13:31:14.01Z</time></trkpt><trkpt lat="44.257133" lon="12.2636483"><ele>5.0</ele><time>2026-05-02T13:31:15.017Z</time></trkpt><trkpt lat="44.2571575" lon="12.2634932"><ele>5.0</ele><time>2026-05-02T13:31:16.008Z</time></trkpt><trkpt lat="44.2571841" lon="12.2633433"><ele>5.0</ele><time>2026-05-02T13:31:17.012Z</time></trkpt><trkpt lat="44.2572085" lon="12.2631918"><ele>5.0</ele><time>2026-05-02T13:31:17.996Z</time></trkpt><trkpt lat="44.2572333" lon="12.2630408"><ele>5.0</ele><time>2026-05-02T13:31:19.01Z</time></trkpt><trkpt lat="44.2572566" lon="12.2628875"><ele>5.0</ele><time>2026-05-02T13:31:20.008Z</time></trkpt><trkpt lat="44.2572847" lon="12.2627343"><ele>5.5</ele><time>2026-05-02T13:31:21.014Z</time></trkpt><trkpt lat="44.2573064" lon="12.2625784"><ele>6.0</ele><time>2026-05-02T13:31:22.011Z</time></trkpt><trkpt lat="44.2573316" lon="12.2624243"><ele>6.5</ele><time>2026-05-02T13:31:23.01Z</time></trkpt><trkpt lat="44.2573592" lon="12.262261"><ele>7.0</ele><time>2026-05-02T13:31:23.997Z</time></trkpt><trkpt lat="44.2573811" lon="12.2620983"><ele>7.166666666666667</ele><time>2026-05-02T13:31:25.014Z</time></trkpt><trkpt lat="44.2574003" lon="12.2619492"><ele>7.333333333333334</ele><time>2026-05-02T13:31:26.014Z</time></trkpt><trkpt lat="44.2574203" lon="12.2618474"><ele>7.5</ele><time>2026-05-02T13:31:27.006Z</time></trkpt><trkpt lat="44.2574423" lon="12.2617582"><ele>7.666666666666666</ele><time>2026-05-02T13:31:28.999Z</time></trkpt><trkpt lat="44.2574579" lon="12.2616624"><ele>7.833333333333333</ele><time>2026-05-02T13:32:23.01Z</time></trkpt><trkpt lat="44.2574743" lon="12.261522"><ele>8.0</ele><time>2026-05-02T13:32:24.011Z</time></trkpt><trkpt lat="44.2575012" lon="12.2613269"><ele>8.0</ele><time>2026-05-02T13:32:24.994Z</time></trkpt><trkpt lat="44.2575303" lon="12.2611117"><ele>8.0</ele><time>2026-05-02T13:32:26.006Z</time></trkpt><trkpt lat="44.2575654" lon="12.2608869"><ele>8.0</ele><time>2026-05-02T13:32:27.01Z</time></trkpt><trkpt lat="44.2576025" lon="12.2606475"><ele>7.333333333333333</ele><time>2026-05-02T13:32:27.997Z</time></trkpt><trkpt lat="44.2576414" lon="12.2604065"><ele>6.666666666666666</ele><time>2026-05-02T13:32:28.993Z</time></trkpt><trkpt lat="44.2576735" lon="12.2601695"><ele>6.0</ele><time>2026-05-02T13:32:30.003Z</time></trkpt><trkpt lat="44.2577083" lon="12.2599443"><ele>6.5</ele><time>2026-05-02T13:32:31.012Z</time></trkpt><trkpt lat="44.2577423" lon="12.2597416"><ele>7.0</ele><time>2026-05-02T13:32:32.004Z</time></trkpt><trkpt lat="44.2577707" lon="12.2595448"><ele>7.5</ele><time>2026-05-02T13:32:33.013Z</time></trkpt><trkpt lat="44.2578011" lon="12.259356"><ele>8.0</ele><time>2026-05-02T13:32:34.003Z</time></trkpt><trkpt lat="44.2578278" lon="12.2591728"><ele>8.0</ele><time>2026-05-02T13:32:35.013Z</time></trkpt><trkpt lat="44.2578495" lon="12.2589959"><ele>8.0</ele><time>2026-05-02T13:32:36.001Z</time></trkpt><trkpt lat="44.2578748" lon="12.2588182"><ele>8.0</ele><time>2026-05-02T13:32:37.01Z</time></trkpt><trkpt lat="44.2579075" lon="12.2586327"><ele>8.0</ele><time>2026-05-02T13:32:38.006Z</time></trkpt><trkpt lat="44.2579356" lon="12.2584368"><ele>8.0</ele><time>2026-05-02T13:32:39.006Z</time></trkpt><trkpt lat="44.2579659" lon="12.258233"><ele>8.0</ele><time>2026-05-02T13:32:39.999Z</time></trkpt><trkpt lat="44.2579976" lon="12.2580287"><ele>8.0</ele><time>2026-05-02T13:32:41.008Z</time></trkpt><trkpt lat="44.2580302" lon="12.2578233"><ele>8.0</ele><time>2026-05-02T13:32:42.002Z</time></trkpt><trkpt lat="44.2580664" lon="12.2576108"><ele>7.666666666666666</ele><time>2026-05-02T13:32:43.016Z</time></trkpt><trkpt lat="44.2580995" lon="12.2573989"><ele>7.333333333333334</ele><time>2026-05-02T13:32:44.008Z</time></trkpt><trkpt lat="44.2581275" lon="12.2571908"><ele>7.0</ele><time>2026-05-02T13:32:45.004Z</time></trkpt><trkpt lat="44.258157" lon="12.2569842"><ele>7.333333333333334</ele><time>2026-05-02T13:32:46.012Z</time></trkpt><trkpt lat="44.2581857" lon="12.2567703"><ele>7.666666666666666</ele><time>2026-05-02T13:32:47.01Z</time></trkpt><trkpt lat="44.2582176" lon="12.2565568"><ele>8.0</ele><time>2026-05-02T13:32:48.015Z</time></trkpt><trkpt lat="44.2582508" lon="12.256341"><ele>8.0</ele><time>2026-05-02T13:32:49.007Z</time></trkpt><trkpt lat="44.2582836" lon="12.2561079"><ele>8.0</ele><time>2026-05-02T13:32:50.001Z</time></trkpt><trkpt lat="44.2583169" lon="12.2558569"><ele>8.0</ele><time>2026-05-02T13:32:51.003Z</time></trkpt><trkpt lat="44.2583509" lon="12.2556058"><ele>8.0</ele><time>2026-05-02T13:32:52.014Z</time></trkpt><trkpt lat="44.2583806" lon="12.2553846"><ele>8.0</ele><time>2026-05-02T13:32:53.017Z</time></trkpt><trkpt lat="44.2584027" lon="12.2552033"><ele>8.0</ele><time>2026-05-02T13:32:54.004Z</time></trkpt><trkpt lat="44.2584127" lon="12.2550469"><ele>8.0</ele><time>2026-05-02T13:32:55.01Z</time></trkpt><trkpt lat="44.2584169" lon="12.2549127"><ele>7.800000000000001</ele><time>2026-05-02T13:32:56.003Z</time></trkpt><trkpt lat="44.2584099" lon="12.2547811"><ele>7.6000000000000005</ele><time>2026-05-02T13:32:57.013Z</time></trkpt><trkpt lat="44.2583955" lon="12.2546537"><ele>7.3999999999999995</ele><time>2026-05-02T13:32:58.022Z</time></trkpt><trkpt lat="44.2583724" lon="12.2545159"><ele>7.199999999999999</ele><time>2026-05-02T13:32:59.011Z</time></trkpt><trkpt lat="44.2583406" lon="12.2543692"><ele>7.0</ele><time>2026-05-02T13:33:00.012Z</time></trkpt><trkpt lat="44.2582944" lon="12.2542149"><ele>7.0</ele><time>2026-05-02T13:33:01.004Z</time></trkpt><trkpt lat="44.2582366" lon="12.2540642"><ele>6.999999999999999</ele><time>2026-05-02T13:33:02.005Z</time></trkpt><trkpt lat="44.2581667" lon="12.2539349"><ele>6.999999999999999</ele><time>2026-05-02T13:33:03.003Z</time></trkpt><trkpt lat="44.2581102" lon="12.2538187"><ele>7.0</ele><time>2026-05-02T13:33:04.01Z</time></trkpt><trkpt lat="44.2580635" lon="12.253711"><ele>7.0</ele><time>2026-05-02T13:33:05.014Z</time></trkpt><trkpt lat="44.2580512" lon="12.2536065"><ele>7.0</ele><time>2026-05-02T13:33:06.007Z</time></trkpt><trkpt lat="44.2580644" lon="12.2534943"><ele>7.0</ele><time>2026-05-02T13:33:07.007Z</time></trkpt><trkpt lat="44.2580929" lon="12.2533699"><ele>7.0</ele><time>2026-05-02T13:33:08.007Z</time></trkpt><trkpt lat="44.258132" lon="12.2531759"><ele>7.0</ele><time>2026-05-02T13:33:09.011Z</time></trkpt><trkpt lat="44.2581741" lon="12.2529518"><ele>7.0</ele><time>2026-05-02T13:33:10.024Z</time></trkpt><trkpt lat="44.2582176" lon="12.2527167"><ele>7.0</ele><time>2026-05-02T13:33:11.013Z</time></trkpt><trkpt lat="44.2582587" lon="12.2524684"><ele>7.0</ele><time>2026-05-02T13:33:12.002Z</time></trkpt><trkpt lat="44.2583011" lon="12.2522213"><ele>7.0</ele><time>2026-05-02T13:33:13.014Z</time></trkpt><trkpt lat="44.2583406" lon="12.2519704"><ele>7.0</ele><time>2026-05-02T13:33:14.008Z</time></trkpt><trkpt lat="44.2583927" lon="12.2517036"><ele>7.0</ele><time>2026-05-02T13:33:14.997Z</time></trkpt><trkpt lat="44.2584444" lon="12.2514326"><ele>7.0</ele><time>2026-05-02T13:33:15.993Z</time></trkpt><trkpt lat="44.2584965" lon="12.2511668"><ele>7.0</ele><time>2026-05-02T13:33:17.006Z</time></trkpt><trkpt lat="44.2585425" lon="12.2509171"><ele>7.0</ele><time>2026-05-02T13:33:18.016Z</time></trkpt><trkpt lat="44.2585834" lon="12.2506813"><ele>6.666666666666667</ele><time>2026-05-02T13:33:19.013Z</time></trkpt><trkpt lat="44.2586241" lon="12.2504609"><ele>6.333333333333334</ele><time>2026-05-02T13:33:20.003Z</time></trkpt><trkpt lat="44.2586623" lon="12.2502424"><ele>6.0</ele><time>2026-05-02T13:33:21.012Z</time></trkpt><trkpt lat="44.2587066" lon="12.2500236"><ele>6.0</ele><time>2026-05-02T13:33:22.01Z</time></trkpt><trkpt lat="44.258746" lon="12.2497922"><ele>6.0</ele><time>2026-05-02T13:33:23.008Z</time></trkpt><trkpt lat="44.2587893" lon="12.2495798"><ele>6.0</ele><time>2026-05-02T13:33:24.016Z</time></trkpt><trkpt lat="44.2588228" lon="12.2493911"><ele>6.25</ele><time>2026-05-02T13:33:25.008Z</time></trkpt><trkpt lat="44.2588507" lon="12.2492114"><ele>6.5</ele><time>2026-05-02T13:33:26.008Z</time></trkpt><trkpt lat="44.2588841" lon="12.2490307"><ele>6.75</ele><time>2026-05-02T13:33:27.023Z</time></trkpt><trkpt lat="44.2589185" lon="12.2488489"><ele>7.0</ele><time>2026-05-02T13:33:28.004Z</time></trkpt><trkpt lat="44.2589562" lon="12.2486616"><ele>7.0</ele><time>2026-05-02T13:33:29.016Z</time></trkpt><trkpt lat="44.2589916" lon="12.2484705"><ele>7.0</ele><time>2026-05-02T13:33:30.01Z</time></trkpt><trkpt lat="44.2590279" lon="12.2482598"><ele>7.0</ele><time>2026-05-02T13:33:30.998Z</time></trkpt><trkpt lat="44.2590677" lon="12.2480298"><ele>6.333333333333334</ele><time>2026-05-02T13:33:32.024Z</time></trkpt><trkpt lat="44.2591128" lon="12.2477794"><ele>5.666666666666667</ele><time>2026-05-02T13:33:33.005Z</time></trkpt><trkpt lat="44.2591571" lon="12.2475363"><ele>5.0</ele><time>2026-05-02T13:33:34.013Z</time></trkpt><trkpt lat="44.2592032" lon="12.2472987"><ele>4.666666666666667</ele><time>2026-05-02T13:33:35.004Z</time></trkpt><trkpt lat="44.2592509" lon="12.2470498"><ele>4.333333333333333</ele><time>2026-05-02T13:33:36.014Z</time></trkpt><trkpt lat="44.2592981" lon="12.2467919"><ele>4.0</ele><time>2026-05-02T13:33:37.004Z</time></trkpt><trkpt lat="44.2593493" lon="12.2465116"><ele>4.5</ele><time>2026-05-02T13:33:38.009Z</time></trkpt><trkpt lat="44.2594084" lon="12.2462007"><ele>5.0</ele><time>2026-05-02T13:33:38.998Z</time></trkpt><trkpt lat="44.2594706" lon="12.2458854"><ele>5.333333333333334</ele><time>2026-05-02T13:33:40.011Z</time></trkpt><trkpt lat="44.2595291" lon="12.2455938"><ele>5.666666666666667</ele><time>2026-05-02T13:33:41.017Z</time></trkpt><trkpt lat="44.2595917" lon="12.2453197"><ele>6.0</ele><time>2026-05-02T13:33:42.003Z</time></trkpt><trkpt lat="44.259663" lon="12.2450711"><ele>6.0</ele><time>2026-05-02T13:33:42.995Z</time></trkpt><trkpt lat="44.2597383" lon="12.2448256"><ele>6.0</ele><time>2026-05-02T13:33:44.02Z</time></trkpt><trkpt lat="44.2598128" lon="12.2445855"><ele>6.0</ele><time>2026-05-02T13:33:45.012Z</time></trkpt><trkpt lat="44.2598868" lon="12.244361"><ele>6.0</ele><time>2026-05-02T13:33:46.013Z</time></trkpt><trkpt lat="44.2599567" lon="12.2441583"><ele>6.0</ele><time>2026-05-02T13:33:47.015Z</time></trkpt><trkpt lat="44.2600188" lon="12.2439568"><ele>6.0</ele><time>2026-05-02T13:33:48.007Z</time></trkpt><trkpt lat="44.2600825" lon="12.2437658"><ele>6.0</ele><time>2026-05-02T13:33:49.021Z</time></trkpt><trkpt lat="44.2601434" lon="12.2435809"><ele>6.0</ele><time>2026-05-02T13:33:50.012Z</time></trkpt><trkpt lat="44.2602086" lon="12.2433865"><ele>6.0</ele><time>2026-05-02T13:33:51.005Z</time></trkpt><trkpt lat="44.2602756" lon="12.2431846"><ele>5.666666666666667</ele><time>2026-05-02T13:33:51.997Z</time></trkpt><trkpt lat="44.2603442" lon="12.2429756"><ele>5.333333333333334</ele><time>2026-05-02T13:33:53.001Z</time></trkpt><trkpt lat="44.2604205" lon="12.2427618"><ele>5.0</ele><time>2026-05-02T13:33:54.01Z</time></trkpt><trkpt lat="44.260509" lon="12.2425455"><ele>5.0</ele><time>2026-05-02T13:33:55.012Z</time></trkpt><trkpt lat="44.2606047" lon="12.2423382"><ele>5.0</ele><time>2026-05-02T13:33:56.005Z</time></trkpt><trkpt lat="44.2607063" lon="12.2421427"><ele>5.0</ele><time>2026-05-02T13:33:57.024Z</time></trkpt><trkpt lat="44.2608197" lon="12.2419577"><ele>4.666666666666667</ele><time>2026-05-02T13:33:58.008Z</time></trkpt><trkpt lat="44.2609336" lon="12.241775"><ele>4.333333333333333</ele><time>2026-05-02T13:33:59.014Z</time></trkpt><trkpt lat="44.2610476" lon="12.2415995"><ele>4.0</ele><time>2026-05-02T13:34:00.017Z</time></trkpt><trkpt lat="44.2611591" lon="12.2414324"><ele>4.0</ele><time>2026-05-02T13:34:01.006Z</time></trkpt><trkpt lat="44.2612675" lon="12.2412667"><ele>4.0</ele><time>2026-05-02T13:34:02.017Z</time></trkpt><trkpt lat="44.2613777" lon="12.2411"><ele>4.0</ele><time>2026-05-02T13:34:03.003Z</time></trkpt><trkpt lat="44.2614883" lon="12.2409311"><ele>4.0</ele><time>2026-05-02T13:34:04.014Z</time></trkpt><trkpt lat="44.2615993" lon="12.2407658"><ele>4.0</ele><time>2026-05-02T13:34:05.011Z</time></trkpt><trkpt lat="44.2617125" lon="12.2405985"><ele>4.0</ele><time>2026-05-02T13:34:06.005Z</time></trkpt><trkpt lat="44.2618263" lon="12.2404261"><ele>4.0</ele><time>2026-05-02T13:34:07.01Z</time></trkpt><trkpt lat="44.2619386" lon="12.2402496"><ele>4.0</ele><time>2026-05-02T13:34:07.999Z</time></trkpt><trkpt lat="44.2620514" lon="12.2400732"><ele>4.0</ele><time>2026-05-02T13:34:09.011Z</time></trkpt><trkpt lat="44.2621675" lon="12.2398971"><ele>4.0</ele><time>2026-05-02T13:34:10.004Z</time></trkpt><trkpt lat="44.2622784" lon="12.2397184"><ele>4.0</ele><time>2026-05-02T13:34:11.001Z</time></trkpt><trkpt lat="44.2623955" lon="12.2395353"><ele>4.0</ele><time>2026-05-02T13:34:12.006Z</time></trkpt><trkpt lat="44.2625119" lon="12.2393538"><ele>4.0</ele><time>2026-05-02T13:34:12.994Z</time></trkpt><trkpt lat="44.262627" lon="12.2391702"><ele>4.0</ele><time>2026-05-02T13:34:13.991Z</time></trkpt><trkpt lat="44.2627438" lon="12.2389901"><ele>4.0</ele><time>2026-05-02T13:34:15.002Z</time></trkpt><trkpt lat="44.262863" lon="12.2388135"><ele>3.6666666666666665</ele><time>2026-05-02T13:34:16.005Z</time></trkpt><trkpt lat="44.2629821" lon="12.2386379"><ele>3.333333333333333</ele><time>2026-05-02T13:34:17.007Z</time></trkpt><trkpt lat="44.2630976" lon="12.2384648"><ele>3.0</ele><time>2026-05-02T13:34:18.014Z</time></trkpt><trkpt lat="44.2632121" lon="12.2382923"><ele>2.6666666666666665</ele><time>2026-05-02T13:34:19.004Z</time></trkpt><trkpt lat="44.2633234" lon="12.2381212"><ele>2.333333333333333</ele><time>2026-05-02T13:34:20.001Z</time></trkpt><trkpt lat="44.2634368" lon="12.2379468"><ele>2.0</ele><time>2026-05-02T13:34:21.019Z</time></trkpt><trkpt lat="44.2635492" lon="12.2377697"><ele>2.0</ele><time>2026-05-02T13:34:22.009Z</time></trkpt><trkpt lat="44.2636621" lon="12.2375906"><ele>2.0</ele><time>2026-05-02T13:34:23.008Z</time></trkpt><trkpt lat="44.2637744" lon="12.237416"><ele>2.0</ele><time>2026-05-02T13:34:24.006Z</time></trkpt><trkpt lat="44.2638829" lon="12.2372558"><ele>2.5</ele><time>2026-05-02T13:34:25.007Z</time></trkpt><trkpt lat="44.2639849" lon="12.2371002"><ele>3.0</ele><time>2026-05-02T13:34:26.002Z</time></trkpt><trkpt lat="44.2640843" lon="12.2369536"><ele>3.5</ele><time>2026-05-02T13:34:26.993Z</time></trkpt><trkpt lat="44.2641857" lon="12.2368023"><ele>4.0</ele><time>2026-05-02T13:34:28.003Z</time></trkpt><trkpt lat="44.264288" lon="12.2366483"><ele>4.0</ele><time>2026-05-02T13:34:29.016Z</time></trkpt><trkpt lat="44.264392" lon="12.2364896"><ele>4.0</ele><time>2026-05-02T13:34:30.011Z</time></trkpt><trkpt lat="44.2644963" lon="12.2363321"><ele>4.0</ele><time>2026-05-02T13:34:31.017Z</time></trkpt><trkpt lat="44.2645969" lon="12.2361718"><ele>3.75</ele><time>2026-05-02T13:34:32.006Z</time></trkpt><trkpt lat="44.2646906" lon="12.2360155"><ele>3.5</ele><time>2026-05-02T13:34:33.007Z</time></trkpt><trkpt lat="44.2647858" lon="12.2358611"><ele>3.25</ele><time>2026-05-02T13:34:34.002Z</time></trkpt><trkpt lat="44.2648775" lon="12.2356976"><ele>3.0</ele><time>2026-05-02T13:34:35.018Z</time></trkpt><trkpt lat="44.2649744" lon="12.2355394"><ele>3.0</ele><time>2026-05-02T13:34:35.997Z</time></trkpt><trkpt lat="44.2650722" lon="12.2353903"><ele>3.0</ele><time>2026-05-02T13:34:37.019Z</time></trkpt><trkpt lat="44.2651684" lon="12.2352456"><ele>3.0</ele><time>2026-05-02T13:34:38.01Z</time></trkpt><trkpt lat="44.2652731" lon="12.2351061"><ele>3.0</ele><time>2026-05-02T13:34:39Z</time></trkpt><trkpt lat="44.2653893" lon="12.2349696"><ele>3.0</ele><time>2026-05-02T13:34:40.005Z</time></trkpt><trkpt lat="44.2655113" lon="12.2348391"><ele>3.0</ele><time>2026-05-02T13:34:41.006Z</time></trkpt><trkpt lat="44.2656347" lon="12.2347186"><ele>3.0</ele><time>2026-05-02T13:34:42.005Z</time></trkpt><trkpt lat="44.2657548" lon="12.2346017"><ele>2.75</ele><time>2026-05-02T13:34:43Z</time></trkpt><trkpt lat="44.2658744" lon="12.2344881"><ele>2.5</ele><time>2026-05-02T13:34:44.001Z</time></trkpt><trkpt lat="44.2659927" lon="12.2343721"><ele>2.25</ele><time>2026-05-02T13:34:45.016Z</time></trkpt><trkpt lat="44.2661157" lon="12.2342462"><ele>2.0</ele><time>2026-05-02T13:34:46.016Z</time></trkpt><trkpt lat="44.2662378" lon="12.2341167"><ele>2.0</ele><time>2026-05-02T13:34:47.013Z</time></trkpt><trkpt lat="44.2663523" lon="12.233983"><ele>2.0</ele><time>2026-05-02T13:34:48.013Z</time></trkpt><trkpt lat="44.2664654" lon="12.2338406"><ele>2.0</ele><time>2026-05-02T13:34:49.009Z</time></trkpt><trkpt lat="44.2665774" lon="12.2336898"><ele>2.0</ele><time>2026-05-02T13:34:50.013Z</time></trkpt><trkpt lat="44.2666844" lon="12.2335384"><ele>2.0</ele><time>2026-05-02T13:34:51.011Z</time></trkpt><trkpt lat="44.2667905" lon="12.2333778"><ele>2.0</ele><time>2026-05-02T13:34:52.009Z</time></trkpt><trkpt lat="44.266896" lon="12.2332129"><ele>2.333333333333333</ele><time>2026-05-02T13:34:53.014Z</time></trkpt><trkpt lat="44.2670005" lon="12.2330484"><ele>2.6666666666666665</ele><time>2026-05-02T13:34:54.007Z</time></trkpt><trkpt lat="44.2670973" lon="12.2328823"><ele>3.0</ele><time>2026-05-02T13:34:55.017Z</time></trkpt><trkpt lat="44.2671943" lon="12.2327092"><ele>3.0</ele><time>2026-05-02T13:34:56.021Z</time></trkpt><trkpt lat="44.2672892" lon="12.2325367"><ele>3.0</ele><time>2026-05-02T13:34:57.014Z</time></trkpt><trkpt lat="44.2673837" lon="12.2323537"><ele>3.0</ele><time>2026-05-02T13:34:58.019Z</time></trkpt><trkpt lat="44.2674778" lon="12.2321688"><ele>3.0</ele><time>2026-05-02T13:34:59.007Z</time></trkpt><trkpt lat="44.2675662" lon="12.2319912"><ele>3.0</ele><time>2026-05-02T13:35:00.009Z</time></trkpt><trkpt lat="44.2676536" lon="12.2318172"><ele>3.0</ele><time>2026-05-02T13:35:01.006Z</time></trkpt><trkpt lat="44.2677399" lon="12.2316571"><ele>3.0</ele><time>2026-05-02T13:35:02.012Z</time></trkpt><trkpt lat="44.2678262" lon="12.2314973"><ele>3.0</ele><time>2026-05-02T13:35:03.01Z</time></trkpt><trkpt lat="44.2679137" lon="12.2313344"><ele>3.0</ele><time>2026-05-02T13:35:03.994Z</time></trkpt><trkpt lat="44.2680009" lon="12.2311663"><ele>3.0</ele><time>2026-05-02T13:35:05.02Z</time></trkpt><trkpt lat="44.2680956" lon="12.2309859"><ele>3.333333333333333</ele><time>2026-05-02T13:35:06.017Z</time></trkpt><trkpt lat="44.2681942" lon="12.2307968"><ele>3.6666666666666665</ele><time>2026-05-02T13:35:07.002Z</time></trkpt><trkpt lat="44.2682963" lon="12.2306097"><ele>4.0</ele><time>2026-05-02T13:35:08.004Z</time></trkpt><trkpt lat="44.2684007" lon="12.230421"><ele>3.333333333333333</ele><time>2026-05-02T13:35:09.004Z</time></trkpt><trkpt lat="44.268505" lon="12.230229"><ele>2.6666666666666665</ele><time>2026-05-02T13:35:10.027Z</time></trkpt><trkpt lat="44.2686101" lon="12.23004"><ele>2.0</ele><time>2026-05-02T13:35:11.01Z</time></trkpt><trkpt lat="44.2687162" lon="12.2298531"><ele>2.0</ele><time>2026-05-02T13:35:11.99Z</time></trkpt><trkpt lat="44.2688276" lon="12.229658"><ele>2.0</ele><time>2026-05-02T13:35:13.004Z</time></trkpt><trkpt lat="44.2689401" lon="12.2294571"><ele>2.0</ele><time>2026-05-02T13:35:14.01Z</time></trkpt><trkpt lat="44.269056" lon="12.2292579"><ele>2.0</ele><time>2026-05-02T13:35:15.024Z</time></trkpt><trkpt lat="44.2691696" lon="12.2290519"><ele>2.0</ele><time>2026-05-02T13:35:15.994Z</time></trkpt><trkpt lat="44.2692822" lon="12.2288472"><ele>2.0</ele><time>2026-05-02T13:35:17.004Z</time></trkpt><trkpt lat="44.2693949" lon="12.2286413"><ele>2.333333333333333</ele><time>2026-05-02T13:35:18.016Z</time></trkpt><trkpt lat="44.2695111" lon="12.2284268"><ele>2.6666666666666665</ele><time>2026-05-02T13:35:19.005Z</time></trkpt><trkpt lat="44.2696481" lon="12.2281861"><ele>3.0</ele><time>2026-05-02T13:35:20.017Z</time></trkpt><trkpt lat="44.2698041" lon="12.2279033"><ele>3.0</ele><time>2026-05-02T13:35:21.002Z</time></trkpt><trkpt lat="44.2699664" lon="12.2276107"><ele>3.0</ele><time>2026-05-02T13:35:22.007Z</time></trkpt><trkpt lat="44.2701299" lon="12.2273213"><ele>3.0</ele><time>2026-05-02T13:35:23.005Z</time></trkpt><trkpt lat="44.2702897" lon="12.2270486"><ele>3.0</ele><time>2026-05-02T13:35:24.009Z</time></trkpt><trkpt lat="44.2704407" lon="12.2267924"><ele>3.0</ele><time>2026-05-02T13:35:25.003Z</time></trkpt><trkpt lat="44.2705732" lon="12.2265654"><ele>3.0</ele><time>2026-05-02T13:35:26.002Z</time></trkpt><trkpt lat="44.2706891" lon="12.2263696"><ele>3.0</ele><time>2026-05-02T13:35:27.012Z</time></trkpt><trkpt lat="44.2708065" lon="12.2261896"><ele>3.0</ele><time>2026-05-02T13:35:28.004Z</time></trkpt><trkpt lat="44.2709205" lon="12.2260114"><ele>3.0</ele><time>2026-05-02T13:35:29.016Z</time></trkpt><trkpt lat="44.2710305" lon="12.225829"><ele>3.0</ele><time>2026-05-02T13:35:30.002Z</time></trkpt><trkpt lat="44.271143" lon="12.2256337"><ele>3.0</ele><time>2026-05-02T13:35:31.015Z</time></trkpt><trkpt lat="44.271256" lon="12.2254235"><ele>3.0</ele><time>2026-05-02T13:35:32.024Z</time></trkpt><trkpt lat="44.2713858" lon="12.2251929"><ele>3.0</ele><time>2026-05-02T13:35:33.016Z</time></trkpt><trkpt lat="44.2715353" lon="12.224944"><ele>3.5</ele><time>2026-05-02T13:35:34.008Z</time></trkpt><trkpt lat="44.2716904" lon="12.2246868"><ele>4.0</ele><time>2026-05-02T13:35:35.01Z</time></trkpt><trkpt lat="44.271849" lon="12.2244344"><ele>4.0</ele><time>2026-05-02T13:35:36.005Z</time></trkpt><trkpt lat="44.2720091" lon="12.224171"><ele>4.0</ele><time>2026-05-02T13:35:37.002Z</time></trkpt><trkpt lat="44.2721676" lon="12.2239078"><ele>3.5</ele><time>2026-05-02T13:35:38.01Z</time></trkpt><trkpt lat="44.2723206" lon="12.2236517"><ele>3.0</ele><time>2026-05-02T13:35:39.016Z</time></trkpt><trkpt lat="44.2724744" lon="12.2233993"><ele>3.0</ele><time>2026-05-02T13:35:40.003Z</time></trkpt><trkpt lat="44.2726298" lon="12.2231378"><ele>3.0</ele><time>2026-05-02T13:35:41.018Z</time></trkpt><trkpt lat="44.2727878" lon="12.2228792"><ele>3.0</ele><time>2026-05-02T13:35:42.012Z</time></trkpt><trkpt lat="44.2729474" lon="12.2226234"><ele>3.0</ele><time>2026-05-02T13:35:43.015Z</time></trkpt><trkpt lat="44.2731087" lon="12.2223606"><ele>3.0</ele><time>2026-05-02T13:35:43.999Z</time></trkpt><trkpt lat="44.2732707" lon="12.2220927"><ele>3.0</ele><time>2026-05-02T13:35:44.996Z</time></trkpt><trkpt lat="44.2734259" lon="12.2218296"><ele>3.0</ele><time>2026-05-02T13:35:46.004Z</time></trkpt><trkpt lat="44.2735717" lon="12.2215907"><ele>3.0</ele><time>2026-05-02T13:35:47.014Z</time></trkpt><trkpt lat="44.2737145" lon="12.2213581"><ele>3.0</ele><time>2026-05-02T13:35:48.006Z</time></trkpt><trkpt lat="44.2738699" lon="12.2211073"><ele>3.0</ele><time>2026-05-02T13:35:49.008Z</time></trkpt><trkpt lat="44.2740241" lon="12.2208419"><ele>3.0</ele><time>2026-05-02T13:35:49.997Z</time></trkpt><trkpt lat="44.2741942" lon="12.2205525"><ele>3.0</ele><time>2026-05-02T13:35:51.009Z</time></trkpt><trkpt lat="44.2743796" lon="12.2202406"><ele>3.0</ele><time>2026-05-02T13:35:52.007Z</time></trkpt><trkpt lat="44.2745701" lon="12.2199192"><ele>3.0</ele><time>2026-05-02T13:35:53.01Z</time></trkpt><trkpt lat="44.2747593" lon="12.2196087"><ele>3.0</ele><time>2026-05-02T13:35:54.015Z</time></trkpt><trkpt lat="44.2749367" lon="12.2193225"><ele>3.5</ele><time>2026-05-02T13:35:54.993Z</time></trkpt><trkpt lat="44.2750968" lon="12.2190539"><ele>4.0</ele><time>2026-05-02T13:35:56.008Z</time></trkpt><trkpt lat="44.275256" lon="12.2187884"><ele>4.0</ele><time>2026-05-02T13:35:57.01Z</time></trkpt><trkpt lat="44.2754151" lon="12.2185276"><ele>4.0</ele><time>2026-05-02T13:35:58.007Z</time></trkpt><trkpt lat="44.2755656" lon="12.2182743"><ele>4.5</ele><time>2026-05-02T13:35:59.018Z</time></trkpt><trkpt lat="44.2757158" lon="12.2180366"><ele>5.0</ele><time>2026-05-02T13:36:00.026Z</time></trkpt><trkpt lat="44.2758578" lon="12.217789"><ele>5.0</ele><time>2026-05-02T13:36:01.014Z</time></trkpt><trkpt lat="44.276001" lon="12.2175415"><ele>5.0</ele><time>2026-05-02T13:36:02.028Z</time></trkpt><trkpt lat="44.2761498" lon="12.2172911"><ele>4.5</ele><time>2026-05-02T13:36:03.002Z</time></trkpt><trkpt lat="44.2763048" lon="12.2170349"><ele>4.0</ele><time>2026-05-02T13:36:04.01Z</time></trkpt><trkpt lat="44.276458" lon="12.2167715"><ele>3.5</ele><time>2026-05-02T13:36:04.996Z</time></trkpt><trkpt lat="44.2766148" lon="12.2165013"><ele>3.0</ele><time>2026-05-02T13:36:06.006Z</time></trkpt><trkpt lat="44.2767766" lon="12.2162216"><ele>3.0</ele><time>2026-05-02T13:36:07.005Z</time></trkpt><trkpt lat="44.2769437" lon="12.2159324"><ele>3.0</ele><time>2026-05-02T13:36:08.008Z</time></trkpt><trkpt lat="44.2771085" lon="12.2156577"><ele>3.0</ele><time>2026-05-02T13:36:09.002Z</time></trkpt><trkpt lat="44.2772591" lon="12.2154026"><ele>3.0</ele><time>2026-05-02T13:36:10.013Z</time></trkpt><trkpt lat="44.2773996" lon="12.2151707"><ele>3.0</ele><time>2026-05-02T13:36:11.006Z</time></trkpt><trkpt lat="44.2775301" lon="12.2149528"><ele>3.0</ele><time>2026-05-02T13:36:11.998Z</time></trkpt><trkpt lat="44.2776539" lon="12.2147505"><ele>3.0</ele><time>2026-05-02T13:36:13.007Z</time></trkpt><trkpt lat="44.2777698" lon="12.2145665"><ele>3.0</ele><time>2026-05-02T13:36:14.009Z</time></trkpt><trkpt lat="44.2778772" lon="12.214397"><ele>3.0</ele><time>2026-05-02T13:36:15.017Z</time></trkpt><trkpt lat="44.2779752" lon="12.214247"><ele>3.0</ele><time>2026-05-02T13:36:16.012Z</time></trkpt><trkpt lat="44.2780779" lon="12.2141097"><ele>2.75</ele><time>2026-05-02T13:36:17.003Z</time></trkpt><trkpt lat="44.2781826" lon="12.2139901"><ele>2.5</ele><time>2026-05-02T13:36:18.012Z</time></trkpt><trkpt lat="44.2782918" lon="12.2138802"><ele>2.25</ele><time>2026-05-02T13:36:18.991Z</time></trkpt><trkpt lat="44.278408" lon="12.2137806"><ele>2.0</ele><time>2026-05-02T13:36:20.011Z</time></trkpt><trkpt lat="44.2785049" lon="12.2136864"><ele>1.9999999999999998</ele><time>2026-05-02T13:36:20.998Z</time></trkpt><trkpt lat="44.2785803" lon="12.2136213"><ele>2.0</ele><time>2026-05-02T13:36:22.003Z</time></trkpt><trkpt lat="44.2786401" lon="12.2135607"><ele>2.0</ele><time>2026-05-02T13:36:23.004Z</time></trkpt><trkpt lat="44.2786903" lon="12.2135037"><ele>2.0</ele><time>2026-05-02T13:36:24.019Z</time></trkpt><trkpt lat="44.2787841" lon="12.2134077"><ele>1.9999999999999998</ele><time>2026-05-02T13:36:25.995Z</time></trkpt><trkpt lat="44.2788286" lon="12.2132865"><ele>2.0</ele><time>2026-05-02T13:36:27.992Z</time></trkpt><trkpt lat="44.2788045" lon="12.2131404"><ele>2.333333333333333</ele><time>2026-05-02T13:36:30.009Z</time></trkpt><trkpt lat="44.2787827" lon="12.2130579"><ele>2.6666666666666665</ele><time>2026-05-02T13:36:30.998Z</time></trkpt><trkpt lat="44.278774" lon="12.2129618"><ele>3.0</ele><time>2026-05-02T13:36:32.019Z</time></trkpt><trkpt lat="44.2787831" lon="12.2128622"><ele>3.333333333333333</ele><time>2026-05-02T13:36:32.995Z</time></trkpt><trkpt lat="44.2788135" lon="12.2127577"><ele>3.6666666666666665</ele><time>2026-05-02T13:36:34.01Z</time></trkpt><trkpt lat="44.2788623" lon="12.212654"><ele>4.0</ele><time>2026-05-02T13:36:35.012Z</time></trkpt><trkpt lat="44.2789207" lon="12.2125356"><ele>3.6666666666666665</ele><time>2026-05-02T13:36:36.003Z</time></trkpt><trkpt lat="44.2789942" lon="12.212398"><ele>3.333333333333333</ele><time>2026-05-02T13:36:37.001Z</time></trkpt><trkpt lat="44.2790875" lon="12.2122214"><ele>3.0</ele><time>2026-05-02T13:36:38.004Z</time></trkpt><trkpt lat="44.2792086" lon="12.212"><ele>3.0</ele><time>2026-05-02T13:36:39.007Z</time></trkpt><trkpt lat="44.2793405" lon="12.2117587"><ele>3.0</ele><time>2026-05-02T13:36:40.016Z</time></trkpt><trkpt lat="44.2794776" lon="12.2115188"><ele>3.0</ele><time>2026-05-02T13:36:41.006Z</time></trkpt><trkpt lat="44.2796189" lon="12.2112687"><ele>3.0</ele><time>2026-05-02T13:36:42.019Z</time></trkpt><trkpt lat="44.2797584" lon="12.2110099"><ele>3.0</ele><time>2026-05-02T13:36:43.012Z</time></trkpt><trkpt lat="44.2799019" lon="12.2107404"><ele>3.0</ele><time>2026-05-02T13:36:44.003Z</time></trkpt><trkpt lat="44.2800539" lon="12.2104627"><ele>3.0</ele><time>2026-05-02T13:36:45.007Z</time></trkpt><trkpt lat="44.2802142" lon="12.2101705"><ele>3.0</ele><time>2026-05-02T13:36:46.004Z</time></trkpt><trkpt lat="44.280374" lon="12.209879"><ele>3.0</ele><time>2026-05-02T13:36:46.995Z</time></trkpt><trkpt lat="44.2805251" lon="12.2096037"><ele>2.0</ele><time>2026-05-02T13:36:48.009Z</time></trkpt><trkpt lat="44.2806718" lon="12.2093358"><ele>1.0</ele><time>2026-05-02T13:36:49.002Z</time></trkpt><trkpt lat="44.2808191" lon="12.2090673"><ele>1.5</ele><time>2026-05-02T13:36:50.01Z</time></trkpt><trkpt lat="44.2809706" lon="12.2087875"><ele>2.0</ele><time>2026-05-02T13:36:51.015Z</time></trkpt><trkpt lat="44.2811267" lon="12.2085061"><ele>2.0</ele><time>2026-05-02T13:36:51.999Z</time></trkpt><trkpt lat="44.2812868" lon="12.2082172"><ele>2.0</ele><time>2026-05-02T13:36:53.013Z</time></trkpt><trkpt lat="44.2814489" lon="12.2079226"><ele>1.0</ele><time>2026-05-02T13:36:54.009Z</time></trkpt><trkpt lat="44.2816148" lon="12.2076267"><ele>0.0</ele><time>2026-05-02T13:36:55.004Z</time></trkpt><trkpt lat="44.2817734" lon="12.2073409"><ele>0.5</ele><time>2026-05-02T13:36:56.002Z</time></trkpt><trkpt lat="44.2819195" lon="12.2070667"><ele>1.0</ele><time>2026-05-02T13:36:57.009Z</time></trkpt><trkpt lat="44.2820577" lon="12.206815"><ele>1.0</ele><time>2026-05-02T13:36:58.001Z</time></trkpt><trkpt lat="44.2821913" lon="12.2065838"><ele>1.0</ele><time>2026-05-02T13:36:59.004Z</time></trkpt><trkpt lat="44.2823182" lon="12.2063601"><ele>1.0</ele><time>2026-05-02T13:37:00.007Z</time></trkpt><trkpt lat="44.2824392" lon="12.2061455"><ele>1.3333333333333333</ele><time>2026-05-02T13:37:00.999Z</time></trkpt><trkpt lat="44.2825525" lon="12.2059395"><ele>1.6666666666666665</ele><time>2026-05-02T13:37:02.02Z</time></trkpt><trkpt lat="44.2826548" lon="12.2057481"><ele>2.0</ele><time>2026-05-02T13:37:03.009Z</time></trkpt><trkpt lat="44.2827446" lon="12.2055737"><ele>2.0</ele><time>2026-05-02T13:37:04.004Z</time></trkpt><trkpt lat="44.2828292" lon="12.2054011"><ele>2.0</ele><time>2026-05-02T13:37:05.011Z</time></trkpt><trkpt lat="44.2829076" lon="12.2052205"><ele>2.0</ele><time>2026-05-02T13:37:06.009Z</time></trkpt><trkpt lat="44.282965" lon="12.2050082"><ele>2.0</ele><time>2026-05-02T13:37:06.999Z</time></trkpt><trkpt lat="44.2830184" lon="12.2047449"><ele>2.0</ele><time>2026-05-02T13:37:08.002Z</time></trkpt><trkpt lat="44.2830805" lon="12.2044393"><ele>2.0</ele><time>2026-05-02T13:37:09.011Z</time></trkpt><trkpt lat="44.2831468" lon="12.2041169"><ele>2.333333333333333</ele><time>2026-05-02T13:37:10.003Z</time></trkpt><trkpt lat="44.2832051" lon="12.203836"><ele>2.6666666666666665</ele><time>2026-05-02T13:37:11.002Z</time></trkpt><trkpt lat="44.2832542" lon="12.2035824"><ele>3.0</ele><time>2026-05-02T13:37:12.007Z</time></trkpt><trkpt lat="44.2833057" lon="12.203343"><ele>3.25</ele><time>2026-05-02T13:37:12.998Z</time></trkpt><trkpt lat="44.2833522" lon="12.2031199"><ele>3.5</ele><time>2026-05-02T13:37:14.013Z</time></trkpt><trkpt lat="44.2833883" lon="12.2029147"><ele>3.75</ele><time>2026-05-02T13:37:15.001Z</time></trkpt><trkpt lat="44.2834205" lon="12.2027475"><ele>4.0</ele><time>2026-05-02T13:37:16.006Z</time></trkpt><trkpt lat="44.283448" lon="12.2026175"><ele>4.0</ele><time>2026-05-02T13:37:17.001Z</time></trkpt><trkpt lat="44.2834684" lon="12.2025155"><ele>4.0</ele><time>2026-05-02T13:37:17.999Z</time></trkpt><trkpt lat="44.2834777" lon="12.2024048"><ele>4.0</ele><time>2026-05-02T13:37:20.006Z</time></trkpt><trkpt lat="44.2834008" lon="12.2023099"><ele>4.0</ele><time>2026-05-02T13:37:23.01Z</time></trkpt><trkpt lat="44.2833106" lon="12.2022741"><ele>4.0</ele><time>2026-05-02T13:37:24.01Z</time></trkpt><trkpt lat="44.2831839" lon="12.2022489"><ele>3.333333333333333</ele><time>2026-05-02T13:37:24.996Z</time></trkpt><trkpt lat="44.2830419" lon="12.2022195"><ele>2.6666666666666665</ele><time>2026-05-02T13:37:25.989Z</time></trkpt><trkpt lat="44.2828936" lon="12.2021874"><ele>2.0</ele><time>2026-05-02T13:37:26.998Z</time></trkpt><trkpt lat="44.2827233" lon="12.2021555"><ele>2.0</ele><time>2026-05-02T13:37:28.012Z</time></trkpt><trkpt lat="44.2825367" lon="12.2021243"><ele>2.0</ele><time>2026-05-02T13:37:29.001Z</time></trkpt><trkpt lat="44.2823316" lon="12.2020838"><ele>2.0</ele><time>2026-05-02T13:37:30.006Z</time></trkpt><trkpt lat="44.2821078" lon="12.2020437"><ele>3.0</ele><time>2026-05-02T13:37:31.003Z</time></trkpt><trkpt lat="44.2818752" lon="12.2019959"><ele>4.0</ele><time>2026-05-02T13:37:32.005Z</time></trkpt><trkpt lat="44.2816409" lon="12.2019492"><ele>4.0</ele><time>2026-05-02T13:37:33Z</time></trkpt><trkpt lat="44.2814042" lon="12.201904"><ele>4.0</ele><time>2026-05-02T13:37:34.001Z</time></trkpt><trkpt lat="44.2811811" lon="12.2018668"><ele>4.0</ele><time>2026-05-02T13:37:35.008Z</time></trkpt><trkpt lat="44.2809792" lon="12.2018292"><ele>4.0</ele><time>2026-05-02T13:37:36.013Z</time></trkpt><trkpt lat="44.280789" lon="12.2017905"><ele>4.0</ele><time>2026-05-02T13:37:37.001Z</time></trkpt><trkpt lat="44.2806103" lon="12.2017522"><ele>4.333333333333333</ele><time>2026-05-02T13:37:38.004Z</time></trkpt><trkpt lat="44.2804331" lon="12.2017242"><ele>4.666666666666667</ele><time>2026-05-02T13:37:39.02Z</time></trkpt><trkpt lat="44.280257" lon="12.2016912"><ele>5.0</ele><time>2026-05-02T13:37:40Z</time></trkpt><trkpt lat="44.2800765" lon="12.2016592"><ele>5.0</ele><time>2026-05-02T13:37:41.003Z</time></trkpt><trkpt lat="44.2798981" lon="12.2016226"><ele>5.0</ele><time>2026-05-02T13:37:42.009Z</time></trkpt><trkpt lat="44.2797184" lon="12.2015869"><ele>5.0</ele><time>2026-05-02T13:37:42.989Z</time></trkpt><trkpt lat="44.2795359" lon="12.2015487"><ele>4.666666666666667</ele><time>2026-05-02T13:37:43.994Z</time></trkpt><trkpt lat="44.2793497" lon="12.2015156"><ele>4.333333333333333</ele><time>2026-05-02T13:37:44.994Z</time></trkpt><trkpt lat="44.2791607" lon="12.2014827"><ele>4.0</ele><time>2026-05-02T13:37:45.991Z</time></trkpt><trkpt lat="44.2789725" lon="12.2014401"><ele>3.6666666666666665</ele><time>2026-05-02T13:37:47Z</time></trkpt><trkpt lat="44.2787823" lon="12.2013831"><ele>3.333333333333333</ele><time>2026-05-02T13:37:48.012Z</time></trkpt><trkpt lat="44.2785843" lon="12.2013049"><ele>3.0</ele><time>2026-05-02T13:37:49.006Z</time></trkpt><trkpt lat="44.2783765" lon="12.2012043"><ele>3.0</ele><time>2026-05-02T13:37:50.01Z</time></trkpt><trkpt lat="44.2781539" lon="12.2010905"><ele>3.0</ele><time>2026-05-02T13:37:51.003Z</time></trkpt><trkpt lat="44.2779146" lon="12.2009719"><ele>3.0</ele><time>2026-05-02T13:37:51.998Z</time></trkpt><trkpt lat="44.2776734" lon="12.2008593"><ele>3.0</ele><time>2026-05-02T13:37:53.005Z</time></trkpt><trkpt lat="44.2774574" lon="12.2007623"><ele>3.333333333333333</ele><time>2026-05-02T13:37:54.007Z</time></trkpt><trkpt lat="44.277252" lon="12.2006689"><ele>3.6666666666666665</ele><time>2026-05-02T13:37:55.009Z</time></trkpt><trkpt lat="44.2770531" lon="12.2005841"><ele>4.0</ele><time>2026-05-02T13:37:56.008Z</time></trkpt><trkpt lat="44.276853" lon="12.2005162"><ele>4.0</ele><time>2026-05-02T13:37:56.999Z</time></trkpt><trkpt lat="44.2766385" lon="12.200461"><ele>4.0</ele><time>2026-05-02T13:37:58.007Z</time></trkpt><trkpt lat="44.2764043" lon="12.2004113"><ele>4.0</ele><time>2026-05-02T13:37:58.996Z</time></trkpt><trkpt lat="44.276158" lon="12.2003717"><ele>4.0</ele><time>2026-05-02T13:38:00.016Z</time></trkpt><trkpt lat="44.2759153" lon="12.2003321"><ele>4.0</ele><time>2026-05-02T13:38:01.01Z</time></trkpt><trkpt lat="44.275675" lon="12.2002844"><ele>4.0</ele><time>2026-05-02T13:38:02.007Z</time></trkpt><trkpt lat="44.2754457" lon="12.2002378"><ele>4.0</ele><time>2026-05-02T13:38:03.007Z</time></trkpt><trkpt lat="44.2752297" lon="12.2001944"><ele>4.0</ele><time>2026-05-02T13:38:04.003Z</time></trkpt><trkpt lat="44.2750402" lon="12.2001569"><ele>4.0</ele><time>2026-05-02T13:38:04.995Z</time></trkpt><trkpt lat="44.2748907" lon="12.2001316"><ele>3.9999999999999996</ele><time>2026-05-02T13:38:06.006Z</time></trkpt><trkpt lat="44.2747842" lon="12.2001103"><ele>4.0</ele><time>2026-05-02T13:38:07.008Z</time></trkpt><trkpt lat="44.274718" lon="12.2000985"><ele>4.0</ele><time>2026-05-02T13:38:08Z</time></trkpt><trkpt lat="44.2746481" lon="12.2000544"><ele>4.0</ele><time>2026-05-02T13:38:10.005Z</time></trkpt><trkpt lat="44.2746458" lon="12.1999663"><ele>3.9999999999999996</ele><time>2026-05-02T13:38:11.995Z</time></trkpt><trkpt lat="44.27467" lon="12.1998532"><ele>4.0</ele><time>2026-05-02T13:38:13.006Z</time></trkpt><trkpt lat="44.2747308" lon="12.1996926"><ele>4.0</ele><time>2026-05-02T13:38:14Z</time></trkpt><trkpt lat="44.274801" lon="12.1994685"><ele>4.0</ele><time>2026-05-02T13:38:15.01Z</time></trkpt><trkpt lat="44.2748866" lon="12.1992137"><ele>4.0</ele><time>2026-05-02T13:38:16.007Z</time></trkpt><trkpt lat="44.2749816" lon="12.1989323"><ele>4.0</ele><time>2026-05-02T13:38:17.003Z</time></trkpt><trkpt lat="44.2750879" lon="12.198614"><ele>4.0</ele><time>2026-05-02T13:38:18.01Z</time></trkpt><trkpt lat="44.2752122" lon="12.1982834"><ele>4.0</ele><time>2026-05-02T13:38:19.013Z</time></trkpt><trkpt lat="44.2753252" lon="12.197986"><ele>4.0</ele><time>2026-05-02T13:38:20.002Z</time></trkpt><trkpt lat="44.2754251" lon="12.1977053"><ele>4.0</ele><time>2026-05-02T13:38:21Z</time></trkpt><trkpt lat="44.2755184" lon="12.1974503"><ele>4.0</ele><time>2026-05-02T13:38:22.011Z</time></trkpt><trkpt lat="44.2756098" lon="12.1972079"><ele>4.0</ele><time>2026-05-02T13:38:23.013Z</time></trkpt><trkpt lat="44.2756957" lon="12.1969785"><ele>3.6666666666666665</ele><time>2026-05-02T13:38:23.999Z</time></trkpt><trkpt lat="44.2757775" lon="12.196763"><ele>3.333333333333333</ele><time>2026-05-02T13:38:25.018Z</time></trkpt><trkpt lat="44.2758571" lon="12.1965632"><ele>3.0</ele><time>2026-05-02T13:38:26.005Z</time></trkpt><trkpt lat="44.2759349" lon="12.1963941"><ele>3.0</ele><time>2026-05-02T13:38:27.001Z</time></trkpt><trkpt lat="44.2760233" lon="12.1962422"><ele>3.0</ele><time>2026-05-02T13:38:27.991Z</time></trkpt><trkpt lat="44.2761276" lon="12.1961147"><ele>3.0</ele><time>2026-05-02T13:38:28.997Z</time></trkpt><trkpt lat="44.2762588" lon="12.1959995"><ele>3.0</ele><time>2026-05-02T13:38:30.006Z</time></trkpt><trkpt lat="44.2764172" lon="12.1958655"><ele>3.0</ele><time>2026-05-02T13:38:31.003Z</time></trkpt><trkpt lat="44.2765803" lon="12.1957215"><ele>3.0</ele><time>2026-05-02T13:38:32.001Z</time></trkpt><trkpt lat="44.276748" lon="12.1955778"><ele>3.0</ele><time>2026-05-02T13:38:33.038Z</time></trkpt><trkpt lat="44.2769364" lon="12.1954245"><ele>3.5</ele><time>2026-05-02T13:38:34.005Z</time></trkpt><trkpt lat="44.27715" lon="12.1952783"><ele>4.0</ele><time>2026-05-02T13:38:35.009Z</time></trkpt><trkpt lat="44.2773852" lon="12.1951209"><ele>4.0</ele><time>2026-05-02T13:38:36.003Z</time></trkpt><trkpt lat="44.2776262" lon="12.1949783"><ele>4.0</ele><time>2026-05-02T13:38:37.001Z</time></trkpt><trkpt lat="44.27784" lon="12.1948526"><ele>4.0</ele><time>2026-05-02T13:38:38Z</time></trkpt><trkpt lat="44.2780374" lon="12.1947358"><ele>4.0</ele><time>2026-05-02T13:38:38.995Z</time></trkpt><trkpt lat="44.2782211" lon="12.1946228"><ele>4.0</ele><time>2026-05-02T13:38:40.009Z</time></trkpt><trkpt lat="44.2783915" lon="12.1945055"><ele>3.6666666666666665</ele><time>2026-05-02T13:38:41.005Z</time></trkpt><trkpt lat="44.2785454" lon="12.1943756"><ele>3.333333333333333</ele><time>2026-05-02T13:38:42.01Z</time></trkpt><trkpt lat="44.2786991" lon="12.194219"><ele>3.0</ele><time>2026-05-02T13:38:43.005Z</time></trkpt><trkpt lat="44.2788597" lon="12.1940402"><ele>3.333333333333333</ele><time>2026-05-02T13:38:44.015Z</time></trkpt><trkpt lat="44.2790249" lon="12.1938533"><ele>3.6666666666666665</ele><time>2026-05-02T13:38:45.002Z</time></trkpt><trkpt lat="44.279197" lon="12.1936551"><ele>4.0</ele><time>2026-05-02T13:38:45.999Z</time></trkpt><trkpt lat="44.2793819" lon="12.1934602"><ele>4.0</ele><time>2026-05-02T13:38:47.007Z</time></trkpt><trkpt lat="44.2795836" lon="12.1932595"><ele>4.0</ele><time>2026-05-02T13:38:48.002Z</time></trkpt><trkpt lat="44.279773" lon="12.1930788"><ele>3.0</ele><time>2026-05-02T13:38:49.004Z</time></trkpt><trkpt lat="44.2799308" lon="12.1929219"><ele>2.0</ele><time>2026-05-02T13:38:50.005Z</time></trkpt><trkpt lat="44.2800768" lon="12.1927785"><ele>1.0</ele><time>2026-05-02T13:38:50.988Z</time></trkpt><trkpt lat="44.2802171" lon="12.1926562"><ele>1.0</ele><time>2026-05-02T13:38:52.001Z</time></trkpt><trkpt lat="44.2803495" lon="12.1925467"><ele>1.0</ele><time>2026-05-02T13:38:53.001Z</time></trkpt><trkpt lat="44.2804804" lon="12.1924298"><ele>1.0</ele><time>2026-05-02T13:38:54.02Z</time></trkpt><trkpt lat="44.2806123" lon="12.1923065"><ele>2.0</ele><time>2026-05-02T13:38:54.996Z</time></trkpt><trkpt lat="44.2807421" lon="12.1921642"><ele>3.0</ele><time>2026-05-02T13:38:56.003Z</time></trkpt><trkpt lat="44.2808694" lon="12.192012"><ele>4.0</ele><time>2026-05-02T13:38:57.001Z</time></trkpt><trkpt lat="44.2810009" lon="12.1918438"><ele>4.0</ele><time>2026-05-02T13:38:57.998Z</time></trkpt><trkpt lat="44.2811282" lon="12.1916799"><ele>4.0</ele><time>2026-05-02T13:38:58.993Z</time></trkpt><trkpt lat="44.2812576" lon="12.191512"><ele>4.0</ele><time>2026-05-02T13:38:59.998Z</time></trkpt><trkpt lat="44.2813911" lon="12.1913424"><ele>4.333333333333333</ele><time>2026-05-02T13:39:01.008Z</time></trkpt><trkpt lat="44.2815266" lon="12.1911695"><ele>4.666666666666667</ele><time>2026-05-02T13:39:02.003Z</time></trkpt><trkpt lat="44.2816667" lon="12.1910007"><ele>5.0</ele><time>2026-05-02T13:39:03.007Z</time></trkpt><trkpt lat="44.2818115" lon="12.1908188"><ele>5.0</ele><time>2026-05-02T13:39:04.001Z</time></trkpt><trkpt lat="44.2819572" lon="12.1906375"><ele>5.0</ele><time>2026-05-02T13:39:05.008Z</time></trkpt><trkpt lat="44.2820905" lon="12.1904665"><ele>5.0</ele><time>2026-05-02T13:39:06.003Z</time></trkpt><trkpt lat="44.2822077" lon="12.1903082"><ele>4.8</ele><time>2026-05-02T13:39:06.989Z</time></trkpt><trkpt lat="44.2823127" lon="12.1901661"><ele>4.6</ele><time>2026-05-02T13:39:08.008Z</time></trkpt><trkpt lat="44.2823937" lon="12.1900606"><ele>4.4</ele><time>2026-05-02T13:39:09.005Z</time></trkpt><trkpt lat="44.2824418" lon="12.1899911"><ele>4.2</ele><time>2026-05-02T13:39:10.003Z</time></trkpt><trkpt lat="44.2824782" lon="12.1899114"><ele>4.0</ele><time>2026-05-02T13:39:12.007Z</time></trkpt><trkpt lat="44.2824421" lon="12.189808"><ele>4.0</ele><time>2026-05-02T13:39:15.002Z</time></trkpt><trkpt lat="44.2822981" lon="12.1897249"><ele>4.0</ele><time>2026-05-02T13:39:17.009Z</time></trkpt><trkpt lat="44.2821568" lon="12.1896667"><ele>4.0</ele><time>2026-05-02T13:39:18.018Z</time></trkpt><trkpt lat="44.2820019" lon="12.1896093"><ele>4.333333333333333</ele><time>2026-05-02T13:39:18.995Z</time></trkpt><trkpt lat="44.2818224" lon="12.1895277"><ele>4.666666666666667</ele><time>2026-05-02T13:39:20.01Z</time></trkpt><trkpt lat="44.281611" lon="12.1894398"><ele>5.0</ele><time>2026-05-02T13:39:21.005Z</time></trkpt><trkpt lat="44.2813637" lon="12.189343"><ele>5.0</ele><time>2026-05-02T13:39:22.022Z</time></trkpt><trkpt lat="44.2810964" lon="12.1892445"><ele>5.0</ele><time>2026-05-02T13:39:23.001Z</time></trkpt><trkpt lat="44.2808115" lon="12.1891387"><ele>5.0</ele><time>2026-05-02T13:39:24.015Z</time></trkpt><trkpt lat="44.2805164" lon="12.1890303"><ele>5.0</ele><time>2026-05-02T13:39:24.988Z</time></trkpt><trkpt lat="44.2802357" lon="12.1889323"><ele>5.0</ele><time>2026-05-02T13:39:26.009Z</time></trkpt><trkpt lat="44.2799824" lon="12.1888384"><ele>5.0</ele><time>2026-05-02T13:39:27.014Z</time></trkpt><trkpt lat="44.27974" lon="12.1887444"><ele>4.5</ele><time>2026-05-02T13:39:28.014Z</time></trkpt><trkpt lat="44.2794947" lon="12.1886436"><ele>4.0</ele><time>2026-05-02T13:39:29.007Z</time></trkpt><trkpt lat="44.2792442" lon="12.1885401"><ele>4.0</ele><time>2026-05-02T13:39:29.987Z</time></trkpt><trkpt lat="44.2789868" lon="12.1884474"><ele>4.0</ele><time>2026-05-02T13:39:31.005Z</time></trkpt><trkpt lat="44.2787252" lon="12.1883564"><ele>4.5</ele><time>2026-05-02T13:39:32Z</time></trkpt><trkpt lat="44.2784664" lon="12.1882662"><ele>5.0</ele><time>2026-05-02T13:39:32.989Z</time></trkpt><trkpt lat="44.2782083" lon="12.1881708"><ele>5.5</ele><time>2026-05-02T13:39:33.996Z</time></trkpt><trkpt lat="44.2779408" lon="12.1880752"><ele>6.0</ele><time>2026-05-02T13:39:34.997Z</time></trkpt><trkpt lat="44.2776693" lon="12.1879786"><ele>6.0</ele><time>2026-05-02T13:39:36.004Z</time></trkpt><trkpt lat="44.2773898" lon="12.1878825"><ele>6.0</ele><time>2026-05-02T13:39:37.006Z</time></trkpt><trkpt lat="44.2771033" lon="12.1877906"><ele>5.0</ele><time>2026-05-02T13:39:38.016Z</time></trkpt><trkpt lat="44.2768048" lon="12.1876965"><ele>4.0</ele><time>2026-05-02T13:39:39.004Z</time></trkpt><trkpt lat="44.2764986" lon="12.1875952"><ele>4.5</ele><time>2026-05-02T13:39:40.011Z</time></trkpt><trkpt lat="44.2761855" lon="12.1874888"><ele>5.0</ele><time>2026-05-02T13:39:41.007Z</time></trkpt><trkpt lat="44.2758722" lon="12.187382"><ele>5.0</ele><time>2026-05-02T13:39:41.995Z</time></trkpt><trkpt lat="44.2755584" lon="12.1872782"><ele>5.0</ele><time>2026-05-02T13:39:43.006Z</time></trkpt><trkpt lat="44.2752502" lon="12.1871712"><ele>5.0</ele><time>2026-05-02T13:39:43.999Z</time></trkpt><trkpt lat="44.2749433" lon="12.1870666"><ele>5.0</ele><time>2026-05-02T13:39:44.995Z</time></trkpt><trkpt lat="44.2746391" lon="12.1869674"><ele>4.5</ele><time>2026-05-02T13:39:45.997Z</time></trkpt><trkpt lat="44.2743346" lon="12.1868726"><ele>4.0</ele><time>2026-05-02T13:39:46.997Z</time></trkpt><trkpt lat="44.2740414" lon="12.1867808"><ele>4.5</ele><time>2026-05-02T13:39:48.012Z</time></trkpt><trkpt lat="44.273773" lon="12.186695"><ele>5.0</ele><time>2026-05-02T13:39:49.002Z</time></trkpt><trkpt lat="44.2735252" lon="12.1866166"><ele>5.0</ele><time>2026-05-02T13:39:50.009Z</time></trkpt><trkpt lat="44.2732916" lon="12.1865357"><ele>5.0</ele><time>2026-05-02T13:39:51.011Z</time></trkpt><trkpt lat="44.2730591" lon="12.1864587"><ele>4.0</ele><time>2026-05-02T13:39:52.01Z</time></trkpt><trkpt lat="44.2728265" lon="12.1863798"><ele>3.0</ele><time>2026-05-02T13:39:53.018Z</time></trkpt><trkpt lat="44.2725874" lon="12.1863016"><ele>3.0</ele><time>2026-05-02T13:39:54.001Z</time></trkpt><trkpt lat="44.2723487" lon="12.1862253"><ele>3.0</ele><time>2026-05-02T13:39:55.015Z</time></trkpt><trkpt lat="44.2721126" lon="12.1861467"><ele>4.0</ele><time>2026-05-02T13:39:56.005Z</time></trkpt><trkpt lat="44.271881" lon="12.1860698"><ele>5.0</ele><time>2026-05-02T13:39:57.01Z</time></trkpt><trkpt lat="44.2716681" lon="12.1860038"><ele>5.0</ele><time>2026-05-02T13:39:57.994Z</time></trkpt><trkpt lat="44.2714909" lon="12.1859441"><ele>5.0</ele><time>2026-05-02T13:39:59.016Z</time></trkpt><trkpt lat="44.2713471" lon="12.1858931"><ele>5.0</ele><time>2026-05-02T13:40:00.007Z</time></trkpt><trkpt lat="44.271218" lon="12.1858421"><ele>5.0</ele><time>2026-05-02T13:40:01.004Z</time></trkpt><trkpt lat="44.2710846" lon="12.1857803"><ele>5.0</ele><time>2026-05-02T13:40:02Z</time></trkpt><trkpt lat="44.27093" lon="12.1857185"><ele>5.0</ele><time>2026-05-02T13:40:03.004Z</time></trkpt><trkpt lat="44.2707536" lon="12.1856514"><ele>5.333333333333334</ele><time>2026-05-02T13:40:04Z</time></trkpt><trkpt lat="44.2705555" lon="12.1855757"><ele>5.666666666666667</ele><time>2026-05-02T13:40:05.01Z</time></trkpt><trkpt lat="44.270343" lon="12.1854923"><ele>6.0</ele><time>2026-05-02T13:40:05.997Z</time></trkpt><trkpt lat="44.2701047" lon="12.1854003"><ele>6.0</ele><time>2026-05-02T13:40:07Z</time></trkpt><trkpt lat="44.2698521" lon="12.1852917"><ele>6.0</ele><time>2026-05-02T13:40:07.994Z</time></trkpt><trkpt lat="44.2695927" lon="12.1851863"><ele>5.5</ele><time>2026-05-02T13:40:09.015Z</time></trkpt><trkpt lat="44.2693296" lon="12.1850702"><ele>5.0</ele><time>2026-05-02T13:40:10Z</time></trkpt><trkpt lat="44.2690627" lon="12.1849586"><ele>5.0</ele><time>2026-05-02T13:40:11Z</time></trkpt><trkpt lat="44.2687882" lon="12.184848"><ele>5.0</ele><time>2026-05-02T13:40:11.996Z</time></trkpt><trkpt lat="44.2685151" lon="12.1847342"><ele>5.5</ele><time>2026-05-02T13:40:13.004Z</time></trkpt><trkpt lat="44.268264" lon="12.1846321"><ele>6.0</ele><time>2026-05-02T13:40:13.998Z</time></trkpt><trkpt lat="44.2680499" lon="12.1845456"><ele>6.333333333333334</ele><time>2026-05-02T13:40:15.002Z</time></trkpt><trkpt lat="44.2678566" lon="12.1844637"><ele>6.666666666666667</ele><time>2026-05-02T13:40:16.003Z</time></trkpt><trkpt lat="44.2676785" lon="12.1843892"><ele>7.0</ele><time>2026-05-02T13:40:17.004Z</time></trkpt><trkpt lat="44.267513" lon="12.1843228"><ele>7.0</ele><time>2026-05-02T13:40:18Z</time></trkpt><trkpt lat="44.2673598" lon="12.1842589"><ele>7.0</ele><time>2026-05-02T13:40:19.009Z</time></trkpt><trkpt lat="44.2672153" lon="12.1841941"><ele>7.0</ele><time>2026-05-02T13:40:19.994Z</time></trkpt><trkpt lat="44.2670731" lon="12.1841412"><ele>7.0</ele><time>2026-05-02T13:40:21.001Z</time></trkpt><trkpt lat="44.2669343" lon="12.1840905"><ele>7.0</ele><time>2026-05-02T13:40:21.996Z</time></trkpt><trkpt lat="44.2667905" lon="12.184037"><ele>7.0</ele><time>2026-05-02T13:40:22.998Z</time></trkpt><trkpt lat="44.2666439" lon="12.1839888"><ele>7.0</ele><time>2026-05-02T13:40:24.006Z</time></trkpt><trkpt lat="44.266493" lon="12.183935"><ele>7.0</ele><time>2026-05-02T13:40:25.021Z</time></trkpt><trkpt lat="44.2663369" lon="12.1838782"><ele>7.0</ele><time>2026-05-02T13:40:26.005Z</time></trkpt><trkpt lat="44.2661766" lon="12.1838288"><ele>7.0</ele><time>2026-05-02T13:40:27.01Z</time></trkpt><trkpt lat="44.26601" lon="12.183779"><ele>7.0</ele><time>2026-05-02T13:40:27.999Z</time></trkpt><trkpt lat="44.2658357" lon="12.1837218"><ele>7.0</ele><time>2026-05-02T13:40:29.008Z</time></trkpt><trkpt lat="44.265651" lon="12.1836593"><ele>7.0</ele><time>2026-05-02T13:40:30.009Z</time></trkpt><trkpt lat="44.2654637" lon="12.183595"><ele>7.0</ele><time>2026-05-02T13:40:30.992Z</time></trkpt><trkpt lat="44.2652716" lon="12.1835291"><ele>7.0</ele><time>2026-05-02T13:40:31.995Z</time></trkpt><trkpt lat="44.2650786" lon="12.1834651"><ele>7.0</ele><time>2026-05-02T13:40:33.004Z</time></trkpt><trkpt lat="44.2648813" lon="12.1833988"><ele>6.666666666666667</ele><time>2026-05-02T13:40:34.002Z</time></trkpt><trkpt lat="44.264682" lon="12.1833286"><ele>6.333333333333334</ele><time>2026-05-02T13:40:34.996Z</time></trkpt><trkpt lat="44.2644795" lon="12.1832587"><ele>6.0</ele><time>2026-05-02T13:40:36.008Z</time></trkpt><trkpt lat="44.2642724" lon="12.1831877"><ele>6.0</ele><time>2026-05-02T13:40:37.004Z</time></trkpt><trkpt lat="44.2640618" lon="12.1831165"><ele>6.0</ele><time>2026-05-02T13:40:38Z</time></trkpt><trkpt lat="44.2638464" lon="12.1830404"><ele>6.0</ele><time>2026-05-02T13:40:38.998Z</time></trkpt><trkpt lat="44.2636237" lon="12.1829621"><ele>6.0</ele><time>2026-05-02T13:40:39.998Z</time></trkpt><trkpt lat="44.2633971" lon="12.1828826"><ele>6.0</ele><time>2026-05-02T13:40:40.997Z</time></trkpt><trkpt lat="44.2631681" lon="12.1828066"><ele>6.5</ele><time>2026-05-02T13:40:42.004Z</time></trkpt><trkpt lat="44.2629332" lon="12.1827265"><ele>7.0</ele><time>2026-05-02T13:40:43.002Z</time></trkpt><trkpt lat="44.2626989" lon="12.1826496"><ele>7.0</ele><time>2026-05-02T13:40:44.006Z</time></trkpt><trkpt lat="44.2624687" lon="12.1825713"><ele>7.0</ele><time>2026-05-02T13:40:44.993Z</time></trkpt><trkpt lat="44.2622411" lon="12.1824969"><ele>7.0</ele><time>2026-05-02T13:40:46.013Z</time></trkpt><trkpt lat="44.2620125" lon="12.1824187"><ele>7.0</ele><time>2026-05-02T13:40:47.002Z</time></trkpt><trkpt lat="44.2617937" lon="12.1823417"><ele>7.0</ele><time>2026-05-02T13:40:48.001Z</time></trkpt><trkpt lat="44.261588" lon="12.1822625"><ele>7.0</ele><time>2026-05-02T13:40:49.006Z</time></trkpt><trkpt lat="44.2613806" lon="12.1821909"><ele>7.0</ele><time>2026-05-02T13:40:50.002Z</time></trkpt><trkpt lat="44.2611623" lon="12.1821183"><ele>7.0</ele><time>2026-05-02T13:40:51.003Z</time></trkpt><trkpt lat="44.2609269" lon="12.1820408"><ele>7.0</ele><time>2026-05-02T13:40:52.01Z</time></trkpt><trkpt lat="44.2606817" lon="12.1819629"><ele>7.5</ele><time>2026-05-02T13:40:53.005Z</time></trkpt><trkpt lat="44.260428" lon="12.1818784"><ele>8.0</ele><time>2026-05-02T13:40:54.008Z</time></trkpt><trkpt lat="44.2601659" lon="12.1817938"><ele>8.0</ele><time>2026-05-02T13:40:55.01Z</time></trkpt><trkpt lat="44.259903" lon="12.1817045"><ele>8.0</ele><time>2026-05-02T13:40:55.998Z</time></trkpt><trkpt lat="44.2596437" lon="12.1816124"><ele>8.5</ele><time>2026-05-02T13:40:57.002Z</time></trkpt><trkpt lat="44.2593945" lon="12.1815278"><ele>9.0</ele><time>2026-05-02T13:40:58.002Z</time></trkpt><trkpt lat="44.259147" lon="12.1814411"><ele>8.5</ele><time>2026-05-02T13:40:59.003Z</time></trkpt><trkpt lat="44.258901" lon="12.181356"><ele>8.0</ele><time>2026-05-02T13:41:00.009Z</time></trkpt><trkpt lat="44.2586498" lon="12.1812777"><ele>8.0</ele><time>2026-05-02T13:41:01Z</time></trkpt><trkpt lat="44.2583919" lon="12.1811951"><ele>8.0</ele><time>2026-05-02T13:41:02.011Z</time></trkpt><trkpt lat="44.2581273" lon="12.1811098"><ele>8.0</ele><time>2026-05-02T13:41:02.998Z</time></trkpt><trkpt lat="44.2578544" lon="12.1810201"><ele>8.0</ele><time>2026-05-02T13:41:04.002Z</time></trkpt><trkpt lat="44.2575962" lon="12.1809354"><ele>8.0</ele><time>2026-05-02T13:41:05.005Z</time></trkpt><trkpt lat="44.2573606" lon="12.1808572"><ele>8.0</ele><time>2026-05-02T13:41:05.992Z</time></trkpt><trkpt lat="44.2571362" lon="12.1807796"><ele>8.333333333333332</ele><time>2026-05-02T13:41:07.008Z</time></trkpt><trkpt lat="44.2569232" lon="12.1807024"><ele>8.666666666666666</ele><time>2026-05-02T13:41:08.004Z</time></trkpt><trkpt lat="44.256713" lon="12.1806325"><ele>9.0</ele><time>2026-05-02T13:41:09.003Z</time></trkpt><trkpt lat="44.2564986" lon="12.1805621"><ele>9.5</ele><time>2026-05-02T13:41:10.008Z</time></trkpt><trkpt lat="44.256277" lon="12.1804872"><ele>10.0</ele><time>2026-05-02T13:41:11.01Z</time></trkpt><trkpt lat="44.2560529" lon="12.180414"><ele>10.0</ele><time>2026-05-02T13:41:12.013Z</time></trkpt><trkpt lat="44.2558245" lon="12.1803371"><ele>10.0</ele><time>2026-05-02T13:41:13.016Z</time></trkpt><trkpt lat="44.2555946" lon="12.1802547"><ele>11.0</ele><time>2026-05-02T13:41:13.999Z</time></trkpt><trkpt lat="44.2553526" lon="12.1801711"><ele>12.0</ele><time>2026-05-02T13:41:15.006Z</time></trkpt><trkpt lat="44.2551038" lon="12.1800868"><ele>12.0</ele><time>2026-05-02T13:41:16.007Z</time></trkpt><trkpt lat="44.2548438" lon="12.1799986"><ele>12.0</ele><time>2026-05-02T13:41:17.003Z</time></trkpt><trkpt lat="44.2545773" lon="12.1799081"><ele>10.5</ele><time>2026-05-02T13:41:18.008Z</time></trkpt><trkpt lat="44.2543127" lon="12.1798105"><ele>9.0</ele><time>2026-05-02T13:41:19Z</time></trkpt><trkpt lat="44.2540407" lon="12.1796991"><ele>9.5</ele><time>2026-05-02T13:41:19.999Z</time></trkpt><trkpt lat="44.2537635" lon="12.1795801"><ele>10.0</ele><time>2026-05-02T13:41:21.004Z</time></trkpt><trkpt lat="44.2534877" lon="12.1794699"><ele>10.0</ele><time>2026-05-02T13:41:22.014Z</time></trkpt><trkpt lat="44.2532144" lon="12.1793698"><ele>10.0</ele><time>2026-05-02T13:41:23.009Z</time></trkpt><trkpt lat="44.2529386" lon="12.1792753"><ele>10.5</ele><time>2026-05-02T13:41:24.006Z</time></trkpt><trkpt lat="44.2526592" lon="12.1791856"><ele>11.0</ele><time>2026-05-02T13:41:25Z</time></trkpt><trkpt lat="44.2523739" lon="12.1790933"><ele>10.0</ele><time>2026-05-02T13:41:25.997Z</time></trkpt><trkpt lat="44.2520824" lon="12.1789921"><ele>9.0</ele><time>2026-05-02T13:41:27.003Z</time></trkpt><trkpt lat="44.2517866" lon="12.1788851"><ele>9.0</ele><time>2026-05-02T13:41:28.006Z</time></trkpt><trkpt lat="44.2514875" lon="12.1787818"><ele>9.0</ele><time>2026-05-02T13:41:29.001Z</time></trkpt><trkpt lat="44.2511869" lon="12.1786767"><ele>8.5</ele><time>2026-05-02T13:41:30.002Z</time></trkpt><trkpt lat="44.2508859" lon="12.1785728"><ele>8.0</ele><time>2026-05-02T13:41:31.016Z</time></trkpt><trkpt lat="44.2505809" lon="12.178466"><ele>9.0</ele><time>2026-05-02T13:41:31.994Z</time></trkpt><trkpt lat="44.2502734" lon="12.1783591"><ele>10.0</ele><time>2026-05-02T13:41:33.029Z</time></trkpt><trkpt lat="44.2499763" lon="12.1782501"><ele>11.5</ele><time>2026-05-02T13:41:33.995Z</time></trkpt><trkpt lat="44.2497007" lon="12.1781536"><ele>13.0</ele><time>2026-05-02T13:41:35.007Z</time></trkpt><trkpt lat="44.2494491" lon="12.1780729"><ele>13.0</ele><time>2026-05-02T13:41:36.006Z</time></trkpt><trkpt lat="44.2492141" lon="12.1779933"><ele>13.0</ele><time>2026-05-02T13:41:37.015Z</time></trkpt><trkpt lat="44.2489993" lon="12.1779224"><ele>12.333333333333332</ele><time>2026-05-02T13:41:38.003Z</time></trkpt><trkpt lat="44.2488039" lon="12.1778533"><ele>11.666666666666666</ele><time>2026-05-02T13:41:39.001Z</time></trkpt><trkpt lat="44.2486165" lon="12.177786"><ele>11.0</ele><time>2026-05-02T13:41:40.002Z</time></trkpt><trkpt lat="44.2484381" lon="12.1777221"><ele>11.0</ele><time>2026-05-02T13:41:41.007Z</time></trkpt><trkpt lat="44.2482574" lon="12.1776624"><ele>11.0</ele><time>2026-05-02T13:41:42.017Z</time></trkpt><trkpt lat="44.2480705" lon="12.1775959"><ele>11.0</ele><time>2026-05-02T13:41:43.012Z</time></trkpt><trkpt lat="44.2478749" lon="12.1775246"><ele>11.0</ele><time>2026-05-02T13:41:44.007Z</time></trkpt><trkpt lat="44.2476678" lon="12.1774512"><ele>11.0</ele><time>2026-05-02T13:41:45.003Z</time></trkpt><trkpt lat="44.2474514" lon="12.1773778"><ele>11.0</ele><time>2026-05-02T13:41:46.005Z</time></trkpt><trkpt lat="44.2472412" lon="12.1773019"><ele>11.0</ele><time>2026-05-02T13:41:47.015Z</time></trkpt><trkpt lat="44.2470461" lon="12.1772354"><ele>11.0</ele><time>2026-05-02T13:41:48.004Z</time></trkpt><trkpt lat="44.2468703" lon="12.1771682"><ele>11.0</ele><time>2026-05-02T13:41:49.013Z</time></trkpt><trkpt lat="44.2466981" lon="12.1771152"><ele>11.0</ele><time>2026-05-02T13:41:50.009Z</time></trkpt><trkpt lat="44.2465228" lon="12.1770834"><ele>11.0</ele><time>2026-05-02T13:41:51.005Z</time></trkpt><trkpt lat="44.2463387" lon="12.1770777"><ele>11.0</ele><time>2026-05-02T13:41:52.011Z</time></trkpt><trkpt lat="44.2461471" lon="12.1770822"><ele>11.0</ele><time>2026-05-02T13:41:53Z</time></trkpt><trkpt lat="44.2459545" lon="12.1770667"><ele>11.0</ele><time>2026-05-02T13:41:54.005Z</time></trkpt><trkpt lat="44.2457744" lon="12.1770204"><ele>11.0</ele><time>2026-05-02T13:41:55.012Z</time></trkpt><trkpt lat="44.2456197" lon="12.1769581"><ele>11.0</ele><time>2026-05-02T13:41:56.001Z</time></trkpt><trkpt lat="44.2454864" lon="12.1768914"><ele>11.0</ele><time>2026-05-02T13:41:56.997Z</time></trkpt><trkpt lat="44.2453541" lon="12.1768308"><ele>11.0</ele><time>2026-05-02T13:41:58.006Z</time></trkpt><trkpt lat="44.2452302" lon="12.1767668"><ele>11.0</ele><time>2026-05-02T13:41:59.011Z</time></trkpt><trkpt lat="44.2451131" lon="12.1766968"><ele>11.0</ele><time>2026-05-02T13:42:00.01Z</time></trkpt><trkpt lat="44.2450023" lon="12.1766218"><ele>11.0</ele><time>2026-05-02T13:42:00.998Z</time></trkpt><trkpt lat="44.2448966" lon="12.1765448"><ele>11.0</ele><time>2026-05-02T13:42:02.017Z</time></trkpt><trkpt lat="44.2447899" lon="12.1764695"><ele>11.0</ele><time>2026-05-02T13:42:02.999Z</time></trkpt><trkpt lat="44.2446746" lon="12.1764088"><ele>11.25</ele><time>2026-05-02T13:42:04.006Z</time></trkpt><trkpt lat="44.2445503" lon="12.1763574"><ele>11.5</ele><time>2026-05-02T13:42:05.001Z</time></trkpt><trkpt lat="44.244419" lon="12.1763142"><ele>11.75</ele><time>2026-05-02T13:42:06.006Z</time></trkpt><trkpt lat="44.2442893" lon="12.176269"><ele>12.0</ele><time>2026-05-02T13:42:07.005Z</time></trkpt><trkpt lat="44.2441548" lon="12.1762224"><ele>12.0</ele><time>2026-05-02T13:42:07.999Z</time></trkpt><trkpt lat="44.2440118" lon="12.1761722"><ele>12.0</ele><time>2026-05-02T13:42:08.999Z</time></trkpt><trkpt lat="44.2438651" lon="12.1761263"><ele>12.0</ele><time>2026-05-02T13:42:09.993Z</time></trkpt><trkpt lat="44.2437157" lon="12.1760758"><ele>11.75</ele><time>2026-05-02T13:42:11.003Z</time></trkpt><trkpt lat="44.2435719" lon="12.1760275"><ele>11.5</ele><time>2026-05-02T13:42:12.002Z</time></trkpt><trkpt lat="44.2434345" lon="12.1759856"><ele>11.25</ele><time>2026-05-02T13:42:13.019Z</time></trkpt><trkpt lat="44.2433036" lon="12.1759387"><ele>11.0</ele><time>2026-05-02T13:42:14.002Z</time></trkpt><trkpt lat="44.2431726" lon="12.1758941"><ele>11.0</ele><time>2026-05-02T13:42:14.994Z</time></trkpt><trkpt lat="44.243044" lon="12.175853"><ele>11.0</ele><time>2026-05-02T13:42:15.998Z</time></trkpt><trkpt lat="44.242922" lon="12.1758114"><ele>11.0</ele><time>2026-05-02T13:42:17.001Z</time></trkpt><trkpt lat="44.242808" lon="12.1757745"><ele>11.0</ele><time>2026-05-02T13:42:18.018Z</time></trkpt><trkpt lat="44.2427105" lon="12.1757364"><ele>11.0</ele><time>2026-05-02T13:42:19.014Z</time></trkpt><trkpt lat="44.2426356" lon="12.1757038"><ele>11.0</ele><time>2026-05-02T13:42:20.015Z</time></trkpt><trkpt lat="44.2425593" lon="12.1756683"><ele>11.0</ele><time>2026-05-02T13:42:22.004Z</time></trkpt><trkpt lat="44.2425165" lon="12.1755952"><ele>11.0</ele><time>2026-05-02T13:42:33.005Z</time></trkpt><trkpt lat="44.2425138" lon="12.1754831"><ele>11.0</ele><time>2026-05-02T13:42:34.004Z</time></trkpt><trkpt lat="44.2425228" lon="12.1753383"><ele>11.0</ele><time>2026-05-02T13:42:35.015Z</time></trkpt><trkpt lat="44.242551" lon="12.1751586"><ele>11.0</ele><time>2026-05-02T13:42:36.001Z</time></trkpt><trkpt lat="44.2425942" lon="12.1749469"><ele>11.0</ele><time>2026-05-02T13:42:37.001Z</time></trkpt><trkpt lat="44.242637" lon="12.1747197"><ele>11.0</ele><time>2026-05-02T13:42:38.012Z</time></trkpt><trkpt lat="44.2426802" lon="12.1744849"><ele>11.0</ele><time>2026-05-02T13:42:38.998Z</time></trkpt><trkpt lat="44.2427202" lon="12.1742425"><ele>11.0</ele><time>2026-05-02T13:42:40.015Z</time></trkpt><trkpt lat="44.2427625" lon="12.1739923"><ele>11.0</ele><time>2026-05-02T13:42:41.005Z</time></trkpt><trkpt lat="44.2428043" lon="12.1737396"><ele>11.333333333333332</ele><time>2026-05-02T13:42:42Z</time></trkpt><trkpt lat="44.2428461" lon="12.173474"><ele>11.666666666666666</ele><time>2026-05-02T13:42:43.01Z</time></trkpt><trkpt lat="44.2428905" lon="12.1732095"><ele>12.0</ele><time>2026-05-02T13:42:43.997Z</time></trkpt><trkpt lat="44.2429325" lon="12.1729482"><ele>12.0</ele><time>2026-05-02T13:42:45.006Z</time></trkpt><trkpt lat="44.2429741" lon="12.1726876"><ele>12.0</ele><time>2026-05-02T13:42:46.002Z</time></trkpt><trkpt lat="44.2430153" lon="12.17243"><ele>12.0</ele><time>2026-05-02T13:42:47.025Z</time></trkpt><trkpt lat="44.2430562" lon="12.1721829"><ele>12.0</ele><time>2026-05-02T13:42:48.006Z</time></trkpt><trkpt lat="44.2430991" lon="12.1719365"><ele>12.0</ele><time>2026-05-02T13:42:49.007Z</time></trkpt><trkpt lat="44.2431435" lon="12.1716986"><ele>12.0</ele><time>2026-05-02T13:42:50.003Z</time></trkpt><trkpt lat="44.243186" lon="12.17147"><ele>11.666666666666666</ele><time>2026-05-02T13:42:50.99Z</time></trkpt><trkpt lat="44.2432285" lon="12.1712449"><ele>11.333333333333332</ele><time>2026-05-02T13:42:52.007Z</time></trkpt><trkpt lat="44.2432717" lon="12.1710155"><ele>11.0</ele><time>2026-05-02T13:42:53.003Z</time></trkpt><trkpt lat="44.2433102" lon="12.1707906"><ele>11.333333333333332</ele><time>2026-05-02T13:42:54Z</time></trkpt><trkpt lat="44.2433431" lon="12.17056"><ele>11.666666666666666</ele><time>2026-05-02T13:42:55.014Z</time></trkpt><trkpt lat="44.243379" lon="12.1703315"><ele>12.0</ele><time>2026-05-02T13:42:56.003Z</time></trkpt><trkpt lat="44.2434112" lon="12.1701002"><ele>12.0</ele><time>2026-05-02T13:42:57.014Z</time></trkpt><trkpt lat="44.2434412" lon="12.1698652"><ele>12.0</ele><time>2026-05-02T13:42:58.007Z</time></trkpt><trkpt lat="44.243476" lon="12.1696327"><ele>12.0</ele><time>2026-05-02T13:42:59.004Z</time></trkpt><trkpt lat="44.2435197" lon="12.1694028"><ele>12.0</ele><time>2026-05-02T13:43:00Z</time></trkpt><trkpt lat="44.2435592" lon="12.1691743"><ele>12.0</ele><time>2026-05-02T13:43:00.993Z</time></trkpt><trkpt lat="44.2435911" lon="12.1689557"><ele>12.0</ele><time>2026-05-02T13:43:02.022Z</time></trkpt><trkpt lat="44.243622" lon="12.1687307"><ele>12.333333333333332</ele><time>2026-05-02T13:43:03.004Z</time></trkpt><trkpt lat="44.2436559" lon="12.1684961"><ele>12.666666666666666</ele><time>2026-05-02T13:43:04.002Z</time></trkpt><trkpt lat="44.2436917" lon="12.1682454"><ele>13.0</ele><time>2026-05-02T13:43:05Z</time></trkpt><trkpt lat="44.2437294" lon="12.1679845"><ele>13.0</ele><time>2026-05-02T13:43:06.007Z</time></trkpt><trkpt lat="44.2437656" lon="12.1677316"><ele>13.0</ele><time>2026-05-02T13:43:07.007Z</time></trkpt><trkpt lat="44.2437993" lon="12.1674821"><ele>13.0</ele><time>2026-05-02T13:43:07.994Z</time></trkpt><trkpt lat="44.2438398" lon="12.1672366"><ele>13.333333333333332</ele><time>2026-05-02T13:43:09.009Z</time></trkpt><trkpt lat="44.2438793" lon="12.1669933"><ele>13.666666666666668</ele><time>2026-05-02T13:43:10.004Z</time></trkpt><trkpt lat="44.2439175" lon="12.1667401"><ele>14.0</ele><time>2026-05-02T13:43:11.004Z</time></trkpt><trkpt lat="44.2439593" lon="12.1664791"><ele>13.666666666666668</ele><time>2026-05-02T13:43:12.006Z</time></trkpt><trkpt lat="44.2440033" lon="12.1662081"><ele>13.333333333333332</ele><time>2026-05-02T13:43:13.02Z</time></trkpt><trkpt lat="44.2440439" lon="12.1659421"><ele>13.0</ele><time>2026-05-02T13:43:14.007Z</time></trkpt><trkpt lat="44.2440867" lon="12.1656673"><ele>13.0</ele><time>2026-05-02T13:43:15.021Z</time></trkpt><trkpt lat="44.2441276" lon="12.1653939"><ele>13.0</ele><time>2026-05-02T13:43:16.004Z</time></trkpt><trkpt lat="44.2441696" lon="12.1651276"><ele>13.0</ele><time>2026-05-02T13:43:16.998Z</time></trkpt><trkpt lat="44.2442067" lon="12.1648793"><ele>13.0</ele><time>2026-05-02T13:43:18.005Z</time></trkpt><trkpt lat="44.2442439" lon="12.164637"><ele>13.0</ele><time>2026-05-02T13:43:18.999Z</time></trkpt><trkpt lat="44.2442785" lon="12.1643928"><ele>13.0</ele><time>2026-05-02T13:43:20.002Z</time></trkpt><trkpt lat="44.2443133" lon="12.1641667"><ele>12.75</ele><time>2026-05-02T13:43:20.993Z</time></trkpt><trkpt lat="44.2443488" lon="12.1639533"><ele>12.5</ele><time>2026-05-02T13:43:22.003Z</time></trkpt><trkpt lat="44.2443793" lon="12.1637511"><ele>12.25</ele><time>2026-05-02T13:43:23.002Z</time></trkpt><trkpt lat="44.2444085" lon="12.1635559"><ele>12.0</ele><time>2026-05-02T13:43:24.002Z</time></trkpt><trkpt lat="44.2444368" lon="12.1633682"><ele>12.333333333333332</ele><time>2026-05-02T13:43:25.01Z</time></trkpt><trkpt lat="44.2444634" lon="12.1631668"><ele>12.666666666666666</ele><time>2026-05-02T13:43:26.002Z</time></trkpt><trkpt lat="44.2444987" lon="12.1629317"><ele>13.0</ele><time>2026-05-02T13:43:26.991Z</time></trkpt><trkpt lat="44.2445306" lon="12.1627067"><ele>13.0</ele><time>2026-05-02T13:43:28.002Z</time></trkpt><trkpt lat="44.2445568" lon="12.162509"><ele>13.0</ele><time>2026-05-02T13:43:29Z</time></trkpt><trkpt lat="44.2445696" lon="12.1623376"><ele>13.0</ele><time>2026-05-02T13:43:29.996Z</time></trkpt><trkpt lat="44.2445659" lon="12.1621693"><ele>13.0</ele><time>2026-05-02T13:43:31.004Z</time></trkpt><trkpt lat="44.2445437" lon="12.1620023"><ele>13.0</ele><time>2026-05-02T13:43:32.004Z</time></trkpt><trkpt lat="44.2445017" lon="12.1618423"><ele>13.0</ele><time>2026-05-02T13:43:33.004Z</time></trkpt><trkpt lat="44.2444348" lon="12.1616829"><ele>13.0</ele><time>2026-05-02T13:43:34.008Z</time></trkpt><trkpt lat="44.2443444" lon="12.1615248"><ele>13.0</ele><time>2026-05-02T13:43:34.999Z</time></trkpt><trkpt lat="44.2442436" lon="12.1613737"><ele>13.0</ele><time>2026-05-02T13:43:36.004Z</time></trkpt><trkpt lat="44.2441341" lon="12.1612272"><ele>13.0</ele><time>2026-05-02T13:43:37.001Z</time></trkpt><trkpt lat="44.2440224" lon="12.1610806"><ele>13.0</ele><time>2026-05-02T13:43:37.995Z</time></trkpt><trkpt lat="44.2439103" lon="12.1609225"><ele>13.0</ele><time>2026-05-02T13:43:39.011Z</time></trkpt><trkpt lat="44.2437928" lon="12.1607641"><ele>13.0</ele><time>2026-05-02T13:43:40.001Z</time></trkpt><trkpt lat="44.2436706" lon="12.1606102"><ele>13.0</ele><time>2026-05-02T13:43:40.998Z</time></trkpt><trkpt lat="44.2435489" lon="12.1604504"><ele>13.0</ele><time>2026-05-02T13:43:41.999Z</time></trkpt><trkpt lat="44.2434275" lon="12.160294"><ele>13.0</ele><time>2026-05-02T13:43:43.023Z</time></trkpt><trkpt lat="44.2433085" lon="12.1601366"><ele>13.0</ele><time>2026-05-02T13:43:44.006Z</time></trkpt><trkpt lat="44.243189" lon="12.159986"><ele>13.333333333333332</ele><time>2026-05-02T13:43:45Z</time></trkpt><trkpt lat="44.2430693" lon="12.1598312"><ele>13.666666666666668</ele><time>2026-05-02T13:43:46.003Z</time></trkpt><trkpt lat="44.2429479" lon="12.1596696"><ele>14.0</ele><time>2026-05-02T13:43:46.988Z</time></trkpt><trkpt lat="44.2428237" lon="12.1595126"><ele>14.0</ele><time>2026-05-02T13:43:47.993Z</time></trkpt><trkpt lat="44.2426966" lon="12.1593462"><ele>14.0</ele><time>2026-05-02T13:43:48.999Z</time></trkpt><trkpt lat="44.2425675" lon="12.159177"><ele>14.0</ele><time>2026-05-02T13:43:50.01Z</time></trkpt><trkpt lat="44.2424348" lon="12.1590103"><ele>14.0</ele><time>2026-05-02T13:43:51Z</time></trkpt><trkpt lat="44.2423005" lon="12.1588432"><ele>14.0</ele><time>2026-05-02T13:43:52.007Z</time></trkpt><trkpt lat="44.2421672" lon="12.1586755"><ele>14.0</ele><time>2026-05-02T13:43:53.006Z</time></trkpt><trkpt lat="44.2420289" lon="12.1585122"><ele>14.0</ele><time>2026-05-02T13:43:54.002Z</time></trkpt><trkpt lat="44.2418919" lon="12.1583537"><ele>14.0</ele><time>2026-05-02T13:43:55.011Z</time></trkpt><trkpt lat="44.2417491" lon="12.1582045"><ele>14.0</ele><time>2026-05-02T13:43:56.006Z</time></trkpt><trkpt lat="44.2416093" lon="12.1580632"><ele>14.333333333333334</ele><time>2026-05-02T13:43:57.017Z</time></trkpt><trkpt lat="44.2414714" lon="12.1579347"><ele>14.666666666666668</ele><time>2026-05-02T13:43:58.008Z</time></trkpt><trkpt lat="44.2413366" lon="12.1578118"><ele>15.0</ele><time>2026-05-02T13:43:59.009Z</time></trkpt><trkpt lat="44.2412044" lon="12.1576972"><ele>15.0</ele><time>2026-05-02T13:43:59.999Z</time></trkpt><trkpt lat="44.2410779" lon="12.1575843"><ele>15.0</ele><time>2026-05-02T13:44:00.997Z</time></trkpt><trkpt lat="44.2409507" lon="12.1574797"><ele>15.0</ele><time>2026-05-02T13:44:01.998Z</time></trkpt><trkpt lat="44.2408257" lon="12.1573766"><ele>15.0</ele><time>2026-05-02T13:44:02.994Z</time></trkpt><trkpt lat="44.2407043" lon="12.1572852"><ele>15.0</ele><time>2026-05-02T13:44:04.01Z</time></trkpt><trkpt lat="44.2405835" lon="12.157199"><ele>15.0</ele><time>2026-05-02T13:44:05.001Z</time></trkpt><trkpt lat="44.2404598" lon="12.1571192"><ele>15.0</ele><time>2026-05-02T13:44:06.008Z</time></trkpt><trkpt lat="44.2403316" lon="12.1570448"><ele>15.0</ele><time>2026-05-02T13:44:07.005Z</time></trkpt><trkpt lat="44.240203" lon="12.1569735"><ele>15.0</ele><time>2026-05-02T13:44:08.006Z</time></trkpt><trkpt lat="44.24007" lon="12.1569048"><ele>15.0</ele><time>2026-05-02T13:44:09.005Z</time></trkpt><trkpt lat="44.2399361" lon="12.1568395"><ele>15.0</ele><time>2026-05-02T13:44:10.001Z</time></trkpt><trkpt lat="44.2398016" lon="12.1567708"><ele>15.0</ele><time>2026-05-02T13:44:11.004Z</time></trkpt><trkpt lat="44.2396614" lon="12.1567016"><ele>15.0</ele><time>2026-05-02T13:44:11.999Z</time></trkpt><trkpt lat="44.2395173" lon="12.156626"><ele>15.0</ele><time>2026-05-02T13:44:13.004Z</time></trkpt><trkpt lat="44.2393733" lon="12.1565504"><ele>15.0</ele><time>2026-05-02T13:44:14.003Z</time></trkpt><trkpt lat="44.2392274" lon="12.1564683"><ele>15.0</ele><time>2026-05-02T13:44:15.015Z</time></trkpt><trkpt lat="44.2390843" lon="12.1563767"><ele>15.0</ele><time>2026-05-02T13:44:16.004Z</time></trkpt><trkpt lat="44.2389467" lon="12.1562742"><ele>15.0</ele><time>2026-05-02T13:44:17.004Z</time></trkpt><trkpt lat="44.2388192" lon="12.1561665"><ele>15.0</ele><time>2026-05-02T13:44:18.002Z</time></trkpt><trkpt lat="44.238696" lon="12.156062"><ele>15.0</ele><time>2026-05-02T13:44:18.992Z</time></trkpt><trkpt lat="44.2385779" lon="12.1559589"><ele>15.0</ele><time>2026-05-02T13:44:20.032Z</time></trkpt><trkpt lat="44.2384687" lon="12.1558509"><ele>15.0</ele><time>2026-05-02T13:44:21.008Z</time></trkpt><trkpt lat="44.2383688" lon="12.1557319"><ele>15.25</ele><time>2026-05-02T13:44:22.007Z</time></trkpt><trkpt lat="44.2382855" lon="12.1556118"><ele>15.5</ele><time>2026-05-02T13:44:23Z</time></trkpt><trkpt lat="44.2382178" lon="12.1554761"><ele>15.75</ele><time>2026-05-02T13:44:24.002Z</time></trkpt><trkpt lat="44.2381672" lon="12.1553231"><ele>16.0</ele><time>2026-05-02T13:44:24.997Z</time></trkpt><trkpt lat="44.2381353" lon="12.1551611"><ele>16.0</ele><time>2026-05-02T13:44:26.021Z</time></trkpt><trkpt lat="44.2381169" lon="12.1549949"><ele>16.0</ele><time>2026-05-02T13:44:27.005Z</time></trkpt><trkpt lat="44.2381063" lon="12.1548214"><ele>16.0</ele><time>2026-05-02T13:44:28.011Z</time></trkpt><trkpt lat="44.2380959" lon="12.1546438"><ele>16.0</ele><time>2026-05-02T13:44:29.024Z</time></trkpt><trkpt lat="44.2380855" lon="12.1544645"><ele>16.0</ele><time>2026-05-02T13:44:29.998Z</time></trkpt><trkpt lat="44.2380739" lon="12.154272"><ele>16.0</ele><time>2026-05-02T13:44:31.006Z</time></trkpt><trkpt lat="44.2380672" lon="12.1540724"><ele>16.0</ele><time>2026-05-02T13:44:32.009Z</time></trkpt><trkpt lat="44.2380616" lon="12.1538694"><ele>16.0</ele><time>2026-05-02T13:44:33Z</time></trkpt><trkpt lat="44.2380524" lon="12.1536619"><ele>16.333333333333332</ele><time>2026-05-02T13:44:34.012Z</time></trkpt><trkpt lat="44.2380398" lon="12.1534463"><ele>16.666666666666668</ele><time>2026-05-02T13:44:35.009Z</time></trkpt><trkpt lat="44.2380286" lon="12.1532216"><ele>17.0</ele><time>2026-05-02T13:44:36.019Z</time></trkpt><trkpt lat="44.2380179" lon="12.1529967"><ele>17.0</ele><time>2026-05-02T13:44:37.007Z</time></trkpt><trkpt lat="44.2380125" lon="12.1527678"><ele>17.0</ele><time>2026-05-02T13:44:38.012Z</time></trkpt><trkpt lat="44.2380058" lon="12.1525387"><ele>17.0</ele><time>2026-05-02T13:44:39.009Z</time></trkpt><trkpt lat="44.2379977" lon="12.1523097"><ele>17.0</ele><time>2026-05-02T13:44:40.003Z</time></trkpt><trkpt lat="44.2379911" lon="12.1520778"><ele>17.0</ele><time>2026-05-02T13:44:41.007Z</time></trkpt><trkpt lat="44.2379798" lon="12.1518449"><ele>17.0</ele><time>2026-05-02T13:44:42.009Z</time></trkpt><trkpt lat="44.2379685" lon="12.1516134"><ele>16.666666666666668</ele><time>2026-05-02T13:44:42.995Z</time></trkpt><trkpt lat="44.2379604" lon="12.1513818"><ele>16.333333333333332</ele><time>2026-05-02T13:44:43.996Z</time></trkpt><trkpt lat="44.2379492" lon="12.1511456"><ele>16.0</ele><time>2026-05-02T13:44:45.007Z</time></trkpt><trkpt lat="44.2379375" lon="12.1509092"><ele>16.0</ele><time>2026-05-02T13:44:45.998Z</time></trkpt><trkpt lat="44.2379281" lon="12.1506761"><ele>16.0</ele><time>2026-05-02T13:44:47.003Z</time></trkpt><trkpt lat="44.2379217" lon="12.1504406"><ele>16.0</ele><time>2026-05-02T13:44:48.003Z</time></trkpt><trkpt lat="44.2379117" lon="12.1502008"><ele>16.0</ele><time>2026-05-02T13:44:49.002Z</time></trkpt><trkpt lat="44.2379014" lon="12.1499586"><ele>16.0</ele><time>2026-05-02T13:44:50.02Z</time></trkpt><trkpt lat="44.2378931" lon="12.1497152"><ele>16.0</ele><time>2026-05-02T13:44:50.99Z</time></trkpt><trkpt lat="44.2378814" lon="12.1494702"><ele>16.333333333333332</ele><time>2026-05-02T13:44:52.012Z</time></trkpt><trkpt lat="44.2378739" lon="12.1492229"><ele>16.666666666666668</ele><time>2026-05-02T13:44:53.023Z</time></trkpt><trkpt lat="44.2378641" lon="12.1489755"><ele>17.0</ele><time>2026-05-02T13:44:54.004Z</time></trkpt><trkpt lat="44.2378535" lon="12.1487262"><ele>16.333333333333336</ele><time>2026-05-02T13:44:55.008Z</time></trkpt><trkpt lat="44.2378435" lon="12.1484702"><ele>15.666666666666668</ele><time>2026-05-02T13:44:56.006Z</time></trkpt><trkpt lat="44.2378333" lon="12.1482171"><ele>15.0</ele><time>2026-05-02T13:44:56.996Z</time></trkpt><trkpt lat="44.23782" lon="12.1479574"><ele>14.666666666666668</ele><time>2026-05-02T13:44:58.002Z</time></trkpt><trkpt lat="44.2378093" lon="12.147696"><ele>14.333333333333334</ele><time>2026-05-02T13:44:58.99Z</time></trkpt><trkpt lat="44.2377988" lon="12.1474304"><ele>14.0</ele><time>2026-05-02T13:45:00.011Z</time></trkpt><trkpt lat="44.237792" lon="12.1471645"><ele>13.666666666666668</ele><time>2026-05-02T13:45:01Z</time></trkpt><trkpt lat="44.237781" lon="12.146901"><ele>13.333333333333332</ele><time>2026-05-02T13:45:01.999Z</time></trkpt><trkpt lat="44.2377698" lon="12.146638"><ele>13.0</ele><time>2026-05-02T13:45:03.006Z</time></trkpt><trkpt lat="44.2377581" lon="12.1463741"><ele>13.0</ele><time>2026-05-02T13:45:04.003Z</time></trkpt><trkpt lat="44.2377486" lon="12.1461087"><ele>13.0</ele><time>2026-05-02T13:45:05.023Z</time></trkpt><trkpt lat="44.2377407" lon="12.1458471"><ele>13.0</ele><time>2026-05-02T13:45:06.01Z</time></trkpt><trkpt lat="44.2377341" lon="12.145584"><ele>13.333333333333332</ele><time>2026-05-02T13:45:07.006Z</time></trkpt><trkpt lat="44.2377291" lon="12.1453292"><ele>13.666666666666668</ele><time>2026-05-02T13:45:08Z</time></trkpt><trkpt lat="44.2377227" lon="12.1450722"><ele>14.0</ele><time>2026-05-02T13:45:09.004Z</time></trkpt><trkpt lat="44.2377162" lon="12.1448097"><ele>14.333333333333334</ele><time>2026-05-02T13:45:09.998Z</time></trkpt><trkpt lat="44.2377105" lon="12.1445457"><ele>14.666666666666668</ele><time>2026-05-02T13:45:11.017Z</time></trkpt><trkpt lat="44.2377041" lon="12.1442791"><ele>15.0</ele><time>2026-05-02T13:45:12.004Z</time></trkpt><trkpt lat="44.2376981" lon="12.1440142"><ele>15.333333333333332</ele><time>2026-05-02T13:45:13Z</time></trkpt><trkpt lat="44.2376911" lon="12.1437478"><ele>15.666666666666666</ele><time>2026-05-02T13:45:14.004Z</time></trkpt><trkpt lat="44.2376799" lon="12.1434828"><ele>16.0</ele><time>2026-05-02T13:45:15.004Z</time></trkpt><trkpt lat="44.2376708" lon="12.1432179"><ele>15.666666666666666</ele><time>2026-05-02T13:45:16.018Z</time></trkpt><trkpt lat="44.2376657" lon="12.142953"><ele>15.333333333333332</ele><time>2026-05-02T13:45:17Z</time></trkpt><trkpt lat="44.2376583" lon="12.1426872"><ele>15.0</ele><time>2026-05-02T13:45:18.005Z</time></trkpt><trkpt lat="44.2376532" lon="12.1424238"><ele>15.0</ele><time>2026-05-02T13:45:19.004Z</time></trkpt><trkpt lat="44.2376451" lon="12.1421551"><ele>15.0</ele><time>2026-05-02T13:45:20.005Z</time></trkpt><trkpt lat="44.2376376" lon="12.1418899"><ele>15.0</ele><time>2026-05-02T13:45:21.01Z</time></trkpt><trkpt lat="44.2376296" lon="12.1416232"><ele>15.666666666666668</ele><time>2026-05-02T13:45:22.005Z</time></trkpt><trkpt lat="44.2376204" lon="12.1413575"><ele>16.333333333333336</ele><time>2026-05-02T13:45:23.002Z</time></trkpt><trkpt lat="44.2376114" lon="12.1410934"><ele>17.0</ele><time>2026-05-02T13:45:24.007Z</time></trkpt><trkpt lat="44.2376035" lon="12.1408277"><ele>17.0</ele><time>2026-05-02T13:45:25.003Z</time></trkpt><trkpt lat="44.2375934" lon="12.1405387"><ele>17.0</ele><time>2026-05-02T13:45:26.015Z</time></trkpt><trkpt lat="44.2375884" lon="12.1402293"><ele>17.0</ele><time>2026-05-02T13:45:27.003Z</time></trkpt><trkpt lat="44.2375781" lon="12.1399193"><ele>17.0</ele><time>2026-05-02T13:45:27.999Z</time></trkpt><trkpt lat="44.2375672" lon="12.1396004"><ele>17.0</ele><time>2026-05-02T13:45:29.003Z</time></trkpt><trkpt lat="44.2375598" lon="12.1392779"><ele>17.0</ele><time>2026-05-02T13:45:30.007Z</time></trkpt><trkpt lat="44.2375522" lon="12.1389412"><ele>17.0</ele><time>2026-05-02T13:45:31.01Z</time></trkpt><trkpt lat="44.2375434" lon="12.1385979"><ele>17.0</ele><time>2026-05-02T13:45:32.024Z</time></trkpt><trkpt lat="44.2375315" lon="12.1382588"><ele>17.0</ele><time>2026-05-02T13:45:33.008Z</time></trkpt><trkpt lat="44.23752" lon="12.137936"><ele>17.0</ele><time>2026-05-02T13:45:33.997Z</time></trkpt><trkpt lat="44.2375135" lon="12.137637"><ele>17.0</ele><time>2026-05-02T13:45:35.006Z</time></trkpt><trkpt lat="44.2375071" lon="12.1373364"><ele>17.0</ele><time>2026-05-02T13:45:35.998Z</time></trkpt><trkpt lat="44.2375006" lon="12.1370277"><ele>17.0</ele><time>2026-05-02T13:45:37.009Z</time></trkpt><trkpt lat="44.2374905" lon="12.1367119"><ele>17.0</ele><time>2026-05-02T13:45:38.015Z</time></trkpt><trkpt lat="44.2374766" lon="12.1363911"><ele>17.0</ele><time>2026-05-02T13:45:39.001Z</time></trkpt><trkpt lat="44.2374656" lon="12.136071"><ele>17.0</ele><time>2026-05-02T13:45:40.011Z</time></trkpt><trkpt lat="44.2374586" lon="12.1357596"><ele>16.333333333333336</ele><time>2026-05-02T13:45:41.007Z</time></trkpt><trkpt lat="44.2374526" lon="12.1354566"><ele>15.666666666666668</ele><time>2026-05-02T13:45:42Z</time></trkpt><trkpt lat="44.2374459" lon="12.1351731"><ele>15.0</ele><time>2026-05-02T13:45:43.004Z</time></trkpt><trkpt lat="44.2374404" lon="12.1348978"><ele>15.666666666666668</ele><time>2026-05-02T13:45:44.009Z</time></trkpt><trkpt lat="44.2374371" lon="12.1346284"><ele>16.333333333333336</ele><time>2026-05-02T13:45:45.013Z</time></trkpt><trkpt lat="44.2374289" lon="12.1343546"><ele>17.0</ele><time>2026-05-02T13:45:46.01Z</time></trkpt><trkpt lat="44.2374213" lon="12.1340734"><ele>17.666666666666668</ele><time>2026-05-02T13:45:46.995Z</time></trkpt><trkpt lat="44.2374142" lon="12.1337926"><ele>18.333333333333332</ele><time>2026-05-02T13:45:48.001Z</time></trkpt><trkpt lat="44.2374048" lon="12.133508"><ele>19.0</ele><time>2026-05-02T13:45:49.007Z</time></trkpt><trkpt lat="44.2374054" lon="12.1332371"><ele>19.333333333333332</ele><time>2026-05-02T13:45:49.988Z</time></trkpt><trkpt lat="44.2374046" lon="12.1329694"><ele>19.666666666666668</ele><time>2026-05-02T13:45:50.999Z</time></trkpt><trkpt lat="44.2373999" lon="12.1327046"><ele>20.0</ele><time>2026-05-02T13:45:51.994Z</time></trkpt><trkpt lat="44.2373871" lon="12.132434"><ele>19.333333333333336</ele><time>2026-05-02T13:45:53.009Z</time></trkpt><trkpt lat="44.2373733" lon="12.132168"><ele>18.666666666666668</ele><time>2026-05-02T13:45:54.001Z</time></trkpt><trkpt lat="44.2373641" lon="12.131893"><ele>18.0</ele><time>2026-05-02T13:45:55.021Z</time></trkpt><trkpt lat="44.237358" lon="12.131621"><ele>17.666666666666668</ele><time>2026-05-02T13:45:56.009Z</time></trkpt><trkpt lat="44.2373528" lon="12.1313444"><ele>17.333333333333336</ele><time>2026-05-02T13:45:56.998Z</time></trkpt><trkpt lat="44.2373453" lon="12.1310652"><ele>17.0</ele><time>2026-05-02T13:45:58.006Z</time></trkpt><trkpt lat="44.237337" lon="12.1307799"><ele>17.333333333333336</ele><time>2026-05-02T13:45:59.008Z</time></trkpt><trkpt lat="44.2373307" lon="12.1304936"><ele>17.666666666666668</ele><time>2026-05-02T13:46:00.004Z</time></trkpt><trkpt lat="44.2373239" lon="12.1302028"><ele>18.0</ele><time>2026-05-02T13:46:01.017Z</time></trkpt><trkpt lat="44.2373152" lon="12.1299103"><ele>18.333333333333332</ele><time>2026-05-02T13:46:02.006Z</time></trkpt><trkpt lat="44.2373086" lon="12.1296102"><ele>18.666666666666664</ele><time>2026-05-02T13:46:02.998Z</time></trkpt><trkpt lat="44.2373007" lon="12.1293003"><ele>19.0</ele><time>2026-05-02T13:46:04.004Z</time></trkpt><trkpt lat="44.2372917" lon="12.1289881"><ele>19.0</ele><time>2026-05-02T13:46:05.011Z</time></trkpt><trkpt lat="44.2372823" lon="12.1286811"><ele>19.0</ele><time>2026-05-02T13:46:06.014Z</time></trkpt><trkpt lat="44.2372737" lon="12.1283765"><ele>19.0</ele><time>2026-05-02T13:46:07.003Z</time></trkpt><trkpt lat="44.2372621" lon="12.1280729"><ele>19.0</ele><time>2026-05-02T13:46:07.997Z</time></trkpt><trkpt lat="44.2372513" lon="12.1277768"><ele>19.0</ele><time>2026-05-02T13:46:08.999Z</time></trkpt><trkpt lat="44.2372411" lon="12.127492"><ele>19.0</ele><time>2026-05-02T13:46:10.005Z</time></trkpt><trkpt lat="44.2372346" lon="12.1272267"><ele>19.0</ele><time>2026-05-02T13:46:11.006Z</time></trkpt><trkpt lat="44.2372274" lon="12.1269708"><ele>19.0</ele><time>2026-05-02T13:46:12.003Z</time></trkpt><trkpt lat="44.2372188" lon="12.1267205"><ele>19.0</ele><time>2026-05-02T13:46:12.994Z</time></trkpt><trkpt lat="44.2372044" lon="12.1264739"><ele>18.666666666666664</ele><time>2026-05-02T13:46:14.006Z</time></trkpt><trkpt lat="44.2371828" lon="12.1262333"><ele>18.333333333333332</ele><time>2026-05-02T13:46:15.007Z</time></trkpt><trkpt lat="44.237154" lon="12.1259924"><ele>18.0</ele><time>2026-05-02T13:46:16.02Z</time></trkpt><trkpt lat="44.2371155" lon="12.125757"><ele>18.333333333333332</ele><time>2026-05-02T13:46:17.001Z</time></trkpt><trkpt lat="44.2370722" lon="12.1255269"><ele>18.666666666666664</ele><time>2026-05-02T13:46:18.001Z</time></trkpt><trkpt lat="44.2370302" lon="12.125309"><ele>19.0</ele><time>2026-05-02T13:46:19.002Z</time></trkpt><trkpt lat="44.2369923" lon="12.1251026"><ele>19.0</ele><time>2026-05-02T13:46:20.004Z</time></trkpt><trkpt lat="44.2369601" lon="12.1249119"><ele>19.0</ele><time>2026-05-02T13:46:20.994Z</time></trkpt><trkpt lat="44.2369236" lon="12.1247315"><ele>19.0</ele><time>2026-05-02T13:46:22.018Z</time></trkpt><trkpt lat="44.2368915" lon="12.1245873"><ele>19.0</ele><time>2026-05-02T13:46:23.009Z</time></trkpt><trkpt lat="44.2368654" lon="12.1244688"><ele>19.0</ele><time>2026-05-02T13:46:23.999Z</time></trkpt><trkpt lat="44.236854" lon="12.1243605"><ele>19.0</ele><time>2026-05-02T13:46:24.997Z</time></trkpt><trkpt lat="44.2368554" lon="12.124258"><ele>19.0</ele><time>2026-05-02T13:46:25.996Z</time></trkpt><trkpt lat="44.2368709" lon="12.1241614"><ele>19.0</ele><time>2026-05-02T13:46:27.003Z</time></trkpt><trkpt lat="44.2368913" lon="12.1240666"><ele>19.0</ele><time>2026-05-02T13:46:28Z</time></trkpt><trkpt lat="44.2368986" lon="12.1239705"><ele>19.0</ele><time>2026-05-02T13:46:29.005Z</time></trkpt><trkpt lat="44.2368874" lon="12.1238796"><ele>19.0</ele><time>2026-05-02T13:46:30.007Z</time></trkpt><trkpt lat="44.2368614" lon="12.1237962"><ele>18.833333333333332</ele><time>2026-05-02T13:46:31.001Z</time></trkpt><trkpt lat="44.2368228" lon="12.1237232"><ele>18.666666666666664</ele><time>2026-05-02T13:46:31.999Z</time></trkpt><trkpt lat="44.2367896" lon="12.123648"><ele>18.5</ele><time>2026-05-02T13:46:33Z</time></trkpt><trkpt lat="44.2367721" lon="12.1235529"><ele>18.333333333333332</ele><time>2026-05-02T13:46:34.014Z</time></trkpt><trkpt lat="44.236779" lon="12.1234361"><ele>18.166666666666668</ele><time>2026-05-02T13:46:34.998Z</time></trkpt><trkpt lat="44.2368072" lon="12.1232998"><ele>18.0</ele><time>2026-05-02T13:46:36.01Z</time></trkpt><trkpt lat="44.2368507" lon="12.1231374"><ele>18.0</ele><time>2026-05-02T13:46:37.009Z</time></trkpt><trkpt lat="44.2369066" lon="12.1229402"><ele>18.0</ele><time>2026-05-02T13:46:38.011Z</time></trkpt><trkpt lat="44.2369685" lon="12.1227361"><ele>18.0</ele><time>2026-05-02T13:46:39.004Z</time></trkpt><trkpt lat="44.2370275" lon="12.1225421"><ele>18.25</ele><time>2026-05-02T13:46:40.001Z</time></trkpt><trkpt lat="44.2370856" lon="12.1223531"><ele>18.5</ele><time>2026-05-02T13:46:41.019Z</time></trkpt><trkpt lat="44.2371438" lon="12.1221662"><ele>18.75</ele><time>2026-05-02T13:46:42.008Z</time></trkpt><trkpt lat="44.2372009" lon="12.1219719"><ele>19.0</ele><time>2026-05-02T13:46:43.004Z</time></trkpt><trkpt lat="44.237254" lon="12.1217718"><ele>19.0</ele><time>2026-05-02T13:46:44.019Z</time></trkpt><trkpt lat="44.2372982" lon="12.1215721"><ele>19.0</ele><time>2026-05-02T13:46:45.019Z</time></trkpt><trkpt lat="44.2373346" lon="12.1213718"><ele>19.0</ele><time>2026-05-02T13:46:46.008Z</time></trkpt><trkpt lat="44.2373714" lon="12.1211771"><ele>19.0</ele><time>2026-05-02T13:46:47.003Z</time></trkpt><trkpt lat="44.2374066" lon="12.120988"><ele>18.75</ele><time>2026-05-02T13:46:48.023Z</time></trkpt><trkpt lat="44.2374423" lon="12.1207998"><ele>18.5</ele><time>2026-05-02T13:46:49.015Z</time></trkpt><trkpt lat="44.2374785" lon="12.1206072"><ele>18.25</ele><time>2026-05-02T13:46:50.007Z</time></trkpt><trkpt lat="44.2375145" lon="12.12041"><ele>18.0</ele><time>2026-05-02T13:46:51.002Z</time></trkpt><trkpt lat="44.2375529" lon="12.1202101"><ele>18.0</ele><time>2026-05-02T13:46:52.009Z</time></trkpt><trkpt lat="44.2375887" lon="12.1200097"><ele>18.0</ele><time>2026-05-02T13:46:53.007Z</time></trkpt><trkpt lat="44.2376268" lon="12.1198093"><ele>18.0</ele><time>2026-05-02T13:46:54.007Z</time></trkpt><trkpt lat="44.2376655" lon="12.1196054"><ele>18.0</ele><time>2026-05-02T13:46:55.028Z</time></trkpt><trkpt lat="44.2377055" lon="12.1194044"><ele>18.0</ele><time>2026-05-02T13:46:56.018Z</time></trkpt><trkpt lat="44.237741" lon="12.1191969"><ele>18.0</ele><time>2026-05-02T13:46:57.008Z</time></trkpt><trkpt lat="44.2377773" lon="12.1189873"><ele>18.0</ele><time>2026-05-02T13:46:58.034Z</time></trkpt><trkpt lat="44.2378142" lon="12.1187827"><ele>18.0</ele><time>2026-05-02T13:46:59.015Z</time></trkpt><trkpt lat="44.2378522" lon="12.1185907"><ele>18.0</ele><time>2026-05-02T13:47:00.001Z</time></trkpt><trkpt lat="44.2378911" lon="12.1184163"><ele>18.0</ele><time>2026-05-02T13:47:01.007Z</time></trkpt><trkpt lat="44.2379239" lon="12.1182424"><ele>18.0</ele><time>2026-05-02T13:47:01.997Z</time></trkpt><trkpt lat="44.2379532" lon="12.118083"><ele>18.0</ele><time>2026-05-02T13:47:03.011Z</time></trkpt><trkpt lat="44.2379796" lon="12.1179352"><ele>18.0</ele><time>2026-05-02T13:47:04.002Z</time></trkpt><trkpt lat="44.238005" lon="12.1177949"><ele>18.0</ele><time>2026-05-02T13:47:04.998Z</time></trkpt><trkpt lat="44.2380293" lon="12.1176595"><ele>18.0</ele><time>2026-05-02T13:47:06.007Z</time></trkpt><trkpt lat="44.2380486" lon="12.117539"><ele>18.0</ele><time>2026-05-02T13:47:07.007Z</time></trkpt><trkpt lat="44.2380678" lon="12.1174287"><ele>18.0</ele><time>2026-05-02T13:47:08.006Z</time></trkpt><trkpt lat="44.238085" lon="12.1173185"><ele>18.0</ele><time>2026-05-02T13:47:09.009Z</time></trkpt><trkpt lat="44.238107" lon="12.1171945"><ele>18.0</ele><time>2026-05-02T13:47:10.006Z</time></trkpt><trkpt lat="44.2381322" lon="12.1170587"><ele>18.0</ele><time>2026-05-02T13:47:11.01Z</time></trkpt><trkpt lat="44.2381613" lon="12.1169111"><ele>18.0</ele><time>2026-05-02T13:47:11.996Z</time></trkpt><trkpt lat="44.2381907" lon="12.1167582"><ele>18.0</ele><time>2026-05-02T13:47:13.003Z</time></trkpt><trkpt lat="44.2382188" lon="12.1166003"><ele>18.0</ele><time>2026-05-02T13:47:14.01Z</time></trkpt><trkpt lat="44.2382482" lon="12.1164372"><ele>18.0</ele><time>2026-05-02T13:47:15.006Z</time></trkpt><trkpt lat="44.2382798" lon="12.1162749"><ele>18.0</ele><time>2026-05-02T13:47:16.002Z</time></trkpt><trkpt lat="44.238312" lon="12.1161154"><ele>18.0</ele><time>2026-05-02T13:47:17.011Z</time></trkpt><trkpt lat="44.2383417" lon="12.1159609"><ele>18.0</ele><time>2026-05-02T13:47:18.009Z</time></trkpt><trkpt lat="44.2383682" lon="12.115811"><ele>18.0</ele><time>2026-05-02T13:47:19Z</time></trkpt><trkpt lat="44.2383971" lon="12.1156613"><ele>18.0</ele><time>2026-05-02T13:47:19.999Z</time></trkpt><trkpt lat="44.2384232" lon="12.1155028"><ele>17.8</ele><time>2026-05-02T13:47:21.004Z</time></trkpt><trkpt lat="44.2384492" lon="12.1153433"><ele>17.6</ele><time>2026-05-02T13:47:21.995Z</time></trkpt><trkpt lat="44.2384764" lon="12.1151893"><ele>17.4</ele><time>2026-05-02T13:47:23.01Z</time></trkpt><trkpt lat="44.2385036" lon="12.1150509"><ele>17.2</ele><time>2026-05-02T13:47:24.005Z</time></trkpt><trkpt lat="44.2385272" lon="12.1149175"><ele>17.0</ele><time>2026-05-02T13:47:24.997Z</time></trkpt><trkpt lat="44.2385556" lon="12.1147744"><ele>17.0</ele><time>2026-05-02T13:47:26.005Z</time></trkpt><trkpt lat="44.2385848" lon="12.1146316"><ele>17.0</ele><time>2026-05-02T13:47:27.002Z</time></trkpt><trkpt lat="44.2386151" lon="12.1144832"><ele>17.0</ele><time>2026-05-02T13:47:28.01Z</time></trkpt><trkpt lat="44.2386444" lon="12.1143249"><ele>17.0</ele><time>2026-05-02T13:47:29.013Z</time></trkpt><trkpt lat="44.2386735" lon="12.1141581"><ele>17.25</ele><time>2026-05-02T13:47:29.999Z</time></trkpt><trkpt lat="44.238707" lon="12.1139891"><ele>17.5</ele><time>2026-05-02T13:47:31.005Z</time></trkpt><trkpt lat="44.2387427" lon="12.1138138"><ele>17.75</ele><time>2026-05-02T13:47:32.006Z</time></trkpt><trkpt lat="44.2387778" lon="12.113643"><ele>18.0</ele><time>2026-05-02T13:47:32.999Z</time></trkpt><trkpt lat="44.2388067" lon="12.11347"><ele>18.0</ele><time>2026-05-02T13:47:34.002Z</time></trkpt><trkpt lat="44.2388359" lon="12.1132918"><ele>18.0</ele><time>2026-05-02T13:47:34.997Z</time></trkpt><trkpt lat="44.2388656" lon="12.113112"><ele>18.0</ele><time>2026-05-02T13:47:36.006Z</time></trkpt><trkpt lat="44.2389005" lon="12.1129355"><ele>18.0</ele><time>2026-05-02T13:47:37.016Z</time></trkpt><trkpt lat="44.2389351" lon="12.11275"><ele>18.0</ele><time>2026-05-02T13:47:38.005Z</time></trkpt><trkpt lat="44.2389718" lon="12.1125623"><ele>18.0</ele><time>2026-05-02T13:47:39.004Z</time></trkpt><trkpt lat="44.2390061" lon="12.1123746"><ele>18.0</ele><time>2026-05-02T13:47:40.014Z</time></trkpt><trkpt lat="44.2390418" lon="12.1121864"><ele>18.0</ele><time>2026-05-02T13:47:41.013Z</time></trkpt><trkpt lat="44.2390772" lon="12.1120027"><ele>17.75</ele><time>2026-05-02T13:47:42.004Z</time></trkpt><trkpt lat="44.2391109" lon="12.1118084"><ele>17.5</ele><time>2026-05-02T13:47:43.011Z</time></trkpt><trkpt lat="44.2391484" lon="12.1116123"><ele>17.25</ele><time>2026-05-02T13:47:44.003Z</time></trkpt><trkpt lat="44.2391824" lon="12.1114107"><ele>17.0</ele><time>2026-05-02T13:47:45.003Z</time></trkpt><trkpt lat="44.2392182" lon="12.111204"><ele>17.0</ele><time>2026-05-02T13:47:45.994Z</time></trkpt><trkpt lat="44.2392559" lon="12.1109874"><ele>17.0</ele><time>2026-05-02T13:47:47.002Z</time></trkpt><trkpt lat="44.2392997" lon="12.1107676"><ele>17.0</ele><time>2026-05-02T13:47:48.007Z</time></trkpt><trkpt lat="44.2393433" lon="12.1105418"><ele>17.0</ele><time>2026-05-02T13:47:48.998Z</time></trkpt><trkpt lat="44.2393867" lon="12.1103101"><ele>17.0</ele><time>2026-05-02T13:47:50.001Z</time></trkpt><trkpt lat="44.2394322" lon="12.1100709"><ele>17.0</ele><time>2026-05-02T13:47:51.004Z</time></trkpt><trkpt lat="44.2394756" lon="12.1098281"><ele>16.666666666666668</ele><time>2026-05-02T13:47:52.006Z</time></trkpt><trkpt lat="44.2395209" lon="12.1095858"><ele>16.333333333333332</ele><time>2026-05-02T13:47:52.989Z</time></trkpt><trkpt lat="44.2395687" lon="12.1093405"><ele>16.0</ele><time>2026-05-02T13:47:54.009Z</time></trkpt><trkpt lat="44.2396158" lon="12.1090918"><ele>16.666666666666664</ele><time>2026-05-02T13:47:55.008Z</time></trkpt><trkpt lat="44.2396636" lon="12.1088385"><ele>17.333333333333332</ele><time>2026-05-02T13:47:56.003Z</time></trkpt><trkpt lat="44.2397132" lon="12.1085792"><ele>18.0</ele><time>2026-05-02T13:47:57.003Z</time></trkpt><trkpt lat="44.239761" lon="12.1083207"><ele>17.666666666666668</ele><time>2026-05-02T13:47:58.004Z</time></trkpt><trkpt lat="44.2398079" lon="12.1080636"><ele>17.333333333333336</ele><time>2026-05-02T13:47:59.014Z</time></trkpt><trkpt lat="44.239851" lon="12.1078066"><ele>17.0</ele><time>2026-05-02T13:48:00.001Z</time></trkpt><trkpt lat="44.2398946" lon="12.1075517"><ele>17.333333333333336</ele><time>2026-05-02T13:48:01.005Z</time></trkpt><trkpt lat="44.2399403" lon="12.1073068"><ele>17.666666666666668</ele><time>2026-05-02T13:48:02.004Z</time></trkpt><trkpt lat="44.2399814" lon="12.1070702"><ele>18.0</ele><time>2026-05-02T13:48:03.001Z</time></trkpt><trkpt lat="44.2400263" lon="12.1068411"><ele>18.0</ele><time>2026-05-02T13:48:04.024Z</time></trkpt><trkpt lat="44.2400698" lon="12.1066127"><ele>18.0</ele><time>2026-05-02T13:48:05.002Z</time></trkpt><trkpt lat="44.2401138" lon="12.1063865"><ele>18.0</ele><time>2026-05-02T13:48:06.005Z</time></trkpt><trkpt lat="44.2401538" lon="12.1061609"><ele>18.0</ele><time>2026-05-02T13:48:07.001Z</time></trkpt><trkpt lat="44.240196" lon="12.1059361"><ele>18.0</ele><time>2026-05-02T13:48:08.004Z</time></trkpt><trkpt lat="44.2402386" lon="12.1057186"><ele>18.0</ele><time>2026-05-02T13:48:08.998Z</time></trkpt><trkpt lat="44.2402803" lon="12.1055039"><ele>18.0</ele><time>2026-05-02T13:48:10.004Z</time></trkpt><trkpt lat="44.2403189" lon="12.1052921"><ele>18.0</ele><time>2026-05-02T13:48:11.011Z</time></trkpt><trkpt lat="44.2403571" lon="12.105086"><ele>18.0</ele><time>2026-05-02T13:48:12.004Z</time></trkpt><trkpt lat="44.240393" lon="12.1048737"><ele>18.0</ele><time>2026-05-02T13:48:13.003Z</time></trkpt><trkpt lat="44.2404332" lon="12.1046613"><ele>18.0</ele><time>2026-05-02T13:48:14Z</time></trkpt><trkpt lat="44.2404736" lon="12.10445"><ele>18.0</ele><time>2026-05-02T13:48:15.001Z</time></trkpt><trkpt lat="44.2405144" lon="12.104239"><ele>18.0</ele><time>2026-05-02T13:48:15.997Z</time></trkpt><trkpt lat="44.2405541" lon="12.1040257"><ele>18.0</ele><time>2026-05-02T13:48:17.004Z</time></trkpt><trkpt lat="44.2405956" lon="12.1038066"><ele>18.0</ele><time>2026-05-02T13:48:18.002Z</time></trkpt><trkpt lat="44.2406374" lon="12.1035893"><ele>17.666666666666668</ele><time>2026-05-02T13:48:19.022Z</time></trkpt><trkpt lat="44.2406794" lon="12.1033723"><ele>17.333333333333336</ele><time>2026-05-02T13:48:20.015Z</time></trkpt><trkpt lat="44.240719" lon="12.103156"><ele>17.0</ele><time>2026-05-02T13:48:20.998Z</time></trkpt><trkpt lat="44.2407605" lon="12.1029374"><ele>17.0</ele><time>2026-05-02T13:48:22.003Z</time></trkpt><trkpt lat="44.2408026" lon="12.1027229"><ele>17.0</ele><time>2026-05-02T13:48:23.005Z</time></trkpt><trkpt lat="44.2408409" lon="12.1025073"><ele>17.0</ele><time>2026-05-02T13:48:24.005Z</time></trkpt><trkpt lat="44.2408761" lon="12.1022948"><ele>17.0</ele><time>2026-05-02T13:48:25.019Z</time></trkpt><trkpt lat="44.2409172" lon="12.1020805"><ele>17.0</ele><time>2026-05-02T13:48:26.005Z</time></trkpt><trkpt lat="44.2409572" lon="12.1018697"><ele>17.0</ele><time>2026-05-02T13:48:27.001Z</time></trkpt><trkpt lat="44.2409982" lon="12.1016603"><ele>17.0</ele><time>2026-05-02T13:48:28.006Z</time></trkpt><trkpt lat="44.2410381" lon="12.1014445"><ele>17.0</ele><time>2026-05-02T13:48:29.003Z</time></trkpt><trkpt lat="44.2410786" lon="12.101226"><ele>17.0</ele><time>2026-05-02T13:48:30.008Z</time></trkpt><trkpt lat="44.2411235" lon="12.1010065"><ele>17.0</ele><time>2026-05-02T13:48:31.012Z</time></trkpt><trkpt lat="44.2411666" lon="12.1007833"><ele>17.0</ele><time>2026-05-02T13:48:32.005Z</time></trkpt><trkpt lat="44.2412081" lon="12.1005617"><ele>17.0</ele><time>2026-05-02T13:48:32.997Z</time></trkpt><trkpt lat="44.2412524" lon="12.1003321"><ele>17.0</ele><time>2026-05-02T13:48:34.012Z</time></trkpt><trkpt lat="44.2412902" lon="12.1001068"><ele>17.0</ele><time>2026-05-02T13:48:35.004Z</time></trkpt><trkpt lat="44.2413314" lon="12.0998827"><ele>17.0</ele><time>2026-05-02T13:48:36.005Z</time></trkpt><trkpt lat="44.2413718" lon="12.0996589"><ele>17.0</ele><time>2026-05-02T13:48:36.995Z</time></trkpt><trkpt lat="44.2414119" lon="12.0994465"><ele>17.0</ele><time>2026-05-02T13:48:38.005Z</time></trkpt><trkpt lat="44.2414492" lon="12.0992403"><ele>17.0</ele><time>2026-05-02T13:48:38.997Z</time></trkpt><trkpt lat="44.2414864" lon="12.0990435"><ele>17.0</ele><time>2026-05-02T13:48:40.002Z</time></trkpt><trkpt lat="44.2415235" lon="12.0988525"><ele>17.0</ele><time>2026-05-02T13:48:41.01Z</time></trkpt><trkpt lat="44.241561" lon="12.0986668"><ele>17.0</ele><time>2026-05-02T13:48:42.004Z</time></trkpt><trkpt lat="44.2415971" lon="12.0984804"><ele>17.0</ele><time>2026-05-02T13:48:43.005Z</time></trkpt><trkpt lat="44.2416328" lon="12.0982932"><ele>17.0</ele><time>2026-05-02T13:48:43.995Z</time></trkpt><trkpt lat="44.2416707" lon="12.0980998"><ele>17.0</ele><time>2026-05-02T13:48:44.998Z</time></trkpt><trkpt lat="44.2417069" lon="12.0979041"><ele>17.0</ele><time>2026-05-02T13:48:46.009Z</time></trkpt><trkpt lat="44.2417418" lon="12.0977149"><ele>17.0</ele><time>2026-05-02T13:48:47.008Z</time></trkpt><trkpt lat="44.241777" lon="12.0975216"><ele>16.75</ele><time>2026-05-02T13:48:48.012Z</time></trkpt><trkpt lat="44.241811" lon="12.0973366"><ele>16.5</ele><time>2026-05-02T13:48:49.005Z</time></trkpt><trkpt lat="44.2418437" lon="12.0971579"><ele>16.25</ele><time>2026-05-02T13:48:50.014Z</time></trkpt><trkpt lat="44.2418728" lon="12.0969861"><ele>16.0</ele><time>2026-05-02T13:48:51.014Z</time></trkpt><trkpt lat="44.2419002" lon="12.0968153"><ele>16.0</ele><time>2026-05-02T13:48:52.001Z</time></trkpt><trkpt lat="44.2419243" lon="12.096652"><ele>16.0</ele><time>2026-05-02T13:48:53.003Z</time></trkpt><trkpt lat="44.241947" lon="12.0964913"><ele>16.0</ele><time>2026-05-02T13:48:54.005Z</time></trkpt><trkpt lat="44.2419681" lon="12.0963296"><ele>16.0</ele><time>2026-05-02T13:48:55.003Z</time></trkpt><trkpt lat="44.2419919" lon="12.0961646"><ele>15.25</ele><time>2026-05-02T13:48:55.999Z</time></trkpt><trkpt lat="44.2420118" lon="12.0959957"><ele>14.5</ele><time>2026-05-02T13:48:57.004Z</time></trkpt><trkpt lat="44.2420336" lon="12.095824"><ele>13.75</ele><time>2026-05-02T13:48:58.011Z</time></trkpt><trkpt lat="44.2420526" lon="12.0956473"><ele>13.0</ele><time>2026-05-02T13:48:59.003Z</time></trkpt><trkpt lat="44.2420686" lon="12.0954717"><ele>12.75</ele><time>2026-05-02T13:48:59.999Z</time></trkpt><trkpt lat="44.2420842" lon="12.0952991"><ele>12.5</ele><time>2026-05-02T13:49:01.004Z</time></trkpt><trkpt lat="44.2420983" lon="12.0951304"><ele>12.25</ele><time>2026-05-02T13:49:02.007Z</time></trkpt><trkpt lat="44.2421075" lon="12.0949617"><ele>12.0</ele><time>2026-05-02T13:49:03.004Z</time></trkpt><trkpt lat="44.242105" lon="12.0947961"><ele>13.0</ele><time>2026-05-02T13:49:04.023Z</time></trkpt><trkpt lat="44.2420877" lon="12.0946368"><ele>14.0</ele><time>2026-05-02T13:49:05.019Z</time></trkpt><trkpt lat="44.2420537" lon="12.0944798"><ele>15.0</ele><time>2026-05-02T13:49:06Z</time></trkpt><trkpt lat="44.2420124" lon="12.0943244"><ele>16.0</ele><time>2026-05-02T13:49:06.994Z</time></trkpt><trkpt lat="44.2419729" lon="12.094167"><ele>15.75</ele><time>2026-05-02T13:49:08.002Z</time></trkpt><trkpt lat="44.2419318" lon="12.0940027"><ele>15.5</ele><time>2026-05-02T13:49:09.002Z</time></trkpt><trkpt lat="44.2418917" lon="12.0938348"><ele>15.25</ele><time>2026-05-02T13:49:10.007Z</time></trkpt><trkpt lat="44.2418494" lon="12.0936597"><ele>15.0</ele><time>2026-05-02T13:49:11.009Z</time></trkpt><trkpt lat="44.241805" lon="12.0934858"><ele>15.0</ele><time>2026-05-02T13:49:12.005Z</time></trkpt><trkpt lat="44.241766" lon="12.093301"><ele>15.0</ele><time>2026-05-02T13:49:13.02Z</time></trkpt><trkpt lat="44.241734" lon="12.0931129"><ele>15.0</ele><time>2026-05-02T13:49:14.01Z</time></trkpt><trkpt lat="44.2417013" lon="12.0929196"><ele>15.0</ele><time>2026-05-02T13:49:15.011Z</time></trkpt><trkpt lat="44.2416719" lon="12.0927153"><ele>15.333333333333332</ele><time>2026-05-02T13:49:16.004Z</time></trkpt><trkpt lat="44.2416421" lon="12.0925051"><ele>15.666666666666666</ele><time>2026-05-02T13:49:17.004Z</time></trkpt><trkpt lat="44.2416098" lon="12.0922944"><ele>16.0</ele><time>2026-05-02T13:49:18.001Z</time></trkpt><trkpt lat="44.2415743" lon="12.0920784"><ele>16.0</ele><time>2026-05-02T13:49:19.001Z</time></trkpt><trkpt lat="44.2415368" lon="12.0918551"><ele>16.0</ele><time>2026-05-02T13:49:20Z</time></trkpt><trkpt lat="44.2414997" lon="12.0916338"><ele>16.0</ele><time>2026-05-02T13:49:21.012Z</time></trkpt><trkpt lat="44.2414656" lon="12.0914148"><ele>16.666666666666664</ele><time>2026-05-02T13:49:21.998Z</time></trkpt><trkpt lat="44.2414346" lon="12.0911978"><ele>17.333333333333332</ele><time>2026-05-02T13:49:23.015Z</time></trkpt><trkpt lat="44.2414051" lon="12.0909918"><ele>18.0</ele><time>2026-05-02T13:49:23.999Z</time></trkpt><trkpt lat="44.241373" lon="12.0907938"><ele>17.75</ele><time>2026-05-02T13:49:24.998Z</time></trkpt><trkpt lat="44.241342" lon="12.0905991"><ele>17.5</ele><time>2026-05-02T13:49:25.999Z</time></trkpt><trkpt lat="44.2413127" lon="12.0904146"><ele>17.25</ele><time>2026-05-02T13:49:27.003Z</time></trkpt><trkpt lat="44.241284" lon="12.0902331"><ele>17.0</ele><time>2026-05-02T13:49:28.008Z</time></trkpt><trkpt lat="44.2412567" lon="12.0900543"><ele>17.25</ele><time>2026-05-02T13:49:29.013Z</time></trkpt><trkpt lat="44.2412325" lon="12.0898845"><ele>17.5</ele><time>2026-05-02T13:49:30Z</time></trkpt><trkpt lat="44.2412085" lon="12.0897201"><ele>17.75</ele><time>2026-05-02T13:49:31.021Z</time></trkpt><trkpt lat="44.2411848" lon="12.0895652"><ele>18.0</ele><time>2026-05-02T13:49:31.998Z</time></trkpt><trkpt lat="44.2411613" lon="12.0894129"><ele>18.0</ele><time>2026-05-02T13:49:33.004Z</time></trkpt><trkpt lat="44.2411353" lon="12.0892613"><ele>18.0</ele><time>2026-05-02T13:49:34.006Z</time></trkpt><trkpt lat="44.2411095" lon="12.0891079"><ele>18.0</ele><time>2026-05-02T13:49:34.999Z</time></trkpt><trkpt lat="44.2410844" lon="12.0889724"><ele>18.0</ele><time>2026-05-02T13:49:36.002Z</time></trkpt><trkpt lat="44.2410645" lon="12.0888513"><ele>18.0</ele><time>2026-05-02T13:49:37.001Z</time></trkpt><trkpt lat="44.2410479" lon="12.0887391"><ele>17.857142857142858</ele><time>2026-05-02T13:49:38.021Z</time></trkpt><trkpt lat="44.2410336" lon="12.0886415"><ele>17.714285714285715</ele><time>2026-05-02T13:49:39.004Z</time></trkpt><trkpt lat="44.2410184" lon="12.0885489"><ele>17.57142857142857</ele><time>2026-05-02T13:49:40.003Z</time></trkpt><trkpt lat="44.2410048" lon="12.0884541"><ele>17.42857142857143</ele><time>2026-05-02T13:49:41.008Z</time></trkpt><trkpt lat="44.2409879" lon="12.0883523"><ele>17.285714285714285</ele><time>2026-05-02T13:49:42.003Z</time></trkpt><trkpt lat="44.2409703" lon="12.0882435"><ele>17.142857142857142</ele><time>2026-05-02T13:49:43.019Z</time></trkpt><trkpt lat="44.2409526" lon="12.0881279"><ele>17.0</ele><time>2026-05-02T13:49:44Z</time></trkpt><trkpt lat="44.2409321" lon="12.0880049"><ele>17.0</ele><time>2026-05-02T13:49:45.012Z</time></trkpt><trkpt lat="44.2409154" lon="12.0878769"><ele>17.0</ele><time>2026-05-02T13:49:46.002Z</time></trkpt><trkpt lat="44.2408958" lon="12.0877407"><ele>17.0</ele><time>2026-05-02T13:49:47.007Z</time></trkpt><trkpt lat="44.2408764" lon="12.0875937"><ele>17.0</ele><time>2026-05-02T13:49:48.022Z</time></trkpt><trkpt lat="44.2408594" lon="12.0874423"><ele>17.0</ele><time>2026-05-02T13:49:49.001Z</time></trkpt><trkpt lat="44.2408453" lon="12.087284"><ele>17.0</ele><time>2026-05-02T13:49:50.006Z</time></trkpt><trkpt lat="44.2408332" lon="12.0871282"><ele>17.0</ele><time>2026-05-02T13:49:51.006Z</time></trkpt><trkpt lat="44.2408218" lon="12.0869751"><ele>17.0</ele><time>2026-05-02T13:49:51.999Z</time></trkpt><trkpt lat="44.2408088" lon="12.0868325"><ele>17.0</ele><time>2026-05-02T13:49:53.007Z</time></trkpt><trkpt lat="44.2407991" lon="12.0867107"><ele>17.0</ele><time>2026-05-02T13:49:54.003Z</time></trkpt><trkpt lat="44.2407933" lon="12.0866044"><ele>17.0</ele><time>2026-05-02T13:49:54.999Z</time></trkpt><trkpt lat="44.2407957" lon="12.0865089"><ele>17.0</ele><time>2026-05-02T13:49:56.022Z</time></trkpt><trkpt lat="44.2408293" lon="12.0863336"><ele>17.0</ele><time>2026-05-02T13:49:58.002Z</time></trkpt><trkpt lat="44.2408635" lon="12.0862288"><ele>17.0</ele><time>2026-05-02T13:49:59.004Z</time></trkpt><trkpt lat="44.2408919" lon="12.0861134"><ele>17.0</ele><time>2026-05-02T13:50:00.008Z</time></trkpt><trkpt lat="44.2409091" lon="12.0859854"><ele>17.0</ele><time>2026-05-02T13:50:01.01Z</time></trkpt><trkpt lat="44.2408963" lon="12.0858535"><ele>17.0</ele><time>2026-05-02T13:50:02.008Z</time></trkpt><trkpt lat="44.2408527" lon="12.0857238"><ele>17.0</ele><time>2026-05-02T13:50:02.998Z</time></trkpt><trkpt lat="44.2407931" lon="12.0856212"><ele>17.0</ele><time>2026-05-02T13:50:04.007Z</time></trkpt><trkpt lat="44.2407231" lon="12.0855431"><ele>17.0</ele><time>2026-05-02T13:50:05.011Z</time></trkpt><trkpt lat="44.2406484" lon="12.0854764"><ele>17.2</ele><time>2026-05-02T13:50:06.011Z</time></trkpt><trkpt lat="44.2405881" lon="12.0854013"><ele>17.4</ele><time>2026-05-02T13:50:07.017Z</time></trkpt><trkpt lat="44.2405435" lon="12.0853043"><ele>17.6</ele><time>2026-05-02T13:50:08.004Z</time></trkpt><trkpt lat="44.2405137" lon="12.0851857"><ele>17.8</ele><time>2026-05-02T13:50:09.01Z</time></trkpt><trkpt lat="44.240488" lon="12.0850553"><ele>18.0</ele><time>2026-05-02T13:50:10.008Z</time></trkpt><trkpt lat="44.2404602" lon="12.0849198"><ele>18.0</ele><time>2026-05-02T13:50:11.005Z</time></trkpt><trkpt lat="44.2404342" lon="12.0847883"><ele>18.0</ele><time>2026-05-02T13:50:12.018Z</time></trkpt><trkpt lat="44.2404132" lon="12.0846519"><ele>18.0</ele><time>2026-05-02T13:50:13.007Z</time></trkpt><trkpt lat="44.2403875" lon="12.084504"><ele>18.0</ele><time>2026-05-02T13:50:13.998Z</time></trkpt><trkpt lat="44.2403664" lon="12.084348"><ele>18.0</ele><time>2026-05-02T13:50:15.009Z</time></trkpt><trkpt lat="44.2403426" lon="12.0841637"><ele>18.0</ele><time>2026-05-02T13:50:16.001Z</time></trkpt><trkpt lat="44.2403161" lon="12.0839666"><ele>18.0</ele><time>2026-05-02T13:50:16.992Z</time></trkpt><trkpt lat="44.2402859" lon="12.0837738"><ele>18.0</ele><time>2026-05-02T13:50:18.012Z</time></trkpt><trkpt lat="44.2402575" lon="12.0835866"><ele>18.0</ele><time>2026-05-02T13:50:19.004Z</time></trkpt><trkpt lat="44.2402294" lon="12.0833946"><ele>17.666666666666668</ele><time>2026-05-02T13:50:20.001Z</time></trkpt><trkpt lat="44.2401965" lon="12.0832007"><ele>17.333333333333336</ele><time>2026-05-02T13:50:20.997Z</time></trkpt><trkpt lat="44.240164" lon="12.0829798"><ele>17.0</ele><time>2026-05-02T13:50:22.004Z</time></trkpt><trkpt lat="44.2401297" lon="12.0827613"><ele>17.0</ele><time>2026-05-02T13:50:22.999Z</time></trkpt><trkpt lat="44.2400955" lon="12.0825538"><ele>17.0</ele><time>2026-05-02T13:50:24.009Z</time></trkpt><trkpt lat="44.2400634" lon="12.0823524"><ele>17.0</ele><time>2026-05-02T13:50:25.002Z</time></trkpt><trkpt lat="44.2400331" lon="12.0821647"><ele>17.0</ele><time>2026-05-02T13:50:26.003Z</time></trkpt><trkpt lat="44.2400023" lon="12.0819743"><ele>17.0</ele><time>2026-05-02T13:50:27.011Z</time></trkpt><trkpt lat="44.2399743" lon="12.0817753"><ele>17.0</ele><time>2026-05-02T13:50:27.995Z</time></trkpt><trkpt lat="44.239944" lon="12.0815696"><ele>17.0</ele><time>2026-05-02T13:50:29.005Z</time></trkpt><trkpt lat="44.2399128" lon="12.0813663"><ele>17.0</ele><time>2026-05-02T13:50:30.012Z</time></trkpt><trkpt lat="44.2398812" lon="12.081169"><ele>17.0</ele><time>2026-05-02T13:50:31.004Z</time></trkpt><trkpt lat="44.2398514" lon="12.0809792"><ele>17.0</ele><time>2026-05-02T13:50:32.011Z</time></trkpt><trkpt lat="44.2398205" lon="12.0807921"><ele>17.0</ele><time>2026-05-02T13:50:33.004Z</time></trkpt><trkpt lat="44.2397894" lon="12.0805982"><ele>17.0</ele><time>2026-05-02T13:50:34.003Z</time></trkpt><trkpt lat="44.2397566" lon="12.0804053"><ele>17.0</ele><time>2026-05-02T13:50:35.005Z</time></trkpt><trkpt lat="44.239723" lon="12.0802224"><ele>17.0</ele><time>2026-05-02T13:50:36.005Z</time></trkpt><trkpt lat="44.2396983" lon="12.0800605"><ele>17.0</ele><time>2026-05-02T13:50:37.001Z</time></trkpt><trkpt lat="44.2396741" lon="12.0799196"><ele>17.0</ele><time>2026-05-02T13:50:38.003Z</time></trkpt><trkpt lat="44.2396538" lon="12.0797986"><ele>17.0</ele><time>2026-05-02T13:50:39.01Z</time></trkpt><trkpt lat="44.2396372" lon="12.0796968"><ele>17.0</ele><time>2026-05-02T13:50:40.008Z</time></trkpt><trkpt lat="44.2396261" lon="12.0795684"><ele>17.0</ele><time>2026-05-02T13:50:42.005Z</time></trkpt><trkpt lat="44.2396093" lon="12.0794459"><ele>17.0</ele><time>2026-05-02T13:50:45.007Z</time></trkpt><trkpt lat="44.2395889" lon="12.0793527"><ele>17.0</ele><time>2026-05-02T13:50:47.017Z</time></trkpt><trkpt lat="44.2395643" lon="12.0792142"><ele>17.0</ele><time>2026-05-02T13:50:48.999Z</time></trkpt><trkpt lat="44.2395347" lon="12.0790341"><ele>17.0</ele><time>2026-05-02T13:50:51.003Z</time></trkpt><trkpt lat="44.2395143" lon="12.0789167"><ele>17.0</ele><time>2026-05-02T13:50:52.003Z</time></trkpt><trkpt lat="44.2394977" lon="12.078784"><ele>17.0</ele><time>2026-05-02T13:50:53.016Z</time></trkpt><trkpt lat="44.239477" lon="12.0786486"><ele>17.0</ele><time>2026-05-02T13:50:54.016Z</time></trkpt><trkpt lat="44.2394557" lon="12.0785102"><ele>17.0</ele><time>2026-05-02T13:50:55.011Z</time></trkpt><trkpt lat="44.2394357" lon="12.0783688"><ele>17.2</ele><time>2026-05-02T13:50:55.998Z</time></trkpt><trkpt lat="44.2394169" lon="12.0782355"><ele>17.4</ele><time>2026-05-02T13:50:57.006Z</time></trkpt><trkpt lat="44.2393995" lon="12.078112"><ele>17.6</ele><time>2026-05-02T13:50:58.002Z</time></trkpt><trkpt lat="44.2393798" lon="12.0779738"><ele>17.8</ele><time>2026-05-02T13:50:59.024Z</time></trkpt><trkpt lat="44.2393575" lon="12.0778264"><ele>18.0</ele><time>2026-05-02T13:50:59.996Z</time></trkpt><trkpt lat="44.2393357" lon="12.0776818"><ele>18.0</ele><time>2026-05-02T13:51:01.003Z</time></trkpt><trkpt lat="44.2393121" lon="12.0775308"><ele>18.0</ele><time>2026-05-02T13:51:01.994Z</time></trkpt><trkpt lat="44.2392884" lon="12.0773737"><ele>18.0</ele><time>2026-05-02T13:51:03.003Z</time></trkpt><trkpt lat="44.2392635" lon="12.0772161"><ele>18.0</ele><time>2026-05-02T13:51:04.01Z</time></trkpt><trkpt lat="44.2392378" lon="12.0770608"><ele>18.2</ele><time>2026-05-02T13:51:05.002Z</time></trkpt><trkpt lat="44.239211" lon="12.076907"><ele>18.4</ele><time>2026-05-02T13:51:06.007Z</time></trkpt><trkpt lat="44.2391856" lon="12.0767722"><ele>18.599999999999998</ele><time>2026-05-02T13:51:07.015Z</time></trkpt><trkpt lat="44.2391653" lon="12.0766463"><ele>18.8</ele><time>2026-05-02T13:51:08.005Z</time></trkpt><trkpt lat="44.2391462" lon="12.0765142"><ele>19.0</ele><time>2026-05-02T13:51:09.013Z</time></trkpt><trkpt lat="44.2391269" lon="12.0763791"><ele>19.0</ele><time>2026-05-02T13:51:10.005Z</time></trkpt><trkpt lat="44.239115" lon="12.0762401"><ele>19.0</ele><time>2026-05-02T13:51:11.02Z</time></trkpt><trkpt lat="44.2391063" lon="12.0761133"><ele>19.0</ele><time>2026-05-02T13:51:12.005Z</time></trkpt><trkpt lat="44.2391055" lon="12.0759946"><ele>19.0</ele><time>2026-05-02T13:51:13.014Z</time></trkpt><trkpt lat="44.2391058" lon="12.0758806"><ele>19.0</ele><time>2026-05-02T13:51:14.002Z</time></trkpt><trkpt lat="44.2391118" lon="12.0757784"><ele>19.0</ele><time>2026-05-02T13:51:15Z</time></trkpt><trkpt lat="44.2391315" lon="12.0756215"><ele>18.4</ele><time>2026-05-02T13:51:17.008Z</time></trkpt><trkpt lat="44.2391593" lon="12.0754992"><ele>17.799999999999997</ele><time>2026-05-02T13:51:19Z</time></trkpt><trkpt lat="44.2392183" lon="12.0753931"><ele>17.200000000000003</ele><time>2026-05-02T13:51:21.009Z</time></trkpt><trkpt lat="44.2393006" lon="12.0752825"><ele>16.6</ele><time>2026-05-02T13:51:23Z</time></trkpt><trkpt lat="44.2393493" lon="12.0751518"><ele>16.0</ele><time>2026-05-02T13:51:25.003Z</time></trkpt><trkpt lat="44.2393419" lon="12.075012"><ele>16.166666666666664</ele><time>2026-05-02T13:51:27.006Z</time></trkpt><trkpt lat="44.2392837" lon="12.0749086"><ele>16.333333333333332</ele><time>2026-05-02T13:51:29.013Z</time></trkpt><trkpt lat="44.2392322" lon="12.0748565"><ele>16.5</ele><time>2026-05-02T13:51:30.006Z</time></trkpt><trkpt lat="44.2391636" lon="12.0748019"><ele>16.666666666666668</ele><time>2026-05-02T13:51:31.003Z</time></trkpt><trkpt lat="44.2390883" lon="12.0747374"><ele>16.833333333333336</ele><time>2026-05-02T13:51:31.998Z</time></trkpt><trkpt lat="44.2390115" lon="12.0746552"><ele>17.0</ele><time>2026-05-02T13:51:33.005Z</time></trkpt><trkpt lat="44.238944" lon="12.0745764"><ele>17.0</ele><time>2026-05-02T13:51:34.003Z</time></trkpt><trkpt lat="44.2388892" lon="12.0744949"><ele>17.0</ele><time>2026-05-02T13:51:35Z</time></trkpt><trkpt lat="44.2388414" lon="12.0744165"><ele>17.0</ele><time>2026-05-02T13:51:36.015Z</time></trkpt><trkpt lat="44.2388036" lon="12.074343"><ele>17.0</ele><time>2026-05-02T13:51:37.025Z</time></trkpt><trkpt lat="44.2387382" lon="12.0742101"><ele>17.0</ele><time>2026-05-02T13:51:39.005Z</time></trkpt><trkpt lat="44.2386248" lon="12.0741358"><ele>17.0</ele><time>2026-05-02T13:51:40.999Z</time></trkpt><trkpt lat="44.23856" lon="12.0741415"><ele>17.0</ele><time>2026-05-02T13:51:42.008Z</time></trkpt><trkpt lat="44.2384955" lon="12.0741425"><ele>17.0</ele><time>2026-05-02T13:51:42.996Z</time></trkpt><trkpt lat="44.2384272" lon="12.0741365"><ele>17.0</ele><time>2026-05-02T13:51:43.999Z</time></trkpt><trkpt lat="44.2383576" lon="12.0740974"><ele>17.0</ele><time>2026-05-02T13:51:45.008Z</time></trkpt><trkpt lat="44.238272" lon="12.0740442"><ele>17.0</ele><time>2026-05-02T13:51:45.993Z</time></trkpt><trkpt lat="44.2381841" lon="12.0739808"><ele>17.4</ele><time>2026-05-02T13:51:46.994Z</time></trkpt><trkpt lat="44.2380958" lon="12.0739173"><ele>17.799999999999997</ele><time>2026-05-02T13:51:48.006Z</time></trkpt><trkpt lat="44.238013" lon="12.0738543"><ele>18.2</ele><time>2026-05-02T13:51:48.997Z</time></trkpt><trkpt lat="44.2379287" lon="12.0737879"><ele>18.599999999999998</ele><time>2026-05-02T13:51:49.999Z</time></trkpt><trkpt lat="44.2378415" lon="12.0737097"><ele>19.0</ele><time>2026-05-02T13:51:51.006Z</time></trkpt><trkpt lat="44.2377543" lon="12.0736352"><ele>19.0</ele><time>2026-05-02T13:51:52.003Z</time></trkpt><trkpt lat="44.237662" lon="12.0735607"><ele>19.0</ele><time>2026-05-02T13:51:53.002Z</time></trkpt><trkpt lat="44.2375667" lon="12.0734861"><ele>19.0</ele><time>2026-05-02T13:51:53.994Z</time></trkpt><trkpt lat="44.2374696" lon="12.0734056"><ele>19.0</ele><time>2026-05-02T13:51:54.997Z</time></trkpt><trkpt lat="44.2373647" lon="12.0733259"><ele>19.0</ele><time>2026-05-02T13:51:56.002Z</time></trkpt><trkpt lat="44.2372549" lon="12.0732383"><ele>19.5</ele><time>2026-05-02T13:51:57.004Z</time></trkpt><trkpt lat="44.2371438" lon="12.0731466"><ele>20.0</ele><time>2026-05-02T13:51:58.001Z</time></trkpt><trkpt lat="44.2370385" lon="12.0730606"><ele>20.5</ele><time>2026-05-02T13:51:58.995Z</time></trkpt><trkpt lat="44.2369319" lon="12.072973"><ele>21.0</ele><time>2026-05-02T13:52:00.006Z</time></trkpt><trkpt lat="44.2368224" lon="12.0728948"><ele>21.0</ele><time>2026-05-02T13:52:01.01Z</time></trkpt><trkpt lat="44.2367088" lon="12.0728117"><ele>21.0</ele><time>2026-05-02T13:52:02.002Z</time></trkpt><trkpt lat="44.2365942" lon="12.0727241"><ele>21.0</ele><time>2026-05-02T13:52:03.001Z</time></trkpt><trkpt lat="44.2364825" lon="12.0726304"><ele>21.0</ele><time>2026-05-02T13:52:04.006Z</time></trkpt><trkpt lat="44.2363697" lon="12.0725297"><ele>20.75</ele><time>2026-05-02T13:52:04.997Z</time></trkpt><trkpt lat="44.2362554" lon="12.0724387"><ele>20.5</ele><time>2026-05-02T13:52:05.999Z</time></trkpt><trkpt lat="44.2361404" lon="12.0723554"><ele>20.25</ele><time>2026-05-02T13:52:07.006Z</time></trkpt><trkpt lat="44.2360297" lon="12.0722665"><ele>20.0</ele><time>2026-05-02T13:52:08.008Z</time></trkpt><trkpt lat="44.2359202" lon="12.0721733"><ele>20.0</ele><time>2026-05-02T13:52:08.999Z</time></trkpt><trkpt lat="44.235813" lon="12.0720854"><ele>20.0</ele><time>2026-05-02T13:52:10.003Z</time></trkpt><trkpt lat="44.2357062" lon="12.0719944"><ele>20.0</ele><time>2026-05-02T13:52:10.999Z</time></trkpt><trkpt lat="44.2355966" lon="12.0719106"><ele>20.0</ele><time>2026-05-02T13:52:12.017Z</time></trkpt><trkpt lat="44.2354885" lon="12.0718259"><ele>20.25</ele><time>2026-05-02T13:52:12.99Z</time></trkpt><trkpt lat="44.2353853" lon="12.0717413"><ele>20.5</ele><time>2026-05-02T13:52:13.985Z</time></trkpt><trkpt lat="44.2352899" lon="12.0716557"><ele>20.75</ele><time>2026-05-02T13:52:15.01Z</time></trkpt><trkpt lat="44.2351939" lon="12.0715696"><ele>21.0</ele><time>2026-05-02T13:52:15.996Z</time></trkpt><trkpt lat="44.2350961" lon="12.0714868"><ele>21.200000000000003</ele><time>2026-05-02T13:52:17.016Z</time></trkpt><trkpt lat="44.2350066" lon="12.0714139"><ele>21.400000000000002</ele><time>2026-05-02T13:52:17.999Z</time></trkpt><trkpt lat="44.2349172" lon="12.0713431"><ele>21.6</ele><time>2026-05-02T13:52:19.004Z</time></trkpt><trkpt lat="44.2348283" lon="12.0712723"><ele>21.8</ele><time>2026-05-02T13:52:19.996Z</time></trkpt><trkpt lat="44.2347413" lon="12.0712088"><ele>22.0</ele><time>2026-05-02T13:52:20.994Z</time></trkpt><trkpt lat="44.2346568" lon="12.0711483"><ele>22.0</ele><time>2026-05-02T13:52:22Z</time></trkpt><trkpt lat="44.2345728" lon="12.0710865"><ele>22.0</ele><time>2026-05-02T13:52:23.004Z</time></trkpt><trkpt lat="44.2344869" lon="12.0710311"><ele>22.0</ele><time>2026-05-02T13:52:23.999Z</time></trkpt><trkpt lat="44.2344154" lon="12.0709726"><ele>22.0</ele><time>2026-05-02T13:52:25.001Z</time></trkpt><trkpt lat="44.2343455" lon="12.0709167"><ele>22.0</ele><time>2026-05-02T13:52:25.999Z</time></trkpt><trkpt lat="44.2342747" lon="12.0708627"><ele>22.0</ele><time>2026-05-02T13:52:26.996Z</time></trkpt><trkpt lat="44.2342184" lon="12.0708001"><ele>22.0</ele><time>2026-05-02T13:52:28.007Z</time></trkpt><trkpt lat="44.2341784" lon="12.070715"><ele>22.0</ele><time>2026-05-02T13:52:28.997Z</time></trkpt><trkpt lat="44.2341404" lon="12.0706256"><ele>22.0</ele><time>2026-05-02T13:52:30.007Z</time></trkpt><trkpt lat="44.2340883" lon="12.070554"><ele>22.0</ele><time>2026-05-02T13:52:31.007Z</time></trkpt><trkpt lat="44.2340235" lon="12.0705024"><ele>22.0</ele><time>2026-05-02T13:52:32.01Z</time></trkpt><trkpt lat="44.2339558" lon="12.0704794"><ele>22.0</ele><time>2026-05-02T13:52:33.009Z</time></trkpt><trkpt lat="44.2338803" lon="12.0704674"><ele>22.0</ele><time>2026-05-02T13:52:34.006Z</time></trkpt><trkpt lat="44.233798" lon="12.070449"><ele>21.8</ele><time>2026-05-02T13:52:35.008Z</time></trkpt><trkpt lat="44.2336969" lon="12.0703992"><ele>21.6</ele><time>2026-05-02T13:52:36Z</time></trkpt><trkpt lat="44.2335958" lon="12.0703298"><ele>21.400000000000002</ele><time>2026-05-02T13:52:37.014Z</time></trkpt><trkpt lat="44.2334963" lon="12.0702496"><ele>21.200000000000003</ele><time>2026-05-02T13:52:38.003Z</time></trkpt><trkpt lat="44.2333944" lon="12.0701797"><ele>21.0</ele><time>2026-05-02T13:52:39.002Z</time></trkpt><trkpt lat="44.2332912" lon="12.0701054"><ele>21.0</ele><time>2026-05-02T13:52:40.004Z</time></trkpt><trkpt lat="44.2331796" lon="12.0700241"><ele>21.0</ele><time>2026-05-02T13:52:40.996Z</time></trkpt><trkpt lat="44.2330617" lon="12.0699336"><ele>21.0</ele><time>2026-05-02T13:52:41.995Z</time></trkpt><trkpt lat="44.2329473" lon="12.0698401"><ele>21.0</ele><time>2026-05-02T13:52:43.008Z</time></trkpt><trkpt lat="44.2328363" lon="12.0697486"><ele>20.25</ele><time>2026-05-02T13:52:44.008Z</time></trkpt><trkpt lat="44.232724" lon="12.0696616"><ele>19.5</ele><time>2026-05-02T13:52:45.015Z</time></trkpt><trkpt lat="44.232612" lon="12.0695739"><ele>18.75</ele><time>2026-05-02T13:52:45.993Z</time></trkpt><trkpt lat="44.232498" lon="12.0694864"><ele>18.0</ele><time>2026-05-02T13:52:47.007Z</time></trkpt><trkpt lat="44.2323802" lon="12.0693961"><ele>19.0</ele><time>2026-05-02T13:52:48.006Z</time></trkpt><trkpt lat="44.2322669" lon="12.0693066"><ele>20.0</ele><time>2026-05-02T13:52:49.005Z</time></trkpt><trkpt lat="44.2321436" lon="12.0692107"><ele>21.0</ele><time>2026-05-02T13:52:49.998Z</time></trkpt><trkpt lat="44.2320195" lon="12.0691168"><ele>22.0</ele><time>2026-05-02T13:52:50.996Z</time></trkpt><trkpt lat="44.2319056" lon="12.0690225"><ele>22.0</ele><time>2026-05-02T13:52:51.997Z</time></trkpt><trkpt lat="44.2317952" lon="12.0689358"><ele>22.0</ele><time>2026-05-02T13:52:53.006Z</time></trkpt><trkpt lat="44.2316781" lon="12.0688543"><ele>22.0</ele><time>2026-05-02T13:52:54.007Z</time></trkpt><trkpt lat="44.2315638" lon="12.068766"><ele>22.0</ele><time>2026-05-02T13:52:55.019Z</time></trkpt><trkpt lat="44.2314483" lon="12.0686754"><ele>22.0</ele><time>2026-05-02T13:52:56.003Z</time></trkpt><trkpt lat="44.2313369" lon="12.0685913"><ele>22.0</ele><time>2026-05-02T13:52:57.006Z</time></trkpt><trkpt lat="44.2312323" lon="12.0685145"><ele>22.0</ele><time>2026-05-02T13:52:57.995Z</time></trkpt><trkpt lat="44.2311337" lon="12.0684369"><ele>22.0</ele><time>2026-05-02T13:52:58.997Z</time></trkpt><trkpt lat="44.2310349" lon="12.0683627"><ele>22.0</ele><time>2026-05-02T13:52:59.994Z</time></trkpt><trkpt lat="44.230942" lon="12.0682929"><ele>22.0</ele><time>2026-05-02T13:53:01.005Z</time></trkpt><trkpt lat="44.2308534" lon="12.0682228"><ele>22.0</ele><time>2026-05-02T13:53:02.005Z</time></trkpt><trkpt lat="44.2307679" lon="12.0681561"><ele>22.0</ele><time>2026-05-02T13:53:03.009Z</time></trkpt><trkpt lat="44.2306882" lon="12.0680937"><ele>22.0</ele><time>2026-05-02T13:53:04.002Z</time></trkpt><trkpt lat="44.2306183" lon="12.0680362"><ele>22.142857142857142</ele><time>2026-05-02T13:53:05.007Z</time></trkpt><trkpt lat="44.2305465" lon="12.0679928"><ele>22.285714285714285</ele><time>2026-05-02T13:53:05.998Z</time></trkpt><trkpt lat="44.2304792" lon="12.0679586"><ele>22.42857142857143</ele><time>2026-05-02T13:53:07.007Z</time></trkpt><trkpt lat="44.2304065" lon="12.0679429"><ele>22.57142857142857</ele><time>2026-05-02T13:53:07.998Z</time></trkpt><trkpt lat="44.2303333" lon="12.0679292"><ele>22.71428571428571</ele><time>2026-05-02T13:53:08.997Z</time></trkpt><trkpt lat="44.2302551" lon="12.0678973"><ele>22.857142857142858</ele><time>2026-05-02T13:53:10.001Z</time></trkpt><trkpt lat="44.2301909" lon="12.0678568"><ele>23.0</ele><time>2026-05-02T13:53:10.998Z</time></trkpt><trkpt lat="44.2301353" lon="12.0677976"><ele>23.0</ele><time>2026-05-02T13:53:12.022Z</time></trkpt><trkpt lat="44.23008" lon="12.0677439"><ele>23.0</ele><time>2026-05-02T13:53:13.003Z</time></trkpt><trkpt lat="44.2300121" lon="12.067697"><ele>23.0</ele><time>2026-05-02T13:53:14.01Z</time></trkpt><trkpt lat="44.2299365" lon="12.0676484"><ele>23.0</ele><time>2026-05-02T13:53:14.995Z</time></trkpt><trkpt lat="44.2298595" lon="12.0675766"><ele>23.0</ele><time>2026-05-02T13:53:16.007Z</time></trkpt><trkpt lat="44.2297865" lon="12.0674894"><ele>23.0</ele><time>2026-05-02T13:53:17.008Z</time></trkpt><trkpt lat="44.2297124" lon="12.0673944"><ele>22.799999999999997</ele><time>2026-05-02T13:53:18.01Z</time></trkpt><trkpt lat="44.2296254" lon="12.0673118"><ele>22.6</ele><time>2026-05-02T13:53:19.01Z</time></trkpt><trkpt lat="44.2295361" lon="12.0672431"><ele>22.4</ele><time>2026-05-02T13:53:20.011Z</time></trkpt><trkpt lat="44.2294507" lon="12.067174"><ele>22.200000000000003</ele><time>2026-05-02T13:53:20.997Z</time></trkpt><trkpt lat="44.2293716" lon="12.0671043"><ele>22.0</ele><time>2026-05-02T13:53:22.015Z</time></trkpt><trkpt lat="44.2292892" lon="12.0670372"><ele>22.0</ele><time>2026-05-02T13:53:23.008Z</time></trkpt><trkpt lat="44.2292104" lon="12.066975"><ele>22.0</ele><time>2026-05-02T13:53:24.005Z</time></trkpt><trkpt lat="44.2291242" lon="12.0669106"><ele>22.0</ele><time>2026-05-02T13:53:25.007Z</time></trkpt><trkpt lat="44.2290405" lon="12.0668487"><ele>22.0</ele><time>2026-05-02T13:53:25.998Z</time></trkpt><trkpt lat="44.2289609" lon="12.0667818"><ele>22.0</ele><time>2026-05-02T13:53:26.991Z</time></trkpt><trkpt lat="44.2288808" lon="12.0667216"><ele>22.0</ele><time>2026-05-02T13:53:28.003Z</time></trkpt><trkpt lat="44.2288023" lon="12.0666642"><ele>22.0</ele><time>2026-05-02T13:53:28.996Z</time></trkpt><trkpt lat="44.2287348" lon="12.0666098"><ele>22.0</ele><time>2026-05-02T13:53:30.018Z</time></trkpt><trkpt lat="44.2286693" lon="12.0665638"><ele>22.0</ele><time>2026-05-02T13:53:31.006Z</time></trkpt><trkpt lat="44.2286112" lon="12.0665062"><ele>22.0</ele><time>2026-05-02T13:53:32.008Z</time></trkpt><trkpt lat="44.2285093" lon="12.0664079"><ele>22.0</ele><time>2026-05-02T13:53:34.004Z</time></trkpt><trkpt lat="44.2284363" lon="12.0662978"><ele>22.0</ele><time>2026-05-02T13:53:36.019Z</time></trkpt><trkpt lat="44.2284106" lon="12.0661524"><ele>22.0</ele><time>2026-05-02T13:53:38.01Z</time></trkpt><trkpt lat="44.2284318" lon="12.0660569"><ele>22.0</ele><time>2026-05-02T13:53:38.997Z</time></trkpt><trkpt lat="44.2284666" lon="12.0659403"><ele>22.0</ele><time>2026-05-02T13:53:40.015Z</time></trkpt><trkpt lat="44.2285191" lon="12.0658021"><ele>22.0</ele><time>2026-05-02T13:53:40.996Z</time></trkpt><trkpt lat="44.2285882" lon="12.0656354"><ele>22.333333333333332</ele><time>2026-05-02T13:53:42.006Z</time></trkpt><trkpt lat="44.2286585" lon="12.0654515"><ele>22.666666666666668</ele><time>2026-05-02T13:53:43.001Z</time></trkpt><trkpt lat="44.2287352" lon="12.0652563"><ele>23.0</ele><time>2026-05-02T13:53:44.001Z</time></trkpt><trkpt lat="44.2288206" lon="12.0650536"><ele>23.0</ele><time>2026-05-02T13:53:45.013Z</time></trkpt><trkpt lat="44.2289058" lon="12.064846"><ele>23.0</ele><time>2026-05-02T13:53:46.017Z</time></trkpt><trkpt lat="44.228993" lon="12.0646261"><ele>23.0</ele><time>2026-05-02T13:53:47.011Z</time></trkpt><trkpt lat="44.2290817" lon="12.0644082"><ele>23.333333333333336</ele><time>2026-05-02T13:53:48.002Z</time></trkpt><trkpt lat="44.229167" lon="12.0642052"><ele>23.666666666666668</ele><time>2026-05-02T13:53:48.983Z</time></trkpt><trkpt lat="44.2292458" lon="12.064016"><ele>24.0</ele><time>2026-05-02T13:53:50.004Z</time></trkpt><trkpt lat="44.2293127" lon="12.0638404"><ele>24.25</ele><time>2026-05-02T13:53:51.005Z</time></trkpt><trkpt lat="44.2293781" lon="12.063677"><ele>24.5</ele><time>2026-05-02T13:53:51.998Z</time></trkpt><trkpt lat="44.2294374" lon="12.0635339"><ele>24.75</ele><time>2026-05-02T13:53:52.996Z</time></trkpt><trkpt lat="44.229495" lon="12.0633881"><ele>25.0</ele><time>2026-05-02T13:53:54.012Z</time></trkpt><trkpt lat="44.2295515" lon="12.0632334"><ele>24.333333333333336</ele><time>2026-05-02T13:53:55.007Z</time></trkpt><trkpt lat="44.2296128" lon="12.063055"><ele>23.666666666666668</ele><time>2026-05-02T13:53:56.005Z</time></trkpt><trkpt lat="44.2296834" lon="12.0628505"><ele>23.0</ele><time>2026-05-02T13:53:57.006Z</time></trkpt><trkpt lat="44.229762" lon="12.0626368"><ele>22.666666666666668</ele><time>2026-05-02T13:53:58.005Z</time></trkpt><trkpt lat="44.2298416" lon="12.0624036"><ele>22.333333333333332</ele><time>2026-05-02T13:53:59.017Z</time></trkpt><trkpt lat="44.2299263" lon="12.0621565"><ele>22.0</ele><time>2026-05-02T13:54:00.002Z</time></trkpt><trkpt lat="44.2300143" lon="12.0618943"><ele>22.0</ele><time>2026-05-02T13:54:01.002Z</time></trkpt><trkpt lat="44.2301038" lon="12.0616402"><ele>22.0</ele><time>2026-05-02T13:54:02.007Z</time></trkpt><trkpt lat="44.2301936" lon="12.0613951"><ele>22.0</ele><time>2026-05-02T13:54:03.004Z</time></trkpt><trkpt lat="44.2302822" lon="12.0611635"><ele>22.0</ele><time>2026-05-02T13:54:04.011Z</time></trkpt><trkpt lat="44.2303703" lon="12.060933"><ele>22.0</ele><time>2026-05-02T13:54:05.003Z</time></trkpt><trkpt lat="44.2304553" lon="12.0606914"><ele>22.0</ele><time>2026-05-02T13:54:05.992Z</time></trkpt><trkpt lat="44.2305318" lon="12.0604661"><ele>22.333333333333332</ele><time>2026-05-02T13:54:06.995Z</time></trkpt><trkpt lat="44.2306082" lon="12.0602604"><ele>22.666666666666668</ele><time>2026-05-02T13:54:07.992Z</time></trkpt><trkpt lat="44.2306807" lon="12.060071"><ele>23.0</ele><time>2026-05-02T13:54:09.01Z</time></trkpt><trkpt lat="44.2307484" lon="12.0598978"><ele>23.75</ele><time>2026-05-02T13:54:10.001Z</time></trkpt><trkpt lat="44.2308073" lon="12.0597335"><ele>24.5</ele><time>2026-05-02T13:54:11.009Z</time></trkpt><trkpt lat="44.2308632" lon="12.0595792"><ele>25.25</ele><time>2026-05-02T13:54:12.003Z</time></trkpt><trkpt lat="44.2309119" lon="12.0594395"><ele>26.0</ele><time>2026-05-02T13:54:13.012Z</time></trkpt><trkpt lat="44.230958" lon="12.0593103"><ele>25.999999999999996</ele><time>2026-05-02T13:54:14.001Z</time></trkpt><trkpt lat="44.2309965" lon="12.0592099"><ele>26.0</ele><time>2026-05-02T13:54:14.998Z</time></trkpt><trkpt lat="44.2310253" lon="12.0591188"><ele>26.0</ele><time>2026-05-02T13:54:16.011Z</time></trkpt><trkpt lat="44.2310644" lon="12.0589705"><ele>26.0</ele><time>2026-05-02T13:54:18.007Z</time></trkpt><trkpt lat="44.231086" lon="12.0588837"><ele>25.999999999999996</ele><time>2026-05-02T13:54:20.003Z</time></trkpt><trkpt lat="44.2311212" lon="12.0587952"><ele>26.0</ele><time>2026-05-02T13:54:23.004Z</time></trkpt><trkpt lat="44.2311671" lon="12.0586817"><ele>25.499999999999996</ele><time>2026-05-02T13:54:25.005Z</time></trkpt><trkpt lat="44.2312411" lon="12.0585645"><ele>25.0</ele><time>2026-05-02T13:54:27.016Z</time></trkpt><trkpt lat="44.2312903" lon="12.0584938"><ele>24.5</ele><time>2026-05-02T13:54:28.011Z</time></trkpt><trkpt lat="44.2313278" lon="12.0583932"><ele>24.0</ele><time>2026-05-02T13:54:29.023Z</time></trkpt><trkpt lat="44.2313497" lon="12.0582814"><ele>23.5</ele><time>2026-05-02T13:54:30.006Z</time></trkpt><trkpt lat="44.2313547" lon="12.0581504"><ele>23.0</ele><time>2026-05-02T13:54:30.997Z</time></trkpt><trkpt lat="44.2313531" lon="12.0580138"><ele>23.0</ele><time>2026-05-02T13:54:32.016Z</time></trkpt><trkpt lat="44.2313745" lon="12.0578653"><ele>23.0</ele><time>2026-05-02T13:54:33.003Z</time></trkpt><trkpt lat="44.2314256" lon="12.0577053"><ele>23.0</ele><time>2026-05-02T13:54:34.028Z</time></trkpt><trkpt lat="44.2315002" lon="12.0575273"><ele>23.0</ele><time>2026-05-02T13:54:35.005Z</time></trkpt><trkpt lat="44.2315839" lon="12.0573275"><ele>23.0</ele><time>2026-05-02T13:54:36.009Z</time></trkpt><trkpt lat="44.2316662" lon="12.0571019"><ele>23.0</ele><time>2026-05-02T13:54:37.006Z</time></trkpt><trkpt lat="44.2317474" lon="12.0568692"><ele>23.0</ele><time>2026-05-02T13:54:38.003Z</time></trkpt><trkpt lat="44.2318261" lon="12.0566511"><ele>22.75</ele><time>2026-05-02T13:54:38.999Z</time></trkpt><trkpt lat="44.2318976" lon="12.0564594"><ele>22.5</ele><time>2026-05-02T13:54:40.002Z</time></trkpt><trkpt lat="44.2319699" lon="12.0562956"><ele>22.25</ele><time>2026-05-02T13:54:41.005Z</time></trkpt><trkpt lat="44.232039" lon="12.0561445"><ele>22.0</ele><time>2026-05-02T13:54:42.008Z</time></trkpt><trkpt lat="44.2321057" lon="12.0559899"><ele>22.0</ele><time>2026-05-02T13:54:43.002Z</time></trkpt><trkpt lat="44.2321818" lon="12.0558176"><ele>22.0</ele><time>2026-05-02T13:54:44.002Z</time></trkpt><trkpt lat="44.232264" lon="12.0556244"><ele>22.0</ele><time>2026-05-02T13:54:45.002Z</time></trkpt><trkpt lat="44.2323523" lon="12.0554272"><ele>22.333333333333332</ele><time>2026-05-02T13:54:45.999Z</time></trkpt><trkpt lat="44.2324495" lon="12.0552183"><ele>22.666666666666668</ele><time>2026-05-02T13:54:47.009Z</time></trkpt><trkpt lat="44.2325556" lon="12.054994"><ele>23.0</ele><time>2026-05-02T13:54:48.007Z</time></trkpt><trkpt lat="44.2326785" lon="12.054722"><ele>23.0</ele><time>2026-05-02T13:54:49.005Z</time></trkpt><trkpt lat="44.232824" lon="12.0544311"><ele>23.0</ele><time>2026-05-02T13:54:50.004Z</time></trkpt><trkpt lat="44.2329857" lon="12.0541116"><ele>24.5</ele><time>2026-05-02T13:54:51Z</time></trkpt><trkpt lat="44.2331674" lon="12.0537658"><ele>26.0</ele><time>2026-05-02T13:54:52.009Z</time></trkpt><trkpt lat="44.233361" lon="12.0533985"><ele>25.5</ele><time>2026-05-02T13:54:53.004Z</time></trkpt><trkpt lat="44.2335478" lon="12.0530361"><ele>25.0</ele><time>2026-05-02T13:54:54.008Z</time></trkpt><trkpt lat="44.2337229" lon="12.0526981"><ele>25.5</ele><time>2026-05-02T13:54:55.014Z</time></trkpt><trkpt lat="44.2338972" lon="12.0523662"><ele>26.0</ele><time>2026-05-02T13:54:56.003Z</time></trkpt><trkpt lat="44.234069" lon="12.0520333"><ele>26.0</ele><time>2026-05-02T13:54:57.012Z</time></trkpt><trkpt lat="44.2342393" lon="12.0517005"><ele>26.0</ele><time>2026-05-02T13:54:58.007Z</time></trkpt><trkpt lat="44.2344057" lon="12.0513836"><ele>26.0</ele><time>2026-05-02T13:54:59Z</time></trkpt><trkpt lat="44.2345554" lon="12.0510881"><ele>26.0</ele><time>2026-05-02T13:55:00.005Z</time></trkpt><trkpt lat="44.234694" lon="12.0508118"><ele>25.0</ele><time>2026-05-02T13:55:01.001Z</time></trkpt><trkpt lat="44.2348246" lon="12.0505391"><ele>24.0</ele><time>2026-05-02T13:55:02.015Z</time></trkpt><trkpt lat="44.2349469" lon="12.0502744"><ele>24.0</ele><time>2026-05-02T13:55:03.013Z</time></trkpt><trkpt lat="44.2350648" lon="12.0499987"><ele>24.0</ele><time>2026-05-02T13:55:04.008Z</time></trkpt><trkpt lat="44.2351732" lon="12.0497181"><ele>24.5</ele><time>2026-05-02T13:55:05.015Z</time></trkpt><trkpt lat="44.2352715" lon="12.0494243"><ele>25.0</ele><time>2026-05-02T13:55:06.008Z</time></trkpt><trkpt lat="44.2353735" lon="12.0491064"><ele>25.5</ele><time>2026-05-02T13:55:07.008Z</time></trkpt><trkpt lat="44.2354824" lon="12.0487665"><ele>26.0</ele><time>2026-05-02T13:55:08.006Z</time></trkpt><trkpt lat="44.2355987" lon="12.0483939"><ele>27.0</ele><time>2026-05-02T13:55:09.005Z</time></trkpt><trkpt lat="44.2357101" lon="12.0480019"><ele>28.0</ele><time>2026-05-02T13:55:09.998Z</time></trkpt><trkpt lat="44.2358113" lon="12.0476043"><ele>27.0</ele><time>2026-05-02T13:55:11.02Z</time></trkpt><trkpt lat="44.2358997" lon="12.0471996"><ele>26.0</ele><time>2026-05-02T13:55:12.003Z</time></trkpt><trkpt lat="44.2359779" lon="12.0467956"><ele>26.0</ele><time>2026-05-02T13:55:13.007Z</time></trkpt><trkpt lat="44.2360479" lon="12.046384"><ele>26.0</ele><time>2026-05-02T13:55:13.999Z</time></trkpt><trkpt lat="44.2361067" lon="12.0459661"><ele>25.0</ele><time>2026-05-02T13:55:15.011Z</time></trkpt><trkpt lat="44.2361582" lon="12.0455402"><ele>24.0</ele><time>2026-05-02T13:55:16.021Z</time></trkpt><trkpt lat="44.2362015" lon="12.0451093"><ele>24.0</ele><time>2026-05-02T13:55:17.015Z</time></trkpt><trkpt lat="44.2362321" lon="12.0446861"><ele>24.0</ele><time>2026-05-02T13:55:18.008Z</time></trkpt><trkpt lat="44.2362546" lon="12.0442741"><ele>24.0</ele><time>2026-05-02T13:55:19.016Z</time></trkpt><trkpt lat="44.2362629" lon="12.0438602"><ele>24.0</ele><time>2026-05-02T13:55:19.997Z</time></trkpt><trkpt lat="44.2362592" lon="12.0434556"><ele>24.5</ele><time>2026-05-02T13:55:21.013Z</time></trkpt><trkpt lat="44.2362487" lon="12.0430583"><ele>25.0</ele><time>2026-05-02T13:55:22.014Z</time></trkpt><trkpt lat="44.2362272" lon="12.0426639"><ele>24.5</ele><time>2026-05-02T13:55:23.006Z</time></trkpt><trkpt lat="44.2361989" lon="12.0422688"><ele>24.0</ele><time>2026-05-02T13:55:24.009Z</time></trkpt><trkpt lat="44.236159" lon="12.0418777"><ele>23.5</ele><time>2026-05-02T13:55:25.015Z</time></trkpt><trkpt lat="44.2361136" lon="12.0414866"><ele>23.0</ele><time>2026-05-02T13:55:26.004Z</time></trkpt><trkpt lat="44.2360624" lon="12.0410915"><ele>24.0</ele><time>2026-05-02T13:55:27.005Z</time></trkpt><trkpt lat="44.2360128" lon="12.0406941"><ele>25.0</ele><time>2026-05-02T13:55:28.002Z</time></trkpt><trkpt lat="44.2359658" lon="12.0402912"><ele>24.5</ele><time>2026-05-02T13:55:29.016Z</time></trkpt><trkpt lat="44.2359204" lon="12.0398884"><ele>24.0</ele><time>2026-05-02T13:55:30.019Z</time></trkpt><trkpt lat="44.2358748" lon="12.0394768"><ele>23.5</ele><time>2026-05-02T13:55:30.99Z</time></trkpt><trkpt lat="44.2358335" lon="12.0390698"><ele>23.0</ele><time>2026-05-02T13:55:32.006Z</time></trkpt><trkpt lat="44.2358003" lon="12.0386783"><ele>24.0</ele><time>2026-05-02T13:55:33.012Z</time></trkpt><trkpt lat="44.2357856" lon="12.0382922"><ele>25.0</ele><time>2026-05-02T13:55:34Z</time></trkpt><trkpt lat="44.2357819" lon="12.037908"><ele>25.0</ele><time>2026-05-02T13:55:35.012Z</time></trkpt><trkpt lat="44.2357916" lon="12.0375214"><ele>25.0</ele><time>2026-05-02T13:55:36.001Z</time></trkpt><trkpt lat="44.2358193" lon="12.0371243"><ele>25.5</ele><time>2026-05-02T13:55:37.018Z</time></trkpt><trkpt lat="44.2358545" lon="12.0367057"><ele>26.0</ele><time>2026-05-02T13:55:38.003Z</time></trkpt><trkpt lat="44.2359041" lon="12.0362706"><ele>26.0</ele><time>2026-05-02T13:55:39.002Z</time></trkpt><trkpt lat="44.2359604" lon="12.0358073"><ele>26.0</ele><time>2026-05-02T13:55:40.012Z</time></trkpt><trkpt lat="44.2360224" lon="12.0353367"><ele>26.5</ele><time>2026-05-02T13:55:41.009Z</time></trkpt><trkpt lat="44.2360839" lon="12.0348516"><ele>27.0</ele><time>2026-05-02T13:55:42.008Z</time></trkpt><trkpt lat="44.2361417" lon="12.03437"><ele>26.5</ele><time>2026-05-02T13:55:43.015Z</time></trkpt><trkpt lat="44.2362038" lon="12.0339179"><ele>26.0</ele><time>2026-05-02T13:55:44.001Z</time></trkpt><trkpt lat="44.236258" lon="12.0334782"><ele>25.0</ele><time>2026-05-02T13:55:45.002Z</time></trkpt><trkpt lat="44.236304" lon="12.03308"><ele>24.0</ele><time>2026-05-02T13:55:46.007Z</time></trkpt><trkpt lat="44.2363465" lon="12.0327097"><ele>24.5</ele><time>2026-05-02T13:55:47.008Z</time></trkpt><trkpt lat="44.2363785" lon="12.0323564"><ele>25.0</ele><time>2026-05-02T13:55:48.009Z</time></trkpt><trkpt lat="44.2364038" lon="12.0320011"><ele>25.0</ele><time>2026-05-02T13:55:49.016Z</time></trkpt><trkpt lat="44.2364145" lon="12.0316327"><ele>25.0</ele><time>2026-05-02T13:55:50.008Z</time></trkpt><trkpt lat="44.2364127" lon="12.0312531"><ele>25.0</ele><time>2026-05-02T13:55:51.01Z</time></trkpt><trkpt lat="44.2363999" lon="12.0308604"><ele>25.0</ele><time>2026-05-02T13:55:52.01Z</time></trkpt><trkpt lat="44.2363703" lon="12.0304564"><ele>26.0</ele><time>2026-05-02T13:55:53.007Z</time></trkpt><trkpt lat="44.2363237" lon="12.0300485"><ele>27.0</ele><time>2026-05-02T13:55:54.004Z</time></trkpt><trkpt lat="44.2362591" lon="12.02964"><ele>27.0</ele><time>2026-05-02T13:55:55.005Z</time></trkpt><trkpt lat="44.2361886" lon="12.02923"><ele>27.0</ele><time>2026-05-02T13:55:56.007Z</time></trkpt><trkpt lat="44.2361129" lon="12.0288166"><ele>27.0</ele><time>2026-05-02T13:55:56.998Z</time></trkpt><trkpt lat="44.2360348" lon="12.0284007"><ele>27.0</ele><time>2026-05-02T13:55:58.005Z</time></trkpt><trkpt lat="44.2359517" lon="12.0279768"><ele>26.5</ele><time>2026-05-02T13:55:59.007Z</time></trkpt><trkpt lat="44.2358743" lon="12.0275338"><ele>26.0</ele><time>2026-05-02T13:56:00.014Z</time></trkpt><trkpt lat="44.2357897" lon="12.0270759"><ele>25.5</ele><time>2026-05-02T13:56:01.007Z</time></trkpt><trkpt lat="44.2357058" lon="12.0266087"><ele>25.0</ele><time>2026-05-02T13:56:02.005Z</time></trkpt><trkpt lat="44.235612" lon="12.0261284"><ele>25.0</ele><time>2026-05-02T13:56:03.006Z</time></trkpt><trkpt lat="44.2355208" lon="12.0256647"><ele>25.0</ele><time>2026-05-02T13:56:04.011Z</time></trkpt><trkpt lat="44.2354294" lon="12.0252145"><ele>25.0</ele><time>2026-05-02T13:56:05.009Z</time></trkpt><trkpt lat="44.2353436" lon="12.0247689"><ele>25.0</ele><time>2026-05-02T13:56:06.007Z</time></trkpt><trkpt lat="44.2352646" lon="12.0243437"><ele>24.5</ele><time>2026-05-02T13:56:07.01Z</time></trkpt><trkpt lat="44.2351893" lon="12.0239413"><ele>24.0</ele><time>2026-05-02T13:56:08.006Z</time></trkpt><trkpt lat="44.2351142" lon="12.0235599"><ele>23.5</ele><time>2026-05-02T13:56:09.001Z</time></trkpt><trkpt lat="44.2350487" lon="12.0231911"><ele>23.0</ele><time>2026-05-02T13:56:10.012Z</time></trkpt><trkpt lat="44.2349846" lon="12.0228338"><ele>23.0</ele><time>2026-05-02T13:56:11.012Z</time></trkpt><trkpt lat="44.2349203" lon="12.0224825"><ele>23.0</ele><time>2026-05-02T13:56:12.007Z</time></trkpt><trkpt lat="44.2348548" lon="12.0221378"><ele>24.5</ele><time>2026-05-02T13:56:13.004Z</time></trkpt><trkpt lat="44.2347906" lon="12.0217932"><ele>26.0</ele><time>2026-05-02T13:56:14.006Z</time></trkpt><trkpt lat="44.2347275" lon="12.0214453"><ele>26.0</ele><time>2026-05-02T13:56:15.006Z</time></trkpt><trkpt lat="44.234664" lon="12.0210942"><ele>26.0</ele><time>2026-05-02T13:56:16.01Z</time></trkpt><trkpt lat="44.2346034" lon="12.0207479"><ele>26.0</ele><time>2026-05-02T13:56:17.01Z</time></trkpt><trkpt lat="44.2345563" lon="12.0204102"><ele>26.0</ele><time>2026-05-02T13:56:18.005Z</time></trkpt><trkpt lat="44.2345226" lon="12.0200657"><ele>25.5</ele><time>2026-05-02T13:56:19.006Z</time></trkpt><trkpt lat="44.234499" lon="12.0197066"><ele>25.0</ele><time>2026-05-02T13:56:20.005Z</time></trkpt><trkpt lat="44.2344861" lon="12.0193344"><ele>25.0</ele><time>2026-05-02T13:56:21Z</time></trkpt><trkpt lat="44.2344869" lon="12.0189541"><ele>25.0</ele><time>2026-05-02T13:56:22.018Z</time></trkpt><trkpt lat="44.2345008" lon="12.0185959"><ele>24.0</ele><time>2026-05-02T13:56:23.006Z</time></trkpt><trkpt lat="44.2345261" lon="12.0182614"><ele>23.0</ele><time>2026-05-02T13:56:24.011Z</time></trkpt><trkpt lat="44.2345638" lon="12.017941"><ele>23.0</ele><time>2026-05-02T13:56:25.01Z</time></trkpt><trkpt lat="44.2346121" lon="12.0176141"><ele>23.0</ele><time>2026-05-02T13:56:26.011Z</time></trkpt><trkpt lat="44.2346699" lon="12.0172805"><ele>24.0</ele><time>2026-05-02T13:56:27.013Z</time></trkpt><trkpt lat="44.2347418" lon="12.0169417"><ele>25.0</ele><time>2026-05-02T13:56:28.003Z</time></trkpt><trkpt lat="44.23483" lon="12.0165915"><ele>25.5</ele><time>2026-05-02T13:56:29.008Z</time></trkpt><trkpt lat="44.2349354" lon="12.0162302"><ele>26.0</ele><time>2026-05-02T13:56:30.001Z</time></trkpt><trkpt lat="44.2350609" lon="12.0158593"><ele>25.5</ele><time>2026-05-02T13:56:31.005Z</time></trkpt><trkpt lat="44.2352026" lon="12.0154841"><ele>25.0</ele><time>2026-05-02T13:56:32.003Z</time></trkpt><trkpt lat="44.2353522" lon="12.0151138"><ele>25.0</ele><time>2026-05-02T13:56:33.01Z</time></trkpt><trkpt lat="44.2355075" lon="12.0147496"><ele>25.0</ele><time>2026-05-02T13:56:34.009Z</time></trkpt><trkpt lat="44.2356728" lon="12.0143832"><ele>25.0</ele><time>2026-05-02T13:56:34.999Z</time></trkpt><trkpt lat="44.2358533" lon="12.014002"><ele>25.0</ele><time>2026-05-02T13:56:36.013Z</time></trkpt><trkpt lat="44.2360429" lon="12.0136067"><ele>25.0</ele><time>2026-05-02T13:56:37.003Z</time></trkpt><trkpt lat="44.2362392" lon="12.0131981"><ele>25.0</ele><time>2026-05-02T13:56:38.006Z</time></trkpt><trkpt lat="44.2364317" lon="12.0128048"><ele>24.0</ele><time>2026-05-02T13:56:39.008Z</time></trkpt><trkpt lat="44.2366119" lon="12.0124404"><ele>23.0</ele><time>2026-05-02T13:56:40.007Z</time></trkpt><trkpt lat="44.2367848" lon="12.0120885"><ele>23.0</ele><time>2026-05-02T13:56:40.999Z</time></trkpt><trkpt lat="44.2369572" lon="12.0117311"><ele>23.0</ele><time>2026-05-02T13:56:42.019Z</time></trkpt><trkpt lat="44.2371248" lon="12.0113783"><ele>23.5</ele><time>2026-05-02T13:56:43.022Z</time></trkpt><trkpt lat="44.2372842" lon="12.0110425"><ele>24.0</ele><time>2026-05-02T13:56:44.015Z</time></trkpt><trkpt lat="44.2374351" lon="12.0107288"><ele>24.0</ele><time>2026-05-02T13:56:45.008Z</time></trkpt><trkpt lat="44.2375765" lon="12.0104327"><ele>24.0</ele><time>2026-05-02T13:56:46.021Z</time></trkpt><trkpt lat="44.2377112" lon="12.0101441"><ele>24.0</ele><time>2026-05-02T13:56:47.009Z</time></trkpt><trkpt lat="44.2378423" lon="12.0098337"><ele>24.0</ele><time>2026-05-02T13:56:48.019Z</time></trkpt><trkpt lat="44.2379649" lon="12.0095021"><ele>24.0</ele><time>2026-05-02T13:56:49.004Z</time></trkpt><trkpt lat="44.2380825" lon="12.0091453"><ele>24.0</ele><time>2026-05-02T13:56:50.006Z</time></trkpt><trkpt lat="44.2381925" lon="12.0087745"><ele>24.0</ele><time>2026-05-02T13:56:51.003Z</time></trkpt><trkpt lat="44.2382898" lon="12.0083929"><ele>24.0</ele><time>2026-05-02T13:56:52.016Z</time></trkpt><trkpt lat="44.2383679" lon="12.0080333"><ele>24.0</ele><time>2026-05-02T13:56:53.001Z</time></trkpt><trkpt lat="44.2384201" lon="12.007687"><ele>24.0</ele><time>2026-05-02T13:56:54.009Z</time></trkpt><trkpt lat="44.2384622" lon="12.0073365"><ele>24.0</ele><time>2026-05-02T13:56:55.005Z</time></trkpt><trkpt lat="44.2384887" lon="12.006976"><ele>24.0</ele><time>2026-05-02T13:56:56.006Z</time></trkpt><trkpt lat="44.2385112" lon="12.0065927"><ele>24.5</ele><time>2026-05-02T13:56:57.013Z</time></trkpt><trkpt lat="44.2385292" lon="12.0061811"><ele>25.0</ele><time>2026-05-02T13:56:58.003Z</time></trkpt><trkpt lat="44.2385416" lon="12.0057215"><ele>24.0</ele><time>2026-05-02T13:56:59.011Z</time></trkpt><trkpt lat="44.2385609" lon="12.0052533"><ele>23.0</ele><time>2026-05-02T13:57:00.019Z</time></trkpt><trkpt lat="44.2385744" lon="12.0047753"><ele>23.0</ele><time>2026-05-02T13:57:01.003Z</time></trkpt><trkpt lat="44.23859" lon="12.004307"><ele>23.0</ele><time>2026-05-02T13:57:02Z</time></trkpt><trkpt lat="44.2386075" lon="12.0038724"><ele>23.0</ele><time>2026-05-02T13:57:03.006Z</time></trkpt><trkpt lat="44.2386148" lon="12.0034762"><ele>23.0</ele><time>2026-05-02T13:57:04.031Z</time></trkpt><trkpt lat="44.2386194" lon="12.0031029"><ele>23.5</ele><time>2026-05-02T13:57:05.028Z</time></trkpt><trkpt lat="44.2386338" lon="12.0027402"><ele>24.0</ele><time>2026-05-02T13:57:06.009Z</time></trkpt><trkpt lat="44.238644" lon="12.0024018"><ele>24.333333333333336</ele><time>2026-05-02T13:57:07.033Z</time></trkpt><trkpt lat="44.2386519" lon="12.0020943"><ele>24.666666666666668</ele><time>2026-05-02T13:57:08.009Z</time></trkpt><trkpt lat="44.2386619" lon="12.0018089"><ele>25.0</ele><time>2026-05-02T13:57:09.003Z</time></trkpt><trkpt lat="44.2386685" lon="12.0015523"><ele>25.0</ele><time>2026-05-02T13:57:10.025Z</time></trkpt><trkpt lat="44.2386659" lon="12.0013179"><ele>25.0</ele><time>2026-05-02T13:57:11.036Z</time></trkpt><trkpt lat="44.2386539" lon="12.0011048"><ele>25.0</ele><time>2026-05-02T13:57:12.019Z</time></trkpt><trkpt lat="44.2386457" lon="12.0009125"><ele>25.25</ele><time>2026-05-02T13:57:13.02Z</time></trkpt><trkpt lat="44.2386475" lon="12.0007335"><ele>25.5</ele><time>2026-05-02T13:57:14.032Z</time></trkpt><trkpt lat="44.2386457" lon="12.0005641"><ele>25.75</ele><time>2026-05-02T13:57:15.029Z</time></trkpt><trkpt lat="44.2386302" lon="12.0003891"><ele>26.0</ele><time>2026-05-02T13:57:16.004Z</time></trkpt><trkpt lat="44.2386183" lon="12.0002018"><ele>26.0</ele><time>2026-05-02T13:57:17.041Z</time></trkpt><trkpt lat="44.2386293" lon="12.0000219"><ele>26.0</ele><time>2026-05-02T13:57:18.036Z</time></trkpt><trkpt lat="44.2386556" lon="11.9998539"><ele>26.0</ele><time>2026-05-02T13:57:19.014Z</time></trkpt><trkpt lat="44.2386853" lon="11.9996959"><ele>26.0</ele><time>2026-05-02T13:57:20.019Z</time></trkpt><trkpt lat="44.2387206" lon="11.9995454"><ele>26.0</ele><time>2026-05-02T13:57:21.028Z</time></trkpt><trkpt lat="44.2387623" lon="11.9993971"><ele>26.0</ele><time>2026-05-02T13:57:22.021Z</time></trkpt><trkpt lat="44.2388152" lon="11.999239"><ele>26.0</ele><time>2026-05-02T13:57:23.033Z</time></trkpt><trkpt lat="44.2388742" lon="11.9990695"><ele>26.0</ele><time>2026-05-02T13:57:24.012Z</time></trkpt><trkpt lat="44.2389422" lon="11.9989031"><ele>25.75</ele><time>2026-05-02T13:57:25.028Z</time></trkpt><trkpt lat="44.2390089" lon="11.9987466"><ele>25.5</ele><time>2026-05-02T13:57:26.017Z</time></trkpt><trkpt lat="44.2390708" lon="11.9986017"><ele>25.25</ele><time>2026-05-02T13:57:27Z</time></trkpt><trkpt lat="44.2391285" lon="11.9984661"><ele>25.0</ele><time>2026-05-02T13:57:27.993Z</time></trkpt><trkpt lat="44.2391825" lon="11.9983354"><ele>25.0</ele><time>2026-05-02T13:57:28.998Z</time></trkpt><trkpt lat="44.2392353" lon="11.9981965"><ele>25.0</ele><time>2026-05-02T13:57:30.015Z</time></trkpt><trkpt lat="44.2392897" lon="11.9980543"><ele>25.0</ele><time>2026-05-02T13:57:31.012Z</time></trkpt><trkpt lat="44.2393471" lon="11.9979136"><ele>25.0</ele><time>2026-05-02T13:57:31.999Z</time></trkpt><trkpt lat="44.2394059" lon="11.9977654"><ele>25.0</ele><time>2026-05-02T13:57:33.007Z</time></trkpt><trkpt lat="44.2394656" lon="11.9976155"><ele>25.0</ele><time>2026-05-02T13:57:33.999Z</time></trkpt><trkpt lat="44.2395292" lon="11.9974613"><ele>25.0</ele><time>2026-05-02T13:57:35.011Z</time></trkpt><trkpt lat="44.2395962" lon="11.9973061"><ele>25.0</ele><time>2026-05-02T13:57:35.997Z</time></trkpt><trkpt lat="44.2396647" lon="11.9971433"><ele>25.0</ele><time>2026-05-02T13:57:37Z</time></trkpt><trkpt lat="44.2397329" lon="11.9969764"><ele>25.0</ele><time>2026-05-02T13:57:38.006Z</time></trkpt><trkpt lat="44.2398026" lon="11.9968039"><ele>25.0</ele><time>2026-05-02T13:57:39.009Z</time></trkpt><trkpt lat="44.2398743" lon="11.9966261"><ele>25.0</ele><time>2026-05-02T13:57:40.022Z</time></trkpt><trkpt lat="44.2399457" lon="11.9964556"><ele>24.75</ele><time>2026-05-02T13:57:41.024Z</time></trkpt><trkpt lat="44.2400151" lon="11.9962867"><ele>24.5</ele><time>2026-05-02T13:57:42.016Z</time></trkpt><trkpt lat="44.2400835" lon="11.9961228"><ele>24.25</ele><time>2026-05-02T13:57:43.027Z</time></trkpt><trkpt lat="44.2401493" lon="11.995963"><ele>24.0</ele><time>2026-05-02T13:57:44.017Z</time></trkpt><trkpt lat="44.2402129" lon="11.9957948"><ele>23.5</ele><time>2026-05-02T13:57:45.016Z</time></trkpt><trkpt lat="44.240278" lon="11.9956294"><ele>23.0</ele><time>2026-05-02T13:57:46.026Z</time></trkpt><trkpt lat="44.2403472" lon="11.9954558"><ele>22.5</ele><time>2026-05-02T13:57:47.025Z</time></trkpt><trkpt lat="44.2404202" lon="11.9952756"><ele>22.0</ele><time>2026-05-02T13:57:48.008Z</time></trkpt><trkpt lat="44.2404933" lon="11.9950956"><ele>22.25</ele><time>2026-05-02T13:57:49.008Z</time></trkpt><trkpt lat="44.2405662" lon="11.9949139"><ele>22.5</ele><time>2026-05-02T13:57:50.021Z</time></trkpt><trkpt lat="44.2406381" lon="11.9947335"><ele>22.75</ele><time>2026-05-02T13:57:51Z</time></trkpt><trkpt lat="44.2407099" lon="11.994555"><ele>23.0</ele><time>2026-05-02T13:57:52Z</time></trkpt><trkpt lat="44.2407816" lon="11.9943767"><ele>23.5</ele><time>2026-05-02T13:57:52.998Z</time></trkpt><trkpt lat="44.2408523" lon="11.9942076"><ele>24.0</ele><time>2026-05-02T13:57:53.997Z</time></trkpt><trkpt lat="44.2409207" lon="11.9940434"><ele>24.5</ele><time>2026-05-02T13:57:55.015Z</time></trkpt><trkpt lat="44.2409894" lon="11.9938809"><ele>25.0</ele><time>2026-05-02T13:57:56.001Z</time></trkpt><trkpt lat="44.2410547" lon="11.9937241"><ele>25.0</ele><time>2026-05-02T13:57:57.004Z</time></trkpt><trkpt lat="44.2411163" lon="11.9935696"><ele>25.0</ele><time>2026-05-02T13:57:57.996Z</time></trkpt><trkpt lat="44.241176" lon="11.9934238"><ele>25.0</ele><time>2026-05-02T13:57:58.988Z</time></trkpt><trkpt lat="44.2412355" lon="11.9932793"><ele>25.0</ele><time>2026-05-02T13:57:59.996Z</time></trkpt><trkpt lat="44.2412901" lon="11.9931422"><ele>24.8</ele><time>2026-05-02T13:58:00.995Z</time></trkpt><trkpt lat="44.2413448" lon="11.9930144"><ele>24.6</ele><time>2026-05-02T13:58:02Z</time></trkpt><trkpt lat="44.2413942" lon="11.9928918"><ele>24.4</ele><time>2026-05-02T13:58:03.003Z</time></trkpt><trkpt lat="44.2414429" lon="11.992769"><ele>24.2</ele><time>2026-05-02T13:58:03.999Z</time></trkpt><trkpt lat="44.2414935" lon="11.992647"><ele>24.0</ele><time>2026-05-02T13:58:05.042Z</time></trkpt><trkpt lat="44.2415455" lon="11.9925246"><ele>23.799999999999997</ele><time>2026-05-02T13:58:06.014Z</time></trkpt><trkpt lat="44.2415883" lon="11.9924117"><ele>23.599999999999998</ele><time>2026-05-02T13:58:07.023Z</time></trkpt><trkpt lat="44.2416267" lon="11.9923102"><ele>23.4</ele><time>2026-05-02T13:58:08.023Z</time></trkpt><trkpt lat="44.2416799" lon="11.9921564"><ele>23.2</ele><time>2026-05-02T13:58:09.999Z</time></trkpt><trkpt lat="44.241724" lon="11.9920363"><ele>23.0</ele><time>2026-05-02T13:58:11.011Z</time></trkpt><trkpt lat="44.2417954" lon="11.9918743"><ele>23.0</ele><time>2026-05-02T13:58:12.022Z</time></trkpt><trkpt lat="44.2418873" lon="11.9916813"><ele>23.0</ele><time>2026-05-02T13:58:13.026Z</time></trkpt><trkpt lat="44.2419794" lon="11.991464"><ele>23.0</ele><time>2026-05-02T13:58:14.032Z</time></trkpt><trkpt lat="44.2420832" lon="11.9912197"><ele>23.0</ele><time>2026-05-02T13:58:15.039Z</time></trkpt><trkpt lat="44.2421945" lon="11.9909565"><ele>23.0</ele><time>2026-05-02T13:58:15.992Z</time></trkpt><trkpt lat="44.2423013" lon="11.9906887"><ele>23.0</ele><time>2026-05-02T13:58:17.018Z</time></trkpt><trkpt lat="44.242403" lon="11.9904396"><ele>23.0</ele><time>2026-05-02T13:58:18.025Z</time></trkpt><trkpt lat="44.2424986" lon="11.9902031"><ele>23.0</ele><time>2026-05-02T13:58:19.017Z</time></trkpt><trkpt lat="44.2425935" lon="11.9899775"><ele>23.0</ele><time>2026-05-02T13:58:20.018Z</time></trkpt><trkpt lat="44.2426811" lon="11.9897547"><ele>23.0</ele><time>2026-05-02T13:58:21.022Z</time></trkpt><trkpt lat="44.2427672" lon="11.9895375"><ele>23.0</ele><time>2026-05-02T13:58:22.026Z</time></trkpt><trkpt lat="44.2428548" lon="11.9893171"><ele>23.0</ele><time>2026-05-02T13:58:22.999Z</time></trkpt><trkpt lat="44.2429499" lon="11.9890841"><ele>23.0</ele><time>2026-05-02T13:58:24.005Z</time></trkpt><trkpt lat="44.2430515" lon="11.9888351"><ele>23.0</ele><time>2026-05-02T13:58:25.016Z</time></trkpt><trkpt lat="44.2431578" lon="11.988573"><ele>23.0</ele><time>2026-05-02T13:58:26.027Z</time></trkpt><trkpt lat="44.2432672" lon="11.9883"><ele>22.5</ele><time>2026-05-02T13:58:26.995Z</time></trkpt><trkpt lat="44.2433789" lon="11.9880071"><ele>22.0</ele><time>2026-05-02T13:58:27.988Z</time></trkpt><trkpt lat="44.2434981" lon="11.9877021"><ele>22.5</ele><time>2026-05-02T13:58:28.997Z</time></trkpt><trkpt lat="44.2436236" lon="11.9874041"><ele>23.0</ele><time>2026-05-02T13:58:29.996Z</time></trkpt><trkpt lat="44.2437453" lon="11.9871061"><ele>23.0</ele><time>2026-05-02T13:58:31.006Z</time></trkpt><trkpt lat="44.2438664" lon="11.986801"><ele>23.0</ele><time>2026-05-02T13:58:31.997Z</time></trkpt><trkpt lat="44.2439927" lon="11.9864861"><ele>23.5</ele><time>2026-05-02T13:58:33.017Z</time></trkpt><trkpt lat="44.2441083" lon="11.9861915"><ele>24.0</ele><time>2026-05-02T13:58:34.01Z</time></trkpt><trkpt lat="44.2442209" lon="11.9859191"><ele>24.333333333333336</ele><time>2026-05-02T13:58:35.011Z</time></trkpt><trkpt lat="44.2443254" lon="11.9856606"><ele>24.666666666666668</ele><time>2026-05-02T13:58:36.037Z</time></trkpt><trkpt lat="44.2444233" lon="11.9854196"><ele>25.0</ele><time>2026-05-02T13:58:37.031Z</time></trkpt><trkpt lat="44.2445172" lon="11.9851874"><ele>25.333333333333336</ele><time>2026-05-02T13:58:38.017Z</time></trkpt><trkpt lat="44.2446065" lon="11.9849693"><ele>25.666666666666664</ele><time>2026-05-02T13:58:38.997Z</time></trkpt><trkpt lat="44.2446911" lon="11.984757"><ele>26.0</ele><time>2026-05-02T13:58:40.014Z</time></trkpt><trkpt lat="44.2447756" lon="11.9845506"><ele>25.666666666666664</ele><time>2026-05-02T13:58:41.021Z</time></trkpt><trkpt lat="44.2448642" lon="11.9843383"><ele>25.333333333333336</ele><time>2026-05-02T13:58:42.02Z</time></trkpt><trkpt lat="44.244959" lon="11.984107"><ele>25.0</ele><time>2026-05-02T13:58:43.021Z</time></trkpt><trkpt lat="44.2450562" lon="11.9838578"><ele>25.0</ele><time>2026-05-02T13:58:43.988Z</time></trkpt><trkpt lat="44.2451629" lon="11.9835881"><ele>25.0</ele><time>2026-05-02T13:58:44.983Z</time></trkpt><trkpt lat="44.2452705" lon="11.9833206"><ele>25.0</ele><time>2026-05-02T13:58:46.011Z</time></trkpt><trkpt lat="44.2453655" lon="11.9830882"><ele>25.0</ele><time>2026-05-02T13:58:47.013Z</time></trkpt><trkpt lat="44.2454471" lon="11.9828787"><ele>25.0</ele><time>2026-05-02T13:58:48.022Z</time></trkpt><trkpt lat="44.245524" lon="11.9826821"><ele>25.0</ele><time>2026-05-02T13:58:49.009Z</time></trkpt><trkpt lat="44.2455963" lon="11.9825029"><ele>25.0</ele><time>2026-05-02T13:58:50.01Z</time></trkpt><trkpt lat="44.2456608" lon="11.9823474"><ele>25.0</ele><time>2026-05-02T13:58:51.011Z</time></trkpt><trkpt lat="44.2457237" lon="11.9821955"><ele>25.0</ele><time>2026-05-02T13:58:52.027Z</time></trkpt><trkpt lat="44.2457809" lon="11.9820535"><ele>25.0</ele><time>2026-05-02T13:58:53.015Z</time></trkpt><trkpt lat="44.2458359" lon="11.9819114"><ele>25.0</ele><time>2026-05-02T13:58:54.013Z</time></trkpt><trkpt lat="44.245893" lon="11.9817675"><ele>25.0</ele><time>2026-05-02T13:58:55.007Z</time></trkpt><trkpt lat="44.2459537" lon="11.9816196"><ele>25.0</ele><time>2026-05-02T13:58:56.016Z</time></trkpt><trkpt lat="44.2460169" lon="11.9814691"><ele>25.0</ele><time>2026-05-02T13:58:57.013Z</time></trkpt><trkpt lat="44.2460767" lon="11.9813103"><ele>25.0</ele><time>2026-05-02T13:58:58.024Z</time></trkpt><trkpt lat="44.2461357" lon="11.9811622"><ele>25.0</ele><time>2026-05-02T13:58:59.01Z</time></trkpt><trkpt lat="44.2461934" lon="11.9810175"><ele>25.0</ele><time>2026-05-02T13:59:00.017Z</time></trkpt><trkpt lat="44.2462548" lon="11.9808743"><ele>25.0</ele><time>2026-05-02T13:59:01Z</time></trkpt><trkpt lat="44.2463154" lon="11.9807347"><ele>25.0</ele><time>2026-05-02T13:59:01.995Z</time></trkpt><trkpt lat="44.2463787" lon="11.9805943"><ele>25.0</ele><time>2026-05-02T13:59:02.994Z</time></trkpt><trkpt lat="44.246439" lon="11.9804522"><ele>25.0</ele><time>2026-05-02T13:59:04.002Z</time></trkpt><trkpt lat="44.2465008" lon="11.9803089"><ele>25.0</ele><time>2026-05-02T13:59:04.997Z</time></trkpt><trkpt lat="44.2465622" lon="11.9801648"><ele>25.0</ele><time>2026-05-02T13:59:05.999Z</time></trkpt><trkpt lat="44.2466221" lon="11.9800162"><ele>25.0</ele><time>2026-05-02T13:59:07.002Z</time></trkpt><trkpt lat="44.2466876" lon="11.9798623"><ele>25.0</ele><time>2026-05-02T13:59:07.997Z</time></trkpt><trkpt lat="44.2467524" lon="11.9797023"><ele>25.0</ele><time>2026-05-02T13:59:08.999Z</time></trkpt><trkpt lat="44.2468225" lon="11.9795395"><ele>25.0</ele><time>2026-05-02T13:59:10.002Z</time></trkpt><trkpt lat="44.246903" lon="11.9793741"><ele>25.0</ele><time>2026-05-02T13:59:10.994Z</time></trkpt><trkpt lat="44.2469737" lon="11.9791935"><ele>25.0</ele><time>2026-05-02T13:59:11.988Z</time></trkpt><trkpt lat="44.2470386" lon="11.9790178"><ele>25.0</ele><time>2026-05-02T13:59:12.981Z</time></trkpt><trkpt lat="44.2471008" lon="11.9788285"><ele>24.75</ele><time>2026-05-02T13:59:13.988Z</time></trkpt><trkpt lat="44.2471709" lon="11.9786646"><ele>24.5</ele><time>2026-05-02T13:59:14.985Z</time></trkpt><trkpt lat="44.247246" lon="11.9784896"><ele>24.25</ele><time>2026-05-02T13:59:15.987Z</time></trkpt><trkpt lat="44.2473187" lon="11.9783485"><ele>24.0</ele><time>2026-05-02T13:59:16.996Z</time></trkpt><trkpt lat="44.2473928" lon="11.9781899"><ele>24.0</ele><time>2026-05-02T13:59:18.008Z</time></trkpt><trkpt lat="44.2474579" lon="11.9780273"><ele>24.0</ele><time>2026-05-02T13:59:18.996Z</time></trkpt><trkpt lat="44.2475256" lon="11.977852"><ele>24.0</ele><time>2026-05-02T13:59:20.004Z</time></trkpt><trkpt lat="44.2475959" lon="11.9776841"><ele>24.0</ele><time>2026-05-02T13:59:20.99Z</time></trkpt><trkpt lat="44.2476647" lon="11.9775103"><ele>24.5</ele><time>2026-05-02T13:59:21.976Z</time></trkpt><trkpt lat="44.2477425" lon="11.9773312"><ele>25.0</ele><time>2026-05-02T13:59:22.973Z</time></trkpt><trkpt lat="44.247897" lon="11.9769528"><ele>25.0</ele><time>2026-05-02T13:59:24.977Z</time></trkpt><trkpt lat="44.247984" lon="11.9767527"><ele>25.0</ele><time>2026-05-02T13:59:26.013Z</time></trkpt><trkpt lat="44.2480681" lon="11.9765532"><ele>25.0</ele><time>2026-05-02T13:59:26.988Z</time></trkpt><trkpt lat="44.2481491" lon="11.9763537"><ele>25.333333333333336</ele><time>2026-05-02T13:59:27.975Z</time></trkpt><trkpt lat="44.2482316" lon="11.9761555"><ele>25.666666666666664</ele><time>2026-05-02T13:59:28.977Z</time></trkpt><trkpt lat="44.2483128" lon="11.9759533"><ele>26.0</ele><time>2026-05-02T13:59:29.983Z</time></trkpt><trkpt lat="44.2483989" lon="11.9757499"><ele>26.0</ele><time>2026-05-02T13:59:30.997Z</time></trkpt><trkpt lat="44.2484822" lon="11.9755509"><ele>26.0</ele><time>2026-05-02T13:59:31.973Z</time></trkpt><trkpt lat="44.2485652" lon="11.975351"><ele>26.0</ele><time>2026-05-02T13:59:32.981Z</time></trkpt><trkpt lat="44.2486485" lon="11.9751502"><ele>26.0</ele><time>2026-05-02T13:59:33.978Z</time></trkpt><trkpt lat="44.2487334" lon="11.9749485"><ele>26.0</ele><time>2026-05-02T13:59:35.006Z</time></trkpt><trkpt lat="44.2488164" lon="11.9747465"><ele>26.0</ele><time>2026-05-02T13:59:35.987Z</time></trkpt><trkpt lat="44.2489004" lon="11.9745421"><ele>25.666666666666664</ele><time>2026-05-02T13:59:37.003Z</time></trkpt><trkpt lat="44.2489815" lon="11.9743439"><ele>25.333333333333336</ele><time>2026-05-02T13:59:37.995Z</time></trkpt><trkpt lat="44.2490682" lon="11.9741392"><ele>25.0</ele><time>2026-05-02T13:59:39.004Z</time></trkpt><trkpt lat="44.2491526" lon="11.9739372"><ele>25.0</ele><time>2026-05-02T13:59:39.997Z</time></trkpt><trkpt lat="44.2492379" lon="11.9737359"><ele>25.0</ele><time>2026-05-02T13:59:40.988Z</time></trkpt><trkpt lat="44.2493221" lon="11.9735381"><ele>25.0</ele><time>2026-05-02T13:59:41.997Z</time></trkpt><trkpt lat="44.2494042" lon="11.9733381"><ele>25.333333333333336</ele><time>2026-05-02T13:59:42.999Z</time></trkpt><trkpt lat="44.24949" lon="11.9731375"><ele>25.666666666666664</ele><time>2026-05-02T13:59:44.003Z</time></trkpt><trkpt lat="44.2495724" lon="11.9729363"><ele>26.0</ele><time>2026-05-02T13:59:45.005Z</time></trkpt><trkpt lat="44.2496529" lon="11.9727354"><ele>26.0</ele><time>2026-05-02T13:59:45.998Z</time></trkpt><trkpt lat="44.2497356" lon="11.9725339"><ele>26.0</ele><time>2026-05-02T13:59:47.005Z</time></trkpt><trkpt lat="44.2498187" lon="11.9723329"><ele>26.0</ele><time>2026-05-02T13:59:47.996Z</time></trkpt><trkpt lat="44.2499026" lon="11.972129"><ele>25.333333333333332</ele><time>2026-05-02T13:59:49.007Z</time></trkpt><trkpt lat="44.2499864" lon="11.971926"><ele>24.666666666666664</ele><time>2026-05-02T13:59:49.996Z</time></trkpt><trkpt lat="44.2500693" lon="11.971726"><ele>24.0</ele><time>2026-05-02T13:59:50.992Z</time></trkpt><trkpt lat="44.2501525" lon="11.9715267"><ele>23.666666666666668</ele><time>2026-05-02T13:59:51.999Z</time></trkpt><trkpt lat="44.2502373" lon="11.971325"><ele>23.333333333333336</ele><time>2026-05-02T13:59:52.991Z</time></trkpt><trkpt lat="44.25032" lon="11.9711218"><ele>23.0</ele><time>2026-05-02T13:59:54.017Z</time></trkpt><trkpt lat="44.250403" lon="11.9709167"><ele>23.666666666666668</ele><time>2026-05-02T13:59:55Z</time></trkpt><trkpt lat="44.2504862" lon="11.9707122"><ele>24.333333333333336</ele><time>2026-05-02T13:59:56Z</time></trkpt><trkpt lat="44.2505696" lon="11.9705107"><ele>25.0</ele><time>2026-05-02T13:59:57.005Z</time></trkpt><trkpt lat="44.2506524" lon="11.9703108"><ele>25.0</ele><time>2026-05-02T13:59:58.006Z</time></trkpt><trkpt lat="44.2507321" lon="11.9701066"><ele>25.0</ele><time>2026-05-02T13:59:59.003Z</time></trkpt><trkpt lat="44.2508132" lon="11.9698994"><ele>25.0</ele><time>2026-05-02T13:59:59.997Z</time></trkpt><trkpt lat="44.2508975" lon="11.9696891"><ele>25.0</ele><time>2026-05-02T14:00:00.977Z</time></trkpt><trkpt lat="44.2509991" lon="11.9694379"><ele>25.0</ele><time>2026-05-02T14:00:01.999Z</time></trkpt><trkpt lat="44.2511171" lon="11.9691563"><ele>25.0</ele><time>2026-05-02T14:00:02.998Z</time></trkpt><trkpt lat="44.2512277" lon="11.9688849"><ele>25.0</ele><time>2026-05-02T14:00:04.021Z</time></trkpt><trkpt lat="44.2513311" lon="11.9686265"><ele>25.0</ele><time>2026-05-02T14:00:05.022Z</time></trkpt><trkpt lat="44.25143" lon="11.9683879"><ele>25.0</ele><time>2026-05-02T14:00:06.026Z</time></trkpt><trkpt lat="44.2515203" lon="11.96816"><ele>25.0</ele><time>2026-05-02T14:00:07.036Z</time></trkpt><trkpt lat="44.2516105" lon="11.9679409"><ele>25.0</ele><time>2026-05-02T14:00:07.999Z</time></trkpt><trkpt lat="44.2517022" lon="11.9677198"><ele>25.0</ele><time>2026-05-02T14:00:09.024Z</time></trkpt><trkpt lat="44.2517993" lon="11.9674904"><ele>25.0</ele><time>2026-05-02T14:00:10.033Z</time></trkpt><trkpt lat="44.2519024" lon="11.9672441"><ele>25.0</ele><time>2026-05-02T14:00:10.999Z</time></trkpt><trkpt lat="44.2520088" lon="11.9669795"><ele>25.0</ele><time>2026-05-02T14:00:12.007Z</time></trkpt><trkpt lat="44.2521163" lon="11.9667181"><ele>24.666666666666668</ele><time>2026-05-02T14:00:13.005Z</time></trkpt><trkpt lat="44.2522199" lon="11.9664618"><ele>24.333333333333336</ele><time>2026-05-02T14:00:14.028Z</time></trkpt><trkpt lat="44.2523235" lon="11.9662038"><ele>24.0</ele><time>2026-05-02T14:00:15.021Z</time></trkpt><trkpt lat="44.2524277" lon="11.9659419"><ele>24.333333333333336</ele><time>2026-05-02T14:00:16.017Z</time></trkpt><trkpt lat="44.2525282" lon="11.9656813"><ele>24.666666666666668</ele><time>2026-05-02T14:00:17.018Z</time></trkpt><trkpt lat="44.2526248" lon="11.9654193"><ele>25.0</ele><time>2026-05-02T14:00:17.997Z</time></trkpt><trkpt lat="44.2527198" lon="11.9651673"><ele>25.0</ele><time>2026-05-02T14:00:19.033Z</time></trkpt><trkpt lat="44.2528122" lon="11.9649328"><ele>25.0</ele><time>2026-05-02T14:00:20Z</time></trkpt><trkpt lat="44.2529021" lon="11.9647005"><ele>25.0</ele><time>2026-05-02T14:00:21.005Z</time></trkpt><trkpt lat="44.2529926" lon="11.9644617"><ele>25.0</ele><time>2026-05-02T14:00:22.02Z</time></trkpt><trkpt lat="44.2530902" lon="11.9642126"><ele>25.0</ele><time>2026-05-02T14:00:23.027Z</time></trkpt><trkpt lat="44.2531876" lon="11.9639605"><ele>25.0</ele><time>2026-05-02T14:00:24.001Z</time></trkpt><trkpt lat="44.2532828" lon="11.9637071"><ele>24.666666666666668</ele><time>2026-05-02T14:00:24.992Z</time></trkpt><trkpt lat="44.2533811" lon="11.963457"><ele>24.333333333333336</ele><time>2026-05-02T14:00:26.004Z</time></trkpt><trkpt lat="44.2534772" lon="11.9632133"><ele>24.0</ele><time>2026-05-02T14:00:27.036Z</time></trkpt><trkpt lat="44.2535683" lon="11.9629779"><ele>24.0</ele><time>2026-05-02T14:00:28.005Z</time></trkpt><trkpt lat="44.2536559" lon="11.9627641"><ele>24.0</ele><time>2026-05-02T14:00:29.008Z</time></trkpt><trkpt lat="44.2537414" lon="11.9625599"><ele>24.0</ele><time>2026-05-02T14:00:30.017Z</time></trkpt><trkpt lat="44.2538256" lon="11.962354"><ele>24.333333333333336</ele><time>2026-05-02T14:00:31.003Z</time></trkpt><trkpt lat="44.2539038" lon="11.9621494"><ele>24.666666666666668</ele><time>2026-05-02T14:00:31.994Z</time></trkpt><trkpt lat="44.2539855" lon="11.9619435"><ele>25.0</ele><time>2026-05-02T14:00:32.989Z</time></trkpt><trkpt lat="44.2540712" lon="11.9617425"><ele>25.0</ele><time>2026-05-02T14:00:33.998Z</time></trkpt><trkpt lat="44.2541555" lon="11.961539"><ele>25.0</ele><time>2026-05-02T14:00:34.998Z</time></trkpt><trkpt lat="44.2542362" lon="11.9613368"><ele>25.0</ele><time>2026-05-02T14:00:35.999Z</time></trkpt><trkpt lat="44.2543173" lon="11.9611356"><ele>25.0</ele><time>2026-05-02T14:00:37.012Z</time></trkpt><trkpt lat="44.2543978" lon="11.9609362"><ele>25.0</ele><time>2026-05-02T14:00:37.997Z</time></trkpt><trkpt lat="44.2544777" lon="11.9607375"><ele>25.0</ele><time>2026-05-02T14:00:38.994Z</time></trkpt><trkpt lat="44.2545562" lon="11.960542"><ele>25.0</ele><time>2026-05-02T14:00:39.987Z</time></trkpt><trkpt lat="44.2546341" lon="11.9603486"><ele>25.0</ele><time>2026-05-02T14:00:41.008Z</time></trkpt><trkpt lat="44.2547097" lon="11.9601531"><ele>25.0</ele><time>2026-05-02T14:00:41.995Z</time></trkpt><trkpt lat="44.2547891" lon="11.9599582"><ele>25.0</ele><time>2026-05-02T14:00:42.997Z</time></trkpt><trkpt lat="44.2549487" lon="11.9595628"><ele>25.0</ele><time>2026-05-02T14:00:44.983Z</time></trkpt><trkpt lat="44.2550314" lon="11.9593664"><ele>25.0</ele><time>2026-05-02T14:00:46.003Z</time></trkpt><trkpt lat="44.255111" lon="11.9591669"><ele>25.0</ele><time>2026-05-02T14:00:46.991Z</time></trkpt><trkpt lat="44.2551916" lon="11.9589663"><ele>25.0</ele><time>2026-05-02T14:00:47.99Z</time></trkpt><trkpt lat="44.2552728" lon="11.9587628"><ele>25.0</ele><time>2026-05-02T14:00:48.995Z</time></trkpt><trkpt lat="44.2553546" lon="11.9585594"><ele>25.0</ele><time>2026-05-02T14:00:49.993Z</time></trkpt><trkpt lat="44.2554379" lon="11.9583569"><ele>25.0</ele><time>2026-05-02T14:00:50.996Z</time></trkpt><trkpt lat="44.2555175" lon="11.9581545"><ele>25.0</ele><time>2026-05-02T14:00:51.993Z</time></trkpt><trkpt lat="44.2555953" lon="11.9579523"><ele>25.0</ele><time>2026-05-02T14:00:53Z</time></trkpt><trkpt lat="44.255676" lon="11.9577576"><ele>25.0</ele><time>2026-05-02T14:00:53.99Z</time></trkpt><trkpt lat="44.2557567" lon="11.9575623"><ele>25.333333333333336</ele><time>2026-05-02T14:00:55.011Z</time></trkpt><trkpt lat="44.255834" lon="11.9573645"><ele>25.666666666666664</ele><time>2026-05-02T14:00:56.008Z</time></trkpt><trkpt lat="44.2559101" lon="11.9571671"><ele>26.0</ele><time>2026-05-02T14:00:57Z</time></trkpt><trkpt lat="44.2559921" lon="11.9569757"><ele>26.0</ele><time>2026-05-02T14:00:58.018Z</time></trkpt><trkpt lat="44.2560721" lon="11.9567889"><ele>26.0</ele><time>2026-05-02T14:00:59.002Z</time></trkpt><trkpt lat="44.2561494" lon="11.9566097"><ele>26.0</ele><time>2026-05-02T14:01:00.012Z</time></trkpt><trkpt lat="44.2562223" lon="11.9564251"><ele>26.0</ele><time>2026-05-02T14:01:01.018Z</time></trkpt><trkpt lat="44.256295" lon="11.9562419"><ele>26.0</ele><time>2026-05-02T14:01:02.003Z</time></trkpt><trkpt lat="44.256369" lon="11.9560605"><ele>26.0</ele><time>2026-05-02T14:01:03.001Z</time></trkpt><trkpt lat="44.2564396" lon="11.9558795"><ele>26.0</ele><time>2026-05-02T14:01:04.002Z</time></trkpt><trkpt lat="44.2565101" lon="11.9556996"><ele>26.0</ele><time>2026-05-02T14:01:05.018Z</time></trkpt><trkpt lat="44.2565839" lon="11.9555184"><ele>26.0</ele><time>2026-05-02T14:01:06.012Z</time></trkpt><trkpt lat="44.2566555" lon="11.9553379"><ele>26.0</ele><time>2026-05-02T14:01:06.99Z</time></trkpt><trkpt lat="44.2567278" lon="11.9551534"><ele>26.0</ele><time>2026-05-02T14:01:07.987Z</time></trkpt><trkpt lat="44.2568025" lon="11.9549668"><ele>26.25</ele><time>2026-05-02T14:01:09.011Z</time></trkpt><trkpt lat="44.2568745" lon="11.9547848"><ele>26.5</ele><time>2026-05-02T14:01:09.999Z</time></trkpt><trkpt lat="44.2569503" lon="11.9546039"><ele>26.75</ele><time>2026-05-02T14:01:11Z</time></trkpt><trkpt lat="44.257024" lon="11.9544227"><ele>27.0</ele><time>2026-05-02T14:01:12.002Z</time></trkpt><trkpt lat="44.2570978" lon="11.9542424"><ele>27.333333333333336</ele><time>2026-05-02T14:01:13Z</time></trkpt><trkpt lat="44.2571715" lon="11.9540614"><ele>27.666666666666668</ele><time>2026-05-02T14:01:13.995Z</time></trkpt><trkpt lat="44.2572449" lon="11.95388"><ele>28.0</ele><time>2026-05-02T14:01:15.008Z</time></trkpt><trkpt lat="44.2573227" lon="11.9536892"><ele>28.0</ele><time>2026-05-02T14:01:15.999Z</time></trkpt><trkpt lat="44.2574061" lon="11.9534843"><ele>28.0</ele><time>2026-05-02T14:01:17.011Z</time></trkpt><trkpt lat="44.2574885" lon="11.9532826"><ele>28.0</ele><time>2026-05-02T14:01:18Z</time></trkpt><trkpt lat="44.2575701" lon="11.9530821"><ele>28.0</ele><time>2026-05-02T14:01:19.006Z</time></trkpt><trkpt lat="44.257651" lon="11.9528803"><ele>28.0</ele><time>2026-05-02T14:01:20.009Z</time></trkpt><trkpt lat="44.2577368" lon="11.9526766"><ele>28.0</ele><time>2026-05-02T14:01:21.001Z</time></trkpt><trkpt lat="44.2578209" lon="11.9524771"><ele>27.666666666666668</ele><time>2026-05-02T14:01:22.003Z</time></trkpt><trkpt lat="44.2579038" lon="11.9522752"><ele>27.333333333333336</ele><time>2026-05-02T14:01:23.003Z</time></trkpt><trkpt lat="44.2579841" lon="11.9520784"><ele>27.0</ele><time>2026-05-02T14:01:24.003Z</time></trkpt><trkpt lat="44.2580625" lon="11.951881"><ele>27.333333333333336</ele><time>2026-05-02T14:01:25.031Z</time></trkpt><trkpt lat="44.2581428" lon="11.9516903"><ele>27.666666666666668</ele><time>2026-05-02T14:01:26.001Z</time></trkpt><trkpt lat="44.2582201" lon="11.9514977"><ele>28.0</ele><time>2026-05-02T14:01:27.005Z</time></trkpt><trkpt lat="44.2582998" lon="11.9513034"><ele>28.0</ele><time>2026-05-02T14:01:28.002Z</time></trkpt><trkpt lat="44.2583841" lon="11.9511094"><ele>28.0</ele><time>2026-05-02T14:01:28.992Z</time></trkpt><trkpt lat="44.2584656" lon="11.9509156"><ele>28.0</ele><time>2026-05-02T14:01:30.003Z</time></trkpt><trkpt lat="44.2585449" lon="11.9507232"><ele>28.0</ele><time>2026-05-02T14:01:30.994Z</time></trkpt><trkpt lat="44.2586214" lon="11.9505275"><ele>28.0</ele><time>2026-05-02T14:01:32.013Z</time></trkpt><trkpt lat="44.2587015" lon="11.9503301"><ele>28.0</ele><time>2026-05-02T14:01:33.004Z</time></trkpt><trkpt lat="44.2587774" lon="11.9501365"><ele>27.333333333333336</ele><time>2026-05-02T14:01:34.001Z</time></trkpt><trkpt lat="44.2588592" lon="11.9499406"><ele>26.666666666666664</ele><time>2026-05-02T14:01:34.995Z</time></trkpt><trkpt lat="44.2589367" lon="11.9497494"><ele>26.0</ele><time>2026-05-02T14:01:36.006Z</time></trkpt><trkpt lat="44.2590164" lon="11.9495577"><ele>26.0</ele><time>2026-05-02T14:01:36.997Z</time></trkpt><trkpt lat="44.2590949" lon="11.9493623"><ele>26.0</ele><time>2026-05-02T14:01:38Z</time></trkpt><trkpt lat="44.2591715" lon="11.9491691"><ele>26.0</ele><time>2026-05-02T14:01:39.003Z</time></trkpt><trkpt lat="44.2592494" lon="11.9489777"><ele>26.666666666666664</ele><time>2026-05-02T14:01:40.009Z</time></trkpt><trkpt lat="44.2593267" lon="11.9487866"><ele>27.333333333333336</ele><time>2026-05-02T14:01:41.012Z</time></trkpt><trkpt lat="44.2594042" lon="11.9485928"><ele>28.0</ele><time>2026-05-02T14:01:42.006Z</time></trkpt><trkpt lat="44.2594809" lon="11.9484015"><ele>28.0</ele><time>2026-05-02T14:01:43.001Z</time></trkpt><trkpt lat="44.2595592" lon="11.9482085"><ele>28.0</ele><time>2026-05-02T14:01:44.007Z</time></trkpt><trkpt lat="44.2596397" lon="11.9480159"><ele>28.0</ele><time>2026-05-02T14:01:44.995Z</time></trkpt><trkpt lat="44.2597184" lon="11.9478265"><ele>28.0</ele><time>2026-05-02T14:01:46.008Z</time></trkpt><trkpt lat="44.2597979" lon="11.9476333"><ele>28.0</ele><time>2026-05-02T14:01:47.009Z</time></trkpt><trkpt lat="44.2598758" lon="11.9474399"><ele>28.0</ele><time>2026-05-02T14:01:48.005Z</time></trkpt><trkpt lat="44.2599515" lon="11.9472425"><ele>28.333333333333336</ele><time>2026-05-02T14:01:49.011Z</time></trkpt><trkpt lat="44.2600279" lon="11.9470408"><ele>28.666666666666664</ele><time>2026-05-02T14:01:49.994Z</time></trkpt><trkpt lat="44.2601107" lon="11.9468364"><ele>29.0</ele><time>2026-05-02T14:01:51.006Z</time></trkpt><trkpt lat="44.2601983" lon="11.9466268"><ele>29.0</ele><time>2026-05-02T14:01:52.004Z</time></trkpt><trkpt lat="44.2602899" lon="11.9464036"><ele>29.0</ele><time>2026-05-02T14:01:52.985Z</time></trkpt><trkpt lat="44.2603907" lon="11.9461511"><ele>29.0</ele><time>2026-05-02T14:01:53.999Z</time></trkpt><trkpt lat="44.2605038" lon="11.9458693"><ele>30.0</ele><time>2026-05-02T14:01:54.995Z</time></trkpt><trkpt lat="44.2606215" lon="11.9455771"><ele>31.0</ele><time>2026-05-02T14:01:56.01Z</time></trkpt><trkpt lat="44.2607498" lon="11.9452879"><ele>30.666666666666668</ele><time>2026-05-02T14:01:57.009Z</time></trkpt><trkpt lat="44.2608694" lon="11.9450088"><ele>30.333333333333336</ele><time>2026-05-02T14:01:58.004Z</time></trkpt><trkpt lat="44.2609756" lon="11.9447506"><ele>30.0</ele><time>2026-05-02T14:01:59.013Z</time></trkpt><trkpt lat="44.2610795" lon="11.9445043"><ele>30.0</ele><time>2026-05-02T14:01:59.999Z</time></trkpt><trkpt lat="44.2611759" lon="11.9442648"><ele>30.0</ele><time>2026-05-02T14:02:01.002Z</time></trkpt><trkpt lat="44.2612727" lon="11.9440342"><ele>30.0</ele><time>2026-05-02T14:02:02.015Z</time></trkpt><trkpt lat="44.2613629" lon="11.9438123"><ele>30.333333333333336</ele><time>2026-05-02T14:02:03.005Z</time></trkpt><trkpt lat="44.26145" lon="11.9435958"><ele>30.666666666666668</ele><time>2026-05-02T14:02:04Z</time></trkpt><trkpt lat="44.2615351" lon="11.9433829"><ele>31.0</ele><time>2026-05-02T14:02:04.998Z</time></trkpt><trkpt lat="44.2616229" lon="11.9431728"><ele>31.333333333333336</ele><time>2026-05-02T14:02:05.995Z</time></trkpt><trkpt lat="44.2617124" lon="11.942953"><ele>31.666666666666664</ele><time>2026-05-02T14:02:07.008Z</time></trkpt><trkpt lat="44.2618037" lon="11.9427279"><ele>32.0</ele><time>2026-05-02T14:02:08.009Z</time></trkpt><trkpt lat="44.2619023" lon="11.9424912"><ele>31.666666666666664</ele><time>2026-05-02T14:02:09.002Z</time></trkpt><trkpt lat="44.2620043" lon="11.9422359"><ele>31.333333333333336</ele><time>2026-05-02T14:02:10.003Z</time></trkpt><trkpt lat="44.2621086" lon="11.9419749"><ele>31.0</ele><time>2026-05-02T14:02:11.015Z</time></trkpt><trkpt lat="44.2622108" lon="11.9417093"><ele>30.666666666666668</ele><time>2026-05-02T14:02:12.01Z</time></trkpt><trkpt lat="44.262315" lon="11.9414481"><ele>30.333333333333336</ele><time>2026-05-02T14:02:13.006Z</time></trkpt><trkpt lat="44.2624183" lon="11.9411872"><ele>30.0</ele><time>2026-05-02T14:02:14.003Z</time></trkpt><trkpt lat="44.2625261" lon="11.9409251"><ele>30.333333333333336</ele><time>2026-05-02T14:02:15.007Z</time></trkpt><trkpt lat="44.2626312" lon="11.9406645"><ele>30.666666666666668</ele><time>2026-05-02T14:02:16.001Z</time></trkpt><trkpt lat="44.2627353" lon="11.9404047"><ele>31.0</ele><time>2026-05-02T14:02:17.03Z</time></trkpt><trkpt lat="44.2628417" lon="11.9401415"><ele>31.0</ele><time>2026-05-02T14:02:17.999Z</time></trkpt><trkpt lat="44.2629452" lon="11.9398796"><ele>31.0</ele><time>2026-05-02T14:02:19.005Z</time></trkpt><trkpt lat="44.2630472" lon="11.9396196"><ele>31.0</ele><time>2026-05-02T14:02:20.001Z</time></trkpt><trkpt lat="44.2631526" lon="11.9393612"><ele>31.333333333333336</ele><time>2026-05-02T14:02:21.004Z</time></trkpt><trkpt lat="44.2632576" lon="11.9390955"><ele>31.666666666666664</ele><time>2026-05-02T14:02:22.012Z</time></trkpt><trkpt lat="44.2633629" lon="11.938833"><ele>32.0</ele><time>2026-05-02T14:02:23.006Z</time></trkpt><trkpt lat="44.2634697" lon="11.9385695"><ele>31.666666666666664</ele><time>2026-05-02T14:02:24.013Z</time></trkpt><trkpt lat="44.2635749" lon="11.9383099"><ele>31.333333333333336</ele><time>2026-05-02T14:02:24.996Z</time></trkpt><trkpt lat="44.2636829" lon="11.9380451"><ele>31.0</ele><time>2026-05-02T14:02:26.007Z</time></trkpt><trkpt lat="44.2637884" lon="11.9377887"><ele>31.0</ele><time>2026-05-02T14:02:26.998Z</time></trkpt><trkpt lat="44.2638967" lon="11.937529"><ele>31.0</ele><time>2026-05-02T14:02:27.997Z</time></trkpt><trkpt lat="44.2640048" lon="11.9372695"><ele>31.0</ele><time>2026-05-02T14:02:29.006Z</time></trkpt><trkpt lat="44.2641101" lon="11.937011"><ele>31.0</ele><time>2026-05-02T14:02:30.009Z</time></trkpt><trkpt lat="44.2642171" lon="11.936749"><ele>31.0</ele><time>2026-05-02T14:02:30.994Z</time></trkpt><trkpt lat="44.2643235" lon="11.9364888"><ele>31.0</ele><time>2026-05-02T14:02:32.014Z</time></trkpt><trkpt lat="44.2644305" lon="11.9362283"><ele>31.0</ele><time>2026-05-02T14:02:33.008Z</time></trkpt><trkpt lat="44.2645344" lon="11.9359683"><ele>31.0</ele><time>2026-05-02T14:02:33.998Z</time></trkpt><trkpt lat="44.2646405" lon="11.9357082"><ele>31.0</ele><time>2026-05-02T14:02:35.005Z</time></trkpt><trkpt lat="44.2647488" lon="11.935447"><ele>31.0</ele><time>2026-05-02T14:02:36.003Z</time></trkpt><trkpt lat="44.264856" lon="11.9351867"><ele>31.0</ele><time>2026-05-02T14:02:37Z</time></trkpt><trkpt lat="44.2649622" lon="11.9349267"><ele>31.0</ele><time>2026-05-02T14:02:37.997Z</time></trkpt><trkpt lat="44.2650669" lon="11.9346661"><ele>31.0</ele><time>2026-05-02T14:02:39.003Z</time></trkpt><trkpt lat="44.2651711" lon="11.9344078"><ele>31.0</ele><time>2026-05-02T14:02:40.014Z</time></trkpt><trkpt lat="44.2652749" lon="11.9341475"><ele>31.0</ele><time>2026-05-02T14:02:41.009Z</time></trkpt><trkpt lat="44.2653838" lon="11.9338869"><ele>31.333333333333336</ele><time>2026-05-02T14:02:41.997Z</time></trkpt><trkpt lat="44.2654903" lon="11.933625"><ele>31.666666666666664</ele><time>2026-05-02T14:02:42.992Z</time></trkpt><trkpt lat="44.2655943" lon="11.9333659"><ele>32.0</ele><time>2026-05-02T14:02:43.993Z</time></trkpt><trkpt lat="44.265698" lon="11.933115"><ele>31.666666666666664</ele><time>2026-05-02T14:02:44.989Z</time></trkpt><trkpt lat="44.2657961" lon="11.932868"><ele>31.333333333333336</ele><time>2026-05-02T14:02:46.003Z</time></trkpt><trkpt lat="44.2658895" lon="11.9326436"><ele>31.0</ele><time>2026-05-02T14:02:47.001Z</time></trkpt><trkpt lat="44.2659742" lon="11.9324309"><ele>31.0</ele><time>2026-05-02T14:02:47.998Z</time></trkpt><trkpt lat="44.2660584" lon="11.93222"><ele>31.0</ele><time>2026-05-02T14:02:49.022Z</time></trkpt><trkpt lat="44.2661513" lon="11.9319953"><ele>31.0</ele><time>2026-05-02T14:02:49.998Z</time></trkpt><trkpt lat="44.2662541" lon="11.9317467"><ele>31.666666666666668</ele><time>2026-05-02T14:02:51.005Z</time></trkpt><trkpt lat="44.2663567" lon="11.9314864"><ele>32.333333333333336</ele><time>2026-05-02T14:02:51.994Z</time></trkpt><trkpt lat="44.266458" lon="11.9312229"><ele>33.0</ele><time>2026-05-02T14:02:53.001Z</time></trkpt><trkpt lat="44.2665641" lon="11.9309662"><ele>33.333333333333336</ele><time>2026-05-02T14:02:54.005Z</time></trkpt><trkpt lat="44.2666714" lon="11.9307059"><ele>33.66666666666667</ele><time>2026-05-02T14:02:54.988Z</time></trkpt><trkpt lat="44.2667727" lon="11.9304422"><ele>34.0</ele><time>2026-05-02T14:02:55.996Z</time></trkpt><trkpt lat="44.2668751" lon="11.9301801"><ele>33.66666666666667</ele><time>2026-05-02T14:02:57.018Z</time></trkpt><trkpt lat="44.2669816" lon="11.9299196"><ele>33.333333333333336</ele><time>2026-05-02T14:02:58.007Z</time></trkpt><trkpt lat="44.2670862" lon="11.9296568"><ele>33.0</ele><time>2026-05-02T14:02:59.002Z</time></trkpt><trkpt lat="44.2671932" lon="11.9293959"><ele>33.0</ele><time>2026-05-02T14:03:00.01Z</time></trkpt><trkpt lat="44.2672987" lon="11.9291384"><ele>33.0</ele><time>2026-05-02T14:03:00.997Z</time></trkpt><trkpt lat="44.2674057" lon="11.9288812"><ele>33.0</ele><time>2026-05-02T14:03:02.023Z</time></trkpt><trkpt lat="44.2675127" lon="11.9286214"><ele>33.333333333333336</ele><time>2026-05-02T14:03:03.01Z</time></trkpt><trkpt lat="44.2676204" lon="11.9283618"><ele>33.66666666666667</ele><time>2026-05-02T14:03:04Z</time></trkpt><trkpt lat="44.2677266" lon="11.9280996"><ele>34.0</ele><time>2026-05-02T14:03:05.01Z</time></trkpt><trkpt lat="44.2678332" lon="11.9278413"><ele>34.0</ele><time>2026-05-02T14:03:05.987Z</time></trkpt><trkpt lat="44.2679406" lon="11.9275818"><ele>34.0</ele><time>2026-05-02T14:03:06.999Z</time></trkpt><trkpt lat="44.2680465" lon="11.9273205"><ele>34.0</ele><time>2026-05-02T14:03:07.997Z</time></trkpt><trkpt lat="44.2681498" lon="11.9270581"><ele>34.0</ele><time>2026-05-02T14:03:08.989Z</time></trkpt><trkpt lat="44.2682557" lon="11.9267998"><ele>34.0</ele><time>2026-05-02T14:03:10.015Z</time></trkpt><trkpt lat="44.2683622" lon="11.9265364"><ele>34.0</ele><time>2026-05-02T14:03:10.997Z</time></trkpt><trkpt lat="44.2684689" lon="11.9262759"><ele>34.0</ele><time>2026-05-02T14:03:11.998Z</time></trkpt><trkpt lat="44.2685722" lon="11.9260106"><ele>34.0</ele><time>2026-05-02T14:03:12.997Z</time></trkpt><trkpt lat="44.2686745" lon="11.9257528"><ele>34.0</ele><time>2026-05-02T14:03:14.002Z</time></trkpt><trkpt lat="44.2687776" lon="11.9254894"><ele>34.0</ele><time>2026-05-02T14:03:15.007Z</time></trkpt><trkpt lat="44.2688859" lon="11.9252312"><ele>34.0</ele><time>2026-05-02T14:03:16.016Z</time></trkpt><trkpt lat="44.2689957" lon="11.9249733"><ele>34.0</ele><time>2026-05-02T14:03:17.003Z</time></trkpt><trkpt lat="44.2691031" lon="11.9247142"><ele>33.66666666666667</ele><time>2026-05-02T14:03:17.996Z</time></trkpt><trkpt lat="44.2692101" lon="11.9244527"><ele>33.333333333333336</ele><time>2026-05-02T14:03:19.002Z</time></trkpt><trkpt lat="44.2693145" lon="11.9241949"><ele>33.0</ele><time>2026-05-02T14:03:19.997Z</time></trkpt><trkpt lat="44.2694193" lon="11.9239324"><ele>33.0</ele><time>2026-05-02T14:03:21.005Z</time></trkpt><trkpt lat="44.2695236" lon="11.9236664"><ele>33.0</ele><time>2026-05-02T14:03:22.01Z</time></trkpt><trkpt lat="44.2696278" lon="11.9234035"><ele>33.0</ele><time>2026-05-02T14:03:23.008Z</time></trkpt><trkpt lat="44.2697339" lon="11.9231427"><ele>33.333333333333336</ele><time>2026-05-02T14:03:24.009Z</time></trkpt><trkpt lat="44.2698406" lon="11.9228848"><ele>33.66666666666667</ele><time>2026-05-02T14:03:24.993Z</time></trkpt><trkpt lat="44.2699468" lon="11.9226228"><ele>34.0</ele><time>2026-05-02T14:03:26.003Z</time></trkpt><trkpt lat="44.2700522" lon="11.9223629"><ele>34.0</ele><time>2026-05-02T14:03:26.994Z</time></trkpt><trkpt lat="44.270157" lon="11.9221032"><ele>34.0</ele><time>2026-05-02T14:03:28.002Z</time></trkpt><trkpt lat="44.2702641" lon="11.921841"><ele>34.0</ele><time>2026-05-02T14:03:29.001Z</time></trkpt><trkpt lat="44.2703695" lon="11.921579"><ele>34.0</ele><time>2026-05-02T14:03:29.996Z</time></trkpt><trkpt lat="44.2704736" lon="11.921318"><ele>34.0</ele><time>2026-05-02T14:03:31.002Z</time></trkpt><trkpt lat="44.2705777" lon="11.9210632"><ele>34.0</ele><time>2026-05-02T14:03:32.009Z</time></trkpt><trkpt lat="44.2706843" lon="11.9208039"><ele>34.0</ele><time>2026-05-02T14:03:33.013Z</time></trkpt><trkpt lat="44.2707907" lon="11.9205461"><ele>34.0</ele><time>2026-05-02T14:03:34.01Z</time></trkpt><trkpt lat="44.2708955" lon="11.920286"><ele>34.0</ele><time>2026-05-02T14:03:35.004Z</time></trkpt><trkpt lat="44.271" lon="11.9200236"><ele>34.0</ele><time>2026-05-02T14:03:36.001Z</time></trkpt><trkpt lat="44.2711055" lon="11.9197577"><ele>34.0</ele><time>2026-05-02T14:03:36.999Z</time></trkpt><trkpt lat="44.2712099" lon="11.9194942"><ele>34.0</ele><time>2026-05-02T14:03:37.998Z</time></trkpt><trkpt lat="44.271316" lon="11.9192303"><ele>34.0</ele><time>2026-05-02T14:03:39.002Z</time></trkpt><trkpt lat="44.2714218" lon="11.9189711"><ele>34.0</ele><time>2026-05-02T14:03:40.022Z</time></trkpt><trkpt lat="44.2715291" lon="11.9187107"><ele>34.0</ele><time>2026-05-02T14:03:41.008Z</time></trkpt><trkpt lat="44.2716332" lon="11.9184494"><ele>34.333333333333336</ele><time>2026-05-02T14:03:41.999Z</time></trkpt><trkpt lat="44.2717358" lon="11.9181844"><ele>34.666666666666664</ele><time>2026-05-02T14:03:42.991Z</time></trkpt><trkpt lat="44.2718391" lon="11.9179177"><ele>35.0</ele><time>2026-05-02T14:03:44Z</time></trkpt><trkpt lat="44.2719425" lon="11.9176575"><ele>35.33333333333333</ele><time>2026-05-02T14:03:44.994Z</time></trkpt><trkpt lat="44.2720477" lon="11.917403"><ele>35.666666666666664</ele><time>2026-05-02T14:03:45.996Z</time></trkpt><trkpt lat="44.2721561" lon="11.9171411"><ele>36.0</ele><time>2026-05-02T14:03:47.004Z</time></trkpt><trkpt lat="44.2722667" lon="11.9168835"><ele>36.0</ele><time>2026-05-02T14:03:47.99Z</time></trkpt><trkpt lat="44.2723765" lon="11.9166205"><ele>36.0</ele><time>2026-05-02T14:03:49.003Z</time></trkpt><trkpt lat="44.2724819" lon="11.9163567"><ele>36.0</ele><time>2026-05-02T14:03:50.021Z</time></trkpt><trkpt lat="44.2725816" lon="11.9160976"><ele>36.333333333333336</ele><time>2026-05-02T14:03:51.001Z</time></trkpt><trkpt lat="44.2726843" lon="11.9158348"><ele>36.66666666666667</ele><time>2026-05-02T14:03:52Z</time></trkpt><trkpt lat="44.2727848" lon="11.9155721"><ele>37.0</ele><time>2026-05-02T14:03:52.99Z</time></trkpt><trkpt lat="44.2728886" lon="11.91531"><ele>36.66666666666667</ele><time>2026-05-02T14:03:53.998Z</time></trkpt><trkpt lat="44.2729947" lon="11.9150467"><ele>36.333333333333336</ele><time>2026-05-02T14:03:55.017Z</time></trkpt><trkpt lat="44.2731022" lon="11.9147897"><ele>36.0</ele><time>2026-05-02T14:03:55.998Z</time></trkpt><trkpt lat="44.2732093" lon="11.9145285"><ele>36.0</ele><time>2026-05-02T14:03:57.003Z</time></trkpt><trkpt lat="44.2733149" lon="11.9142695"><ele>36.0</ele><time>2026-05-02T14:03:58.005Z</time></trkpt><trkpt lat="44.2734222" lon="11.9140154"><ele>36.0</ele><time>2026-05-02T14:03:58.997Z</time></trkpt><trkpt lat="44.2735265" lon="11.9137588"><ele>36.0</ele><time>2026-05-02T14:03:59.996Z</time></trkpt><trkpt lat="44.2736309" lon="11.9135092"><ele>36.0</ele><time>2026-05-02T14:04:00.997Z</time></trkpt><trkpt lat="44.2737346" lon="11.9132597"><ele>36.0</ele><time>2026-05-02T14:04:02.016Z</time></trkpt><trkpt lat="44.2738333" lon="11.9130154"><ele>36.0</ele><time>2026-05-02T14:04:02.997Z</time></trkpt><trkpt lat="44.2739332" lon="11.9127693"><ele>36.0</ele><time>2026-05-02T14:04:04Z</time></trkpt><trkpt lat="44.2740316" lon="11.9125236"><ele>36.0</ele><time>2026-05-02T14:04:05Z</time></trkpt><trkpt lat="44.2741304" lon="11.9122781"><ele>36.0</ele><time>2026-05-02T14:04:06.005Z</time></trkpt><trkpt lat="44.2742264" lon="11.9120316"><ele>36.0</ele><time>2026-05-02T14:04:07.01Z</time></trkpt><trkpt lat="44.2743234" lon="11.9117845"><ele>36.0</ele><time>2026-05-02T14:04:08Z</time></trkpt><trkpt lat="44.2744209" lon="11.9115496"><ele>36.0</ele><time>2026-05-02T14:04:08.994Z</time></trkpt><trkpt lat="44.274506" lon="11.9113424"><ele>36.0</ele><time>2026-05-02T14:04:10.007Z</time></trkpt><trkpt lat="44.2745777" lon="11.9111607"><ele>36.0</ele><time>2026-05-02T14:04:10.998Z</time></trkpt><trkpt lat="44.2746423" lon="11.9110015"><ele>36.0</ele><time>2026-05-02T14:04:11.999Z</time></trkpt><trkpt lat="44.2746973" lon="11.9108628"><ele>36.0</ele><time>2026-05-02T14:04:12.996Z</time></trkpt><trkpt lat="44.2747523" lon="11.9107327"><ele>36.0</ele><time>2026-05-02T14:04:14.001Z</time></trkpt><trkpt lat="44.2748082" lon="11.9106217"><ele>36.0</ele><time>2026-05-02T14:04:15.01Z</time></trkpt><trkpt lat="44.2748695" lon="11.9105277"><ele>36.0</ele><time>2026-05-02T14:04:16.003Z</time></trkpt><trkpt lat="44.2749335" lon="11.9104506"><ele>35.8</ele><time>2026-05-02T14:04:17.001Z</time></trkpt><trkpt lat="44.2750055" lon="11.9104042"><ele>35.6</ele><time>2026-05-02T14:04:18.001Z</time></trkpt><trkpt lat="44.2750884" lon="11.9103966"><ele>35.4</ele><time>2026-05-02T14:04:18.997Z</time></trkpt><trkpt lat="44.2751907" lon="11.9104106"><ele>35.2</ele><time>2026-05-02T14:04:20.005Z</time></trkpt><trkpt lat="44.2753052" lon="11.9104499"><ele>35.0</ele><time>2026-05-02T14:04:21.001Z</time></trkpt><trkpt lat="44.2754315" lon="11.9105131"><ele>35.0</ele><time>2026-05-02T14:04:22.01Z</time></trkpt><trkpt lat="44.2755748" lon="11.9105968"><ele>35.0</ele><time>2026-05-02T14:04:22.998Z</time></trkpt><trkpt lat="44.2757335" lon="11.9107087"><ele>35.0</ele><time>2026-05-02T14:04:24.008Z</time></trkpt><trkpt lat="44.2758884" lon="11.9108283"><ele>35.25</ele><time>2026-05-02T14:04:25.006Z</time></trkpt><trkpt lat="44.2760235" lon="11.9109356"><ele>35.5</ele><time>2026-05-02T14:04:26.007Z</time></trkpt><trkpt lat="44.2761426" lon="11.9110293"><ele>35.75</ele><time>2026-05-02T14:04:26.998Z</time></trkpt><trkpt lat="44.2762561" lon="11.9111165"><ele>36.0</ele><time>2026-05-02T14:04:28.008Z</time></trkpt><trkpt lat="44.2763607" lon="11.9112028"><ele>35.5</ele><time>2026-05-02T14:04:29.02Z</time></trkpt><trkpt lat="44.2764669" lon="11.9112868"><ele>35.0</ele><time>2026-05-02T14:04:29.996Z</time></trkpt><trkpt lat="44.2765854" lon="11.9113897"><ele>34.5</ele><time>2026-05-02T14:04:30.998Z</time></trkpt><trkpt lat="44.2767261" lon="11.9115017"><ele>34.0</ele><time>2026-05-02T14:04:32Z</time></trkpt><trkpt lat="44.2768933" lon="11.9116215"><ele>34.0</ele><time>2026-05-02T14:04:32.995Z</time></trkpt><trkpt lat="44.277082" lon="11.9117663"><ele>34.0</ele><time>2026-05-02T14:04:34.003Z</time></trkpt><trkpt lat="44.2772692" lon="11.9119126"><ele>34.0</ele><time>2026-05-02T14:04:35.02Z</time></trkpt><trkpt lat="44.2774333" lon="11.9120334"><ele>34.0</ele><time>2026-05-02T14:04:36.012Z</time></trkpt><trkpt lat="44.2775693" lon="11.9121407"><ele>34.0</ele><time>2026-05-02T14:04:37.002Z</time></trkpt><trkpt lat="44.2776768" lon="11.912217"><ele>34.0</ele><time>2026-05-02T14:04:38.018Z</time></trkpt><trkpt lat="44.277757" lon="11.9122808"><ele>34.0</ele><time>2026-05-02T14:04:39.006Z</time></trkpt><trkpt lat="44.2778224" lon="11.9123228"><ele>34.0</ele><time>2026-05-02T14:04:40.009Z</time></trkpt><trkpt lat="44.2779444" lon="11.9123007"><ele>34.0</ele><time>2026-05-02T14:04:41.983Z</time></trkpt><trkpt lat="44.2780164" lon="11.9121248"><ele>34.0</ele><time>2026-05-02T14:04:43.989Z</time></trkpt><trkpt lat="44.2780332" lon="11.9119916"><ele>34.0</ele><time>2026-05-02T14:04:44.982Z</time></trkpt><trkpt lat="44.2780508" lon="11.9118367"><ele>34.0</ele><time>2026-05-02T14:04:46.006Z</time></trkpt><trkpt lat="44.2780917" lon="11.9116728"><ele>34.333333333333336</ele><time>2026-05-02T14:04:46.996Z</time></trkpt><trkpt lat="44.2781627" lon="11.9114735"><ele>34.666666666666664</ele><time>2026-05-02T14:04:47.994Z</time></trkpt><trkpt lat="44.278257" lon="11.9112726"><ele>35.0</ele><time>2026-05-02T14:04:49.012Z</time></trkpt><trkpt lat="44.2783528" lon="11.9110631"><ele>34.5</ele><time>2026-05-02T14:04:49.993Z</time></trkpt><trkpt lat="44.2784368" lon="11.910868"><ele>34.0</ele><time>2026-05-02T14:04:51.008Z</time></trkpt><trkpt lat="44.2785105" lon="11.9107031"><ele>33.5</ele><time>2026-05-02T14:04:52.01Z</time></trkpt><trkpt lat="44.2785766" lon="11.9105677"><ele>33.0</ele><time>2026-05-02T14:04:53.004Z</time></trkpt><trkpt lat="44.2786396" lon="11.9104696"><ele>33.0</ele><time>2026-05-02T14:04:53.99Z</time></trkpt><trkpt lat="44.2786947" lon="11.9103857"><ele>33.0</ele><time>2026-05-02T14:04:55.004Z</time></trkpt><trkpt lat="44.2787233" lon="11.9102739"><ele>33.0</ele><time>2026-05-02T14:04:56.001Z</time></trkpt><trkpt lat="44.2787413" lon="11.9101509"><ele>33.0</ele><time>2026-05-02T14:04:57.002Z</time></trkpt><trkpt lat="44.2787798" lon="11.9099973"><ele>33.0</ele><time>2026-05-02T14:04:58.025Z</time></trkpt><trkpt lat="44.2788625" lon="11.9097912"><ele>33.0</ele><time>2026-05-02T14:04:59.018Z</time></trkpt><trkpt lat="44.2789617" lon="11.9095424"><ele>33.0</ele><time>2026-05-02T14:04:59.995Z</time></trkpt><trkpt lat="44.2790635" lon="11.9092736"><ele>33.0</ele><time>2026-05-02T14:05:00.994Z</time></trkpt><trkpt lat="44.2791817" lon="11.908987"><ele>33.666666666666664</ele><time>2026-05-02T14:05:02.012Z</time></trkpt><trkpt lat="44.2792949" lon="11.9086993"><ele>34.33333333333333</ele><time>2026-05-02T14:05:02.999Z</time></trkpt><trkpt lat="44.2793944" lon="11.9084437"><ele>35.0</ele><time>2026-05-02T14:05:04.001Z</time></trkpt><trkpt lat="44.2794824" lon="11.9082046"><ele>35.33333333333333</ele><time>2026-05-02T14:05:04.992Z</time></trkpt><trkpt lat="44.2795676" lon="11.9079865"><ele>35.666666666666664</ele><time>2026-05-02T14:05:06.001Z</time></trkpt><trkpt lat="44.2796472" lon="11.9077836"><ele>36.0</ele><time>2026-05-02T14:05:07.018Z</time></trkpt><trkpt lat="44.2797183" lon="11.9076101"><ele>35.8</ele><time>2026-05-02T14:05:08.002Z</time></trkpt><trkpt lat="44.2797817" lon="11.9074523"><ele>35.6</ele><time>2026-05-02T14:05:09.009Z</time></trkpt><trkpt lat="44.2798506" lon="11.9073233"><ele>35.4</ele><time>2026-05-02T14:05:09.999Z</time></trkpt><trkpt lat="44.279919" lon="11.9072002"><ele>35.2</ele><time>2026-05-02T14:05:11.003Z</time></trkpt><trkpt lat="44.2799702" lon="11.9070933"><ele>35.0</ele><time>2026-05-02T14:05:12.019Z</time></trkpt><trkpt lat="44.2799976" lon="11.9069723"><ele>35.0</ele><time>2026-05-02T14:05:13.003Z</time></trkpt><trkpt lat="44.2800225" lon="11.906831"><ele>35.0</ele><time>2026-05-02T14:05:14.004Z</time></trkpt><trkpt lat="44.2800687" lon="11.9066696"><ele>35.0</ele><time>2026-05-02T14:05:15.003Z</time></trkpt><trkpt lat="44.2801434" lon="11.9064945"><ele>35.0</ele><time>2026-05-02T14:05:16.005Z</time></trkpt><trkpt lat="44.2802166" lon="11.9063048"><ele>35.0</ele><time>2026-05-02T14:05:17.009Z</time></trkpt><trkpt lat="44.2803011" lon="11.9061053"><ele>35.0</ele><time>2026-05-02T14:05:18.013Z</time></trkpt><trkpt lat="44.2803862" lon="11.9059007"><ele>35.0</ele><time>2026-05-02T14:05:19.007Z</time></trkpt><trkpt lat="44.2804639" lon="11.9057099"><ele>35.0</ele><time>2026-05-02T14:05:20Z</time></trkpt><trkpt lat="44.2805328" lon="11.9055312"><ele>35.0</ele><time>2026-05-02T14:05:21Z</time></trkpt><trkpt lat="44.2805927" lon="11.9053602"><ele>35.0</ele><time>2026-05-02T14:05:22.001Z</time></trkpt><trkpt lat="44.2806527" lon="11.9051914"><ele>35.0</ele><time>2026-05-02T14:05:23.006Z</time></trkpt><trkpt lat="44.280722" lon="11.9050254"><ele>35.0</ele><time>2026-05-02T14:05:24.002Z</time></trkpt><trkpt lat="44.2807969" lon="11.9048597"><ele>35.0</ele><time>2026-05-02T14:05:24.995Z</time></trkpt><trkpt lat="44.2808719" lon="11.9046846"><ele>35.0</ele><time>2026-05-02T14:05:25.994Z</time></trkpt><trkpt lat="44.2809432" lon="11.9044983"><ele>35.0</ele><time>2026-05-02T14:05:27.006Z</time></trkpt><trkpt lat="44.2810056" lon="11.9042957"><ele>35.33333333333333</ele><time>2026-05-02T14:05:28Z</time></trkpt><trkpt lat="44.2810617" lon="11.9040803"><ele>35.666666666666664</ele><time>2026-05-02T14:05:28.998Z</time></trkpt><trkpt lat="44.2811122" lon="11.9038826"><ele>36.0</ele><time>2026-05-02T14:05:30.017Z</time></trkpt><trkpt lat="44.2811666" lon="11.9036864"><ele>36.0</ele><time>2026-05-02T14:05:30.993Z</time></trkpt><trkpt lat="44.2812399" lon="11.9035035"><ele>36.0</ele><time>2026-05-02T14:05:31.999Z</time></trkpt><trkpt lat="44.2813253" lon="11.9033256"><ele>36.0</ele><time>2026-05-02T14:05:32.995Z</time></trkpt><trkpt lat="44.2814068" lon="11.9031367"><ele>36.0</ele><time>2026-05-02T14:05:34.01Z</time></trkpt><trkpt lat="44.2814911" lon="11.9029503"><ele>36.0</ele><time>2026-05-02T14:05:34.984Z</time></trkpt><trkpt lat="44.281573" lon="11.9027566"><ele>36.0</ele><time>2026-05-02T14:05:35.995Z</time></trkpt><trkpt lat="44.2816461" lon="11.9025796"><ele>36.0</ele><time>2026-05-02T14:05:37.004Z</time></trkpt><trkpt lat="44.2817019" lon="11.9024318"><ele>36.0</ele><time>2026-05-02T14:05:37.989Z</time></trkpt><trkpt lat="44.2817411" lon="11.9023107"><ele>36.0</ele><time>2026-05-02T14:05:39.014Z</time></trkpt><trkpt lat="44.2817714" lon="11.9022137"><ele>36.0</ele><time>2026-05-02T14:05:40.007Z</time></trkpt><trkpt lat="44.2818375" lon="11.9020895"><ele>36.0</ele><time>2026-05-02T14:05:42.005Z</time></trkpt><trkpt lat="44.2819479" lon="11.9021054"><ele>36.0</ele><time>2026-05-02T14:05:43.99Z</time></trkpt><trkpt lat="44.2820146" lon="11.9021485"><ele>36.0</ele><time>2026-05-02T14:05:44.981Z</time></trkpt><trkpt lat="44.2820864" lon="11.9021952"><ele>36.0</ele><time>2026-05-02T14:05:46.01Z</time></trkpt><trkpt lat="44.2821745" lon="11.9022586"><ele>36.0</ele><time>2026-05-02T14:05:47.007Z</time></trkpt><trkpt lat="44.2822588" lon="11.9023098"><ele>36.0</ele><time>2026-05-02T14:05:47.998Z</time></trkpt><trkpt lat="44.2823492" lon="11.9023665"><ele>36.0</ele><time>2026-05-02T14:05:49Z</time></trkpt><trkpt lat="44.2824493" lon="11.9024386"><ele>35.75</ele><time>2026-05-02T14:05:49.998Z</time></trkpt><trkpt lat="44.2825607" lon="11.9025445"><ele>35.5</ele><time>2026-05-02T14:05:50.995Z</time></trkpt><trkpt lat="44.2826764" lon="11.9026402"><ele>35.25</ele><time>2026-05-02T14:05:52Z</time></trkpt><trkpt lat="44.2827737" lon="11.9027338"><ele>35.0</ele><time>2026-05-02T14:05:52.994Z</time></trkpt><trkpt lat="44.2828548" lon="11.902802"><ele>35.0</ele><time>2026-05-02T14:05:54.006Z</time></trkpt><trkpt lat="44.2829443" lon="11.9028677"><ele>35.0</ele><time>2026-05-02T14:05:56.007Z</time></trkpt><trkpt lat="44.283005" lon="11.9028249"><ele>35.0</ele><time>2026-05-02T14:05:58.004Z</time></trkpt><trkpt lat="44.2830562" lon="11.902654"><ele>35.0</ele><time>2026-05-02T14:05:59.997Z</time></trkpt><trkpt lat="44.2830782" lon="11.9025336"><ele>35.0</ele><time>2026-05-02T14:06:00.997Z</time></trkpt><trkpt lat="44.2831025" lon="11.9023947"><ele>35.166666666666664</ele><time>2026-05-02T14:06:01.994Z</time></trkpt><trkpt lat="44.2831301" lon="11.9022586"><ele>35.33333333333333</ele><time>2026-05-02T14:06:02.999Z</time></trkpt><trkpt lat="44.2831508" lon="11.9021357"><ele>35.5</ele><time>2026-05-02T14:06:04.006Z</time></trkpt><trkpt lat="44.2831735" lon="11.9020241"><ele>35.666666666666664</ele><time>2026-05-02T14:06:04.997Z</time></trkpt><trkpt lat="44.2832047" lon="11.9019286"><ele>35.833333333333336</ele><time>2026-05-02T14:06:05.999Z</time></trkpt><trkpt lat="44.2832207" lon="11.9018304"><ele>36.0</ele><time>2026-05-02T14:06:08.015Z</time></trkpt><trkpt lat="44.2831592" lon="11.9017967"><ele>36.0</ele><time>2026-05-02T14:06:17.98Z</time></trkpt><trkpt lat="44.2830986" lon="11.9017267"><ele>37.0</ele><time>2026-05-02T14:06:31.998Z</time></trkpt><trkpt lat="44.2830398" lon="11.9016909"><ele>35.0</ele><time>2026-05-02T14:06:34.004Z</time></trkpt><trkpt lat="44.2829643" lon="11.9016413"><ele>35.0</ele><time>2026-05-02T14:06:37.004Z</time></trkpt><trkpt lat="44.2829125" lon="11.9015884"><ele>35.0</ele><time>2026-05-02T14:06:39.985Z</time></trkpt></trkseg></trk></gpx>